<?xml version="1.0" encoding="UTF-8" standalone="no" ?>
<gpx xmlns="http://www.topografix.com/GPX/1/1" xmlns:xsi="http://www.w3.org/2001/XMLSchema-instance" xsi:schemaLocation="http://www.topografix.com/GPX/1/1 http://www.topografix.com/GPX/1/1/gpx.xsd" version="1.1" creator="VisuGPX - https://www.visugpx.com">
  <metadata>
    <name>Tour int2rieur des monts d\'or</name>
    <desc><![CDATA[Tour int2rieur des monts d\'or]]></desc>
  </metadata>
  <trk>
    <name><![CDATA[Tour int2rieur des monts d\'or_1]]></name>
    <trkseg>
      <trkpt lat="45.82711" lon="4.79516">
        <ele>442</ele>
        <time>2014-05-01T13:02:04.278Z</time>
      </trkpt>
      <trkpt lat="45.82712" lon="4.79518">
        <ele>438</ele>
        <time>2014-05-01T13:02:09.28Z</time>
      </trkpt>
      <trkpt lat="45.82708" lon="4.79516">
        <ele>440</ele>
        <time>2014-05-01T13:02:15.275Z</time>
      </trkpt>
      <trkpt lat="45.82709" lon="4.79514">
        <ele>440</ele>
        <time>2014-05-01T13:02:20.275Z</time>
      </trkpt>
      <trkpt lat="45.82709" lon="4.79514">
        <ele>439</ele>
        <time>2014-05-01T13:02:26.255Z</time>
      </trkpt>
      <trkpt lat="45.82709" lon="4.79514">
        <ele>439</ele>
        <time>2014-05-01T13:02:31.255Z</time>
      </trkpt>
      <trkpt lat="45.82709" lon="4.79514">
        <ele>439</ele>
        <time>2014-05-01T13:02:36.265Z</time>
      </trkpt>
      <trkpt lat="45.82711" lon="4.79511">
        <ele>439</ele>
        <time>2014-05-01T13:02:41.265Z</time>
      </trkpt>
      <trkpt lat="45.82709" lon="4.79525">
        <ele>441</ele>
        <time>2014-05-01T13:02:46.281Z</time>
      </trkpt>
      <trkpt lat="45.82713" lon="4.79548">
        <ele>441</ele>
        <time>2014-05-01T13:02:51.29Z</time>
      </trkpt>
      <trkpt lat="45.82718" lon="4.79575">
        <ele>442</ele>
        <time>2014-05-01T13:02:57.28Z</time>
      </trkpt>
      <trkpt lat="45.82719" lon="4.79599">
        <ele>439</ele>
        <time>2014-05-01T13:03:01.29Z</time>
      </trkpt>
      <trkpt lat="45.82722" lon="4.79623">
        <ele>436</ele>
        <time>2014-05-01T13:03:06.295Z</time>
      </trkpt>
      <trkpt lat="45.82734" lon="4.79633">
        <ele>433</ele>
        <time>2014-05-01T13:03:11.338Z</time>
      </trkpt>
      <trkpt lat="45.82742" lon="4.79636">
        <ele>434</ele>
        <time>2014-05-01T13:03:17.298Z</time>
      </trkpt>
      <trkpt lat="45.82745" lon="4.79648">
        <ele>435</ele>
        <time>2014-05-01T13:03:22.303Z</time>
      </trkpt>
      <trkpt lat="45.82744" lon="4.7965">
        <ele>436</ele>
        <time>2014-05-01T13:03:27.356Z</time>
      </trkpt>
      <trkpt lat="45.82742" lon="4.7965">
        <ele>435</ele>
        <time>2014-05-01T13:03:33.299Z</time>
      </trkpt>
      <trkpt lat="45.82726" lon="4.79658">
        <ele>436</ele>
        <time>2014-05-01T13:03:36.318Z</time>
      </trkpt>
      <trkpt lat="45.82709" lon="4.79669">
        <ele>435</ele>
        <time>2014-05-01T13:03:41.323Z</time>
      </trkpt>
      <trkpt lat="45.82707" lon="4.79671">
        <ele>435</ele>
        <time>2014-05-01T13:03:47.309Z</time>
      </trkpt>
      <trkpt lat="45.82698" lon="4.7967">
        <ele>433</ele>
        <time>2014-05-01T13:03:52.326Z</time>
      </trkpt>
      <trkpt lat="45.8268" lon="4.79677">
        <ele>430</ele>
        <time>2014-05-01T13:03:54.315Z</time>
      </trkpt>
      <trkpt lat="45.82626" lon="4.79696">
        <ele>426</ele>
        <time>2014-05-01T13:03:59.36Z</time>
      </trkpt>
      <trkpt lat="45.82616" lon="4.79711">
        <ele>425</ele>
        <time>2014-05-01T13:04:02.32Z</time>
      </trkpt>
      <trkpt lat="45.82607" lon="4.79732">
        <ele>425</ele>
        <time>2014-05-01T13:04:07.323Z</time>
      </trkpt>
      <trkpt lat="45.82599" lon="4.79759">
        <ele>424</ele>
        <time>2014-05-01T13:04:13.323Z</time>
      </trkpt>
      <trkpt lat="45.82595" lon="4.79782">
        <ele>422</ele>
        <time>2014-05-01T13:04:19.323Z</time>
      </trkpt>
      <trkpt lat="45.82593" lon="4.79808">
        <ele>422</ele>
        <time>2014-05-01T13:04:24.334Z</time>
      </trkpt>
      <trkpt lat="45.82594" lon="4.79832">
        <ele>421</ele>
        <time>2014-05-01T13:04:28.32Z</time>
      </trkpt>
      <trkpt lat="45.82586" lon="4.79849">
        <ele>420</ele>
        <time>2014-05-01T13:04:33.323Z</time>
      </trkpt>
      <trkpt lat="45.8258" lon="4.79882">
        <ele>418</ele>
        <time>2014-05-01T13:04:38.328Z</time>
      </trkpt>
      <trkpt lat="45.82573" lon="4.79905">
        <ele>420</ele>
        <time>2014-05-01T13:04:43.33Z</time>
      </trkpt>
      <trkpt lat="45.82572" lon="4.79927">
        <ele>419</ele>
        <time>2014-05-01T13:04:49.324Z</time>
      </trkpt>
      <trkpt lat="45.82563" lon="4.79942">
        <ele>420</ele>
        <time>2014-05-01T13:04:53.323Z</time>
      </trkpt>
      <trkpt lat="45.82556" lon="4.79967">
        <ele>422</ele>
        <time>2014-05-01T13:04:58.323Z</time>
      </trkpt>
      <trkpt lat="45.82551" lon="4.7999">
        <ele>422</ele>
        <time>2014-05-01T13:05:03.366Z</time>
      </trkpt>
      <trkpt lat="45.82547" lon="4.80016">
        <ele>423</ele>
        <time>2014-05-01T13:05:09.335Z</time>
      </trkpt>
      <trkpt lat="45.82536" lon="4.80038">
        <ele>425</ele>
        <time>2014-05-01T13:05:15.33Z</time>
      </trkpt>
      <trkpt lat="45.82522" lon="4.80048">
        <ele>426</ele>
        <time>2014-05-01T13:05:20.335Z</time>
      </trkpt>
      <trkpt lat="45.82506" lon="4.8007">
        <ele>428</ele>
        <time>2014-05-01T13:05:26.33Z</time>
      </trkpt>
      <trkpt lat="45.82487" lon="4.80102">
        <ele>424</ele>
        <time>2014-05-01T13:05:32.32Z</time>
      </trkpt>
      <trkpt lat="45.82474" lon="4.80125">
        <ele>424</ele>
        <time>2014-05-01T13:05:38.31Z</time>
      </trkpt>
      <trkpt lat="45.8246" lon="4.80135">
        <ele>425</ele>
        <time>2014-05-01T13:05:43.343Z</time>
      </trkpt>
      <trkpt lat="45.8244" lon="4.80162">
        <ele>420</ele>
        <time>2014-05-01T13:05:49.339Z</time>
      </trkpt>
      <trkpt lat="45.82436" lon="4.80186">
        <ele>417</ele>
        <time>2014-05-01T13:05:53.325Z</time>
      </trkpt>
      <trkpt lat="45.82434" lon="4.80205">
        <ele>415</ele>
        <time>2014-05-01T13:05:58.33Z</time>
      </trkpt>
      <trkpt lat="45.82425" lon="4.80222">
        <ele>414</ele>
        <time>2014-05-01T13:06:03.344Z</time>
      </trkpt>
      <trkpt lat="45.82419" lon="4.80243">
        <ele>413</ele>
        <time>2014-05-01T13:06:09.335Z</time>
      </trkpt>
      <trkpt lat="45.82419" lon="4.80266">
        <ele>413</ele>
        <time>2014-05-01T13:06:14.339Z</time>
      </trkpt>
      <trkpt lat="45.82413" lon="4.80281">
        <ele>415</ele>
        <time>2014-05-01T13:06:20.318Z</time>
      </trkpt>
      <trkpt lat="45.82409" lon="4.80299">
        <ele>416</ele>
        <time>2014-05-01T13:06:25.33Z</time>
      </trkpt>
      <trkpt lat="45.82402" lon="4.80323">
        <ele>415</ele>
        <time>2014-05-01T13:06:30.344Z</time>
      </trkpt>
      <trkpt lat="45.82397" lon="4.80341">
        <ele>417</ele>
        <time>2014-05-01T13:06:35.351Z</time>
      </trkpt>
      <trkpt lat="45.82394" lon="4.80363">
        <ele>417</ele>
        <time>2014-05-01T13:06:41.355Z</time>
      </trkpt>
      <trkpt lat="45.82385" lon="4.80392">
        <ele>419</ele>
        <time>2014-05-01T13:06:47.335Z</time>
      </trkpt>
      <trkpt lat="45.82381" lon="4.80418">
        <ele>419</ele>
        <time>2014-05-01T13:06:52.344Z</time>
      </trkpt>
      <trkpt lat="45.82375" lon="4.80451">
        <ele>418</ele>
        <time>2014-05-01T13:06:57.351Z</time>
      </trkpt>
      <trkpt lat="45.82376" lon="4.80474">
        <ele>417</ele>
        <time>2014-05-01T13:07:03.339Z</time>
      </trkpt>
      <trkpt lat="45.82367" lon="4.80488">
        <ele>415</ele>
        <time>2014-05-01T13:07:07.344Z</time>
      </trkpt>
      <trkpt lat="45.82364" lon="4.80509">
        <ele>412</ele>
        <time>2014-05-01T13:07:12.351Z</time>
      </trkpt>
      <trkpt lat="45.8236" lon="4.8053">
        <ele>411</ele>
        <time>2014-05-01T13:07:17.355Z</time>
      </trkpt>
      <trkpt lat="45.82355" lon="4.80557">
        <ele>412</ele>
        <time>2014-05-01T13:07:22.36Z</time>
      </trkpt>
      <trkpt lat="45.82353" lon="4.80576">
        <ele>411</ele>
        <time>2014-05-01T13:07:27.388Z</time>
      </trkpt>
      <trkpt lat="45.82356" lon="4.80612">
        <ele>408</ele>
        <time>2014-05-01T13:07:33.344Z</time>
      </trkpt>
      <trkpt lat="45.82355" lon="4.80635">
        <ele>408</ele>
        <time>2014-05-01T13:07:38.346Z</time>
      </trkpt>
      <trkpt lat="45.8235" lon="4.80662">
        <ele>401</ele>
        <time>2014-05-01T13:07:43.386Z</time>
      </trkpt>
      <trkpt lat="45.82355" lon="4.80683">
        <ele>394</ele>
        <time>2014-05-01T13:07:49.348Z</time>
      </trkpt>
      <trkpt lat="45.82372" lon="4.80694">
        <ele>392</ele>
        <time>2014-05-01T13:07:52.363Z</time>
      </trkpt>
      <trkpt lat="45.82379" lon="4.80695">
        <ele>393</ele>
        <time>2014-05-01T13:07:58.344Z</time>
      </trkpt>
      <trkpt lat="45.82386" lon="4.80686">
        <ele>393</ele>
        <time>2014-05-01T13:08:03.344Z</time>
      </trkpt>
      <trkpt lat="45.82392" lon="4.80682">
        <ele>391</ele>
        <time>2014-05-01T13:08:08.36Z</time>
      </trkpt>
      <trkpt lat="45.82406" lon="4.80677">
        <ele>392</ele>
        <time>2014-05-01T13:08:14.344Z</time>
      </trkpt>
      <trkpt lat="45.82408" lon="4.80674">
        <ele>392</ele>
        <time>2014-05-01T13:08:20.339Z</time>
      </trkpt>
      <trkpt lat="45.82418" lon="4.80674">
        <ele>394</ele>
        <time>2014-05-01T13:08:26.335Z</time>
      </trkpt>
      <trkpt lat="45.82423" lon="4.80672">
        <ele>396</ele>
        <time>2014-05-01T13:08:31.386Z</time>
      </trkpt>
      <trkpt lat="45.82432" lon="4.80674">
        <ele>396</ele>
        <time>2014-05-01T13:08:37.341Z</time>
      </trkpt>
      <trkpt lat="45.82445" lon="4.80671">
        <ele>399</ele>
        <time>2014-05-01T13:08:43.33Z</time>
      </trkpt>
      <trkpt lat="45.82454" lon="4.8067">
        <ele>400</ele>
        <time>2014-05-01T13:08:48.338Z</time>
      </trkpt>
      <trkpt lat="45.82466" lon="4.80668">
        <ele>400</ele>
        <time>2014-05-01T13:08:53.351Z</time>
      </trkpt>
      <trkpt lat="45.82477" lon="4.80664">
        <ele>402</ele>
        <time>2014-05-01T13:08:59.339Z</time>
      </trkpt>
      <trkpt lat="45.82482" lon="4.80665">
        <ele>403</ele>
        <time>2014-05-01T13:09:04.34Z</time>
      </trkpt>
      <trkpt lat="45.82495" lon="4.80666">
        <ele>404</ele>
        <time>2014-05-01T13:09:10.339Z</time>
      </trkpt>
      <trkpt lat="45.82504" lon="4.80666">
        <ele>409</ele>
        <time>2014-05-01T13:09:16.336Z</time>
      </trkpt>
      <trkpt lat="45.8252" lon="4.80662">
        <ele>411</ele>
        <time>2014-05-01T13:09:23.329Z</time>
      </trkpt>
      <trkpt lat="45.82528" lon="4.80657">
        <ele>412</ele>
        <time>2014-05-01T13:09:28.363Z</time>
      </trkpt>
      <trkpt lat="45.82544" lon="4.80649">
        <ele>411</ele>
        <time>2014-05-01T13:09:34.343Z</time>
      </trkpt>
      <trkpt lat="45.82556" lon="4.80636">
        <ele>411</ele>
        <time>2014-05-01T13:09:38.345Z</time>
      </trkpt>
      <trkpt lat="45.82569" lon="4.80627">
        <ele>413</ele>
        <time>2014-05-01T13:09:43.345Z</time>
      </trkpt>
      <trkpt lat="45.82577" lon="4.8062">
        <ele>414</ele>
        <time>2014-05-01T13:09:48.345Z</time>
      </trkpt>
      <trkpt lat="45.82586" lon="4.80614">
        <ele>414</ele>
        <time>2014-05-01T13:09:54.33Z</time>
      </trkpt>
      <trkpt lat="45.82595" lon="4.80607">
        <ele>415</ele>
        <time>2014-05-01T13:09:59.338Z</time>
      </trkpt>
      <trkpt lat="45.82605" lon="4.806">
        <ele>415</ele>
        <time>2014-05-01T13:10:05.335Z</time>
      </trkpt>
      <trkpt lat="45.82612" lon="4.80597">
        <ele>421</ele>
        <time>2014-05-01T13:10:10.336Z</time>
      </trkpt>
      <trkpt lat="45.82622" lon="4.80593">
        <ele>426</ele>
        <time>2014-05-01T13:10:16.34Z</time>
      </trkpt>
      <trkpt lat="45.82633" lon="4.80586">
        <ele>428</ele>
        <time>2014-05-01T13:10:22.335Z</time>
      </trkpt>
      <trkpt lat="45.82645" lon="4.80585">
        <ele>428</ele>
        <time>2014-05-01T13:10:27.335Z</time>
      </trkpt>
      <trkpt lat="45.82654" lon="4.80584">
        <ele>430</ele>
        <time>2014-05-01T13:10:32.346Z</time>
      </trkpt>
      <trkpt lat="45.82662" lon="4.80578">
        <ele>431</ele>
        <time>2014-05-01T13:10:38.345Z</time>
      </trkpt>
      <trkpt lat="45.82676" lon="4.80569">
        <ele>433</ele>
        <time>2014-05-01T13:10:43.33Z</time>
      </trkpt>
      <trkpt lat="45.82687" lon="4.80556">
        <ele>433</ele>
        <time>2014-05-01T13:10:48.37Z</time>
      </trkpt>
      <trkpt lat="45.82698" lon="4.8055">
        <ele>435</ele>
        <time>2014-05-01T13:10:54.339Z</time>
      </trkpt>
      <trkpt lat="45.82709" lon="4.80542">
        <ele>436</ele>
        <time>2014-05-01T13:10:59.343Z</time>
      </trkpt>
      <trkpt lat="45.82717" lon="4.80539">
        <ele>438</ele>
        <time>2014-05-01T13:11:04.366Z</time>
      </trkpt>
      <trkpt lat="45.82727" lon="4.80537">
        <ele>438</ele>
        <time>2014-05-01T13:11:10.348Z</time>
      </trkpt>
      <trkpt lat="45.82737" lon="4.80532">
        <ele>437</ele>
        <time>2014-05-01T13:11:16.344Z</time>
      </trkpt>
      <trkpt lat="45.82748" lon="4.80527">
        <ele>442</ele>
        <time>2014-05-01T13:11:22.335Z</time>
      </trkpt>
      <trkpt lat="45.82761" lon="4.80524">
        <ele>442</ele>
        <time>2014-05-01T13:11:27.389Z</time>
      </trkpt>
      <trkpt lat="45.82771" lon="4.8052">
        <ele>444</ele>
        <time>2014-05-01T13:11:33.348Z</time>
      </trkpt>
      <trkpt lat="45.82779" lon="4.80513">
        <ele>445</ele>
        <time>2014-05-01T13:11:38.348Z</time>
      </trkpt>
      <trkpt lat="45.82791" lon="4.80511">
        <ele>447</ele>
        <time>2014-05-01T13:11:43.38Z</time>
      </trkpt>
      <trkpt lat="45.82803" lon="4.80507">
        <ele>449</ele>
        <time>2014-05-01T13:11:49.345Z</time>
      </trkpt>
      <trkpt lat="45.82813" lon="4.80506">
        <ele>451</ele>
        <time>2014-05-01T13:11:54.345Z</time>
      </trkpt>
      <trkpt lat="45.82824" lon="4.805">
        <ele>452</ele>
        <time>2014-05-01T13:11:59.378Z</time>
      </trkpt>
      <trkpt lat="45.82833" lon="4.80493">
        <ele>455</ele>
        <time>2014-05-01T13:12:05.348Z</time>
      </trkpt>
      <trkpt lat="45.82846" lon="4.80487">
        <ele>457</ele>
        <time>2014-05-01T13:12:11.346Z</time>
      </trkpt>
      <trkpt lat="45.82855" lon="4.80477">
        <ele>460</ele>
        <time>2014-05-01T13:12:16.351Z</time>
      </trkpt>
      <trkpt lat="45.82856" lon="4.80469">
        <ele>462</ele>
        <time>2014-05-01T13:12:21.36Z</time>
      </trkpt>
      <trkpt lat="45.82862" lon="4.80465">
        <ele>462</ele>
        <time>2014-05-01T13:12:26.365Z</time>
      </trkpt>
      <trkpt lat="45.82862" lon="4.80462">
        <ele>462</ele>
        <time>2014-05-01T13:12:31.373Z</time>
      </trkpt>
      <trkpt lat="45.82863" lon="4.80459">
        <ele>462</ele>
        <time>2014-05-01T13:12:37.355Z</time>
      </trkpt>
      <trkpt lat="45.82863" lon="4.80459">
        <ele>462</ele>
        <time>2014-05-01T13:12:43.35Z</time>
      </trkpt>
      <trkpt lat="45.82863" lon="4.80459">
        <ele>462</ele>
        <time>2014-05-01T13:12:48.36Z</time>
      </trkpt>
      <trkpt lat="45.82875" lon="4.80423">
        <ele>466</ele>
        <time>2014-05-01T13:12:54.348Z</time>
      </trkpt>
      <trkpt lat="45.82877" lon="4.80404">
        <ele>470</ele>
        <time>2014-05-01T13:12:58.353Z</time>
      </trkpt>
      <trkpt lat="45.8289" lon="4.80398">
        <ele>476</ele>
        <time>2014-05-01T13:13:03.389Z</time>
      </trkpt>
      <trkpt lat="45.82902" lon="4.80387">
        <ele>478</ele>
        <time>2014-05-01T13:13:09.344Z</time>
      </trkpt>
      <trkpt lat="45.82912" lon="4.80383">
        <ele>478</ele>
        <time>2014-05-01T13:13:14.348Z</time>
      </trkpt>
      <trkpt lat="45.82919" lon="4.80373">
        <ele>482</ele>
        <time>2014-05-01T13:13:19.385Z</time>
      </trkpt>
      <trkpt lat="45.82933" lon="4.80361">
        <ele>483</ele>
        <time>2014-05-01T13:13:25.343Z</time>
      </trkpt>
      <trkpt lat="45.82941" lon="4.8035">
        <ele>485</ele>
        <time>2014-05-01T13:13:30.344Z</time>
      </trkpt>
      <trkpt lat="45.82949" lon="4.80342">
        <ele>485</ele>
        <time>2014-05-01T13:13:35.356Z</time>
      </trkpt>
      <trkpt lat="45.8296" lon="4.80328">
        <ele>485</ele>
        <time>2014-05-01T13:13:41.355Z</time>
      </trkpt>
      <trkpt lat="45.82973" lon="4.80318">
        <ele>487</ele>
        <time>2014-05-01T13:13:46.345Z</time>
      </trkpt>
      <trkpt lat="45.8298" lon="4.80307">
        <ele>488</ele>
        <time>2014-05-01T13:13:51.351Z</time>
      </trkpt>
      <trkpt lat="45.82986" lon="4.80298">
        <ele>489</ele>
        <time>2014-05-01T13:13:56.353Z</time>
      </trkpt>
      <trkpt lat="45.82995" lon="4.80288">
        <ele>489</ele>
        <time>2014-05-01T13:14:01.355Z</time>
      </trkpt>
      <trkpt lat="45.83004" lon="4.80276">
        <ele>494</ele>
        <time>2014-05-01T13:14:06.414Z</time>
      </trkpt>
      <trkpt lat="45.83016" lon="4.80261">
        <ele>500</ele>
        <time>2014-05-01T13:14:12.385Z</time>
      </trkpt>
      <trkpt lat="45.83033" lon="4.80241">
        <ele>500</ele>
        <time>2014-05-01T13:14:18.365Z</time>
      </trkpt>
      <trkpt lat="45.83046" lon="4.80217">
        <ele>499</ele>
        <time>2014-05-01T13:14:24.364Z</time>
      </trkpt>
      <trkpt lat="45.83059" lon="4.80209">
        <ele>501</ele>
        <time>2014-05-01T13:14:29.368Z</time>
      </trkpt>
      <trkpt lat="45.8307" lon="4.80204">
        <ele>502</ele>
        <time>2014-05-01T13:14:34.369Z</time>
      </trkpt>
      <trkpt lat="45.83077" lon="4.80201">
        <ele>504</ele>
        <time>2014-05-01T13:14:39.378Z</time>
      </trkpt>
      <trkpt lat="45.83088" lon="4.80191">
        <ele>508</ele>
        <time>2014-05-01T13:14:45.37Z</time>
      </trkpt>
      <trkpt lat="45.831" lon="4.80181">
        <ele>509</ele>
        <time>2014-05-01T13:14:49.376Z</time>
      </trkpt>
      <trkpt lat="45.83108" lon="4.80173">
        <ele>511</ele>
        <time>2014-05-01T13:14:54.376Z</time>
      </trkpt>
      <trkpt lat="45.8312" lon="4.80162">
        <ele>513</ele>
        <time>2014-05-01T13:14:59.379Z</time>
      </trkpt>
      <trkpt lat="45.83135" lon="4.8015">
        <ele>511</ele>
        <time>2014-05-01T13:15:05.371Z</time>
      </trkpt>
      <trkpt lat="45.83143" lon="4.80141">
        <ele>511</ele>
        <time>2014-05-01T13:15:11.369Z</time>
      </trkpt>
      <trkpt lat="45.83149" lon="4.8013">
        <ele>512</ele>
        <time>2014-05-01T13:15:16.369Z</time>
      </trkpt>
      <trkpt lat="45.83165" lon="4.80118">
        <ele>512</ele>
        <time>2014-05-01T13:15:22.365Z</time>
      </trkpt>
      <trkpt lat="45.83176" lon="4.8011">
        <ele>514</ele>
        <time>2014-05-01T13:15:28.345Z</time>
      </trkpt>
      <trkpt lat="45.83182" lon="4.80103">
        <ele>512</ele>
        <time>2014-05-01T13:15:33.376Z</time>
      </trkpt>
      <trkpt lat="45.83183" lon="4.801">
        <ele>511</ele>
        <time>2014-05-01T13:15:38.383Z</time>
      </trkpt>
      <trkpt lat="45.83182" lon="4.801">
        <ele>511</ele>
        <time>2014-05-01T13:15:43.383Z</time>
      </trkpt>
      <trkpt lat="45.83187" lon="4.80101">
        <ele>513</ele>
        <time>2014-05-01T13:15:49.374Z</time>
      </trkpt>
      <trkpt lat="45.83176" lon="4.80116">
        <ele>510</ele>
        <time>2014-05-01T13:15:55.365Z</time>
      </trkpt>
      <trkpt lat="45.83169" lon="4.80134">
        <ele>508</ele>
        <time>2014-05-01T13:16:00.365Z</time>
      </trkpt>
      <trkpt lat="45.83153" lon="4.80157">
        <ele>502</ele>
        <time>2014-05-01T13:16:06.386Z</time>
      </trkpt>
      <trkpt lat="45.83146" lon="4.80176">
        <ele>500</ele>
        <time>2014-05-01T13:16:12.365Z</time>
      </trkpt>
      <trkpt lat="45.83144" lon="4.80195">
        <ele>503</ele>
        <time>2014-05-01T13:16:18.345Z</time>
      </trkpt>
      <trkpt lat="45.83129" lon="4.80201">
        <ele>503</ele>
        <time>2014-05-01T13:16:22.376Z</time>
      </trkpt>
      <trkpt lat="45.83117" lon="4.80206">
        <ele>505</ele>
        <time>2014-05-01T13:16:28.353Z</time>
      </trkpt>
      <trkpt lat="45.83115" lon="4.8022">
        <ele>507</ele>
        <time>2014-05-01T13:16:33.353Z</time>
      </trkpt>
      <trkpt lat="45.83103" lon="4.80238">
        <ele>503</ele>
        <time>2014-05-01T13:16:36.353Z</time>
      </trkpt>
      <trkpt lat="45.83082" lon="4.80272">
        <ele>492</ele>
        <time>2014-05-01T13:16:41.356Z</time>
      </trkpt>
      <trkpt lat="45.83093" lon="4.80284">
        <ele>486</ele>
        <time>2014-05-01T13:16:45.364Z</time>
      </trkpt>
      <trkpt lat="45.83106" lon="4.80294">
        <ele>484</ele>
        <time>2014-05-01T13:16:47.349Z</time>
      </trkpt>
      <trkpt lat="45.83119" lon="4.80299">
        <ele>483</ele>
        <time>2014-05-01T13:16:52.349Z</time>
      </trkpt>
      <trkpt lat="45.83138" lon="4.803">
        <ele>485</ele>
        <time>2014-05-01T13:16:58.353Z</time>
      </trkpt>
      <trkpt lat="45.83153" lon="4.80298">
        <ele>488</ele>
        <time>2014-05-01T13:17:03.384Z</time>
      </trkpt>
      <trkpt lat="45.83169" lon="4.80299">
        <ele>488</ele>
        <time>2014-05-01T13:17:09.358Z</time>
      </trkpt>
      <trkpt lat="45.83192" lon="4.80299">
        <ele>488</ele>
        <time>2014-05-01T13:17:15.348Z</time>
      </trkpt>
      <trkpt lat="45.83206" lon="4.80303">
        <ele>487</ele>
        <time>2014-05-01T13:17:20.348Z</time>
      </trkpt>
      <trkpt lat="45.83222" lon="4.80304">
        <ele>484</ele>
        <time>2014-05-01T13:17:26.361Z</time>
      </trkpt>
      <trkpt lat="45.83245" lon="4.80296">
        <ele>474</ele>
        <time>2014-05-01T13:17:32.35Z</time>
      </trkpt>
      <trkpt lat="45.8325" lon="4.80298">
        <ele>472</ele>
        <time>2014-05-01T13:17:38.351Z</time>
      </trkpt>
      <trkpt lat="45.83244" lon="4.80305">
        <ele>471</ele>
        <time>2014-05-01T13:17:44.344Z</time>
      </trkpt>
      <trkpt lat="45.83239" lon="4.80324">
        <ele>471</ele>
        <time>2014-05-01T13:17:49.376Z</time>
      </trkpt>
      <trkpt lat="45.83237" lon="4.80353">
        <ele>469</ele>
        <time>2014-05-01T13:17:55.333Z</time>
      </trkpt>
      <trkpt lat="45.83225" lon="4.80376">
        <ele>465</ele>
        <time>2014-05-01T13:17:59.323Z</time>
      </trkpt>
      <trkpt lat="45.83213" lon="4.80388">
        <ele>464</ele>
        <time>2014-05-01T13:18:03.31Z</time>
      </trkpt>
      <trkpt lat="45.83192" lon="4.80405">
        <ele>463</ele>
        <time>2014-05-01T13:18:08.311Z</time>
      </trkpt>
      <trkpt lat="45.83181" lon="4.80414">
        <ele>463</ele>
        <time>2014-05-01T13:18:13.323Z</time>
      </trkpt>
      <trkpt lat="45.83181" lon="4.80429">
        <ele>463</ele>
        <time>2014-05-01T13:18:18.34Z</time>
      </trkpt>
      <trkpt lat="45.83179" lon="4.80442">
        <ele>462</ele>
        <time>2014-05-01T13:18:23.348Z</time>
      </trkpt>
      <trkpt lat="45.83175" lon="4.80457">
        <ele>460</ele>
        <time>2014-05-01T13:18:29.335Z</time>
      </trkpt>
      <trkpt lat="45.83166" lon="4.8047">
        <ele>461</ele>
        <time>2014-05-01T13:18:34.353Z</time>
      </trkpt>
      <trkpt lat="45.83163" lon="4.80479">
        <ele>462</ele>
        <time>2014-05-01T13:18:39.82Z</time>
      </trkpt>
      <trkpt lat="45.83163" lon="4.80479">
        <ele>462</ele>
        <time>2014-05-01T13:18:45.781Z</time>
      </trkpt>
      <trkpt lat="45.83163" lon="4.80479">
        <ele>462</ele>
        <time>2014-05-01T13:18:51.643Z</time>
      </trkpt>
      <trkpt lat="45.83163" lon="4.80479">
        <ele>462</ele>
        <time>2014-05-01T13:18:56.765Z</time>
      </trkpt>
      <trkpt lat="45.83163" lon="4.80479">
        <ele>462</ele>
        <time>2014-05-01T13:19:01.89Z</time>
      </trkpt>
      <trkpt lat="45.83163" lon="4.80479">
        <ele>462</ele>
        <time>2014-05-01T13:19:07.444Z</time>
      </trkpt>
      <trkpt lat="45.83056" lon="4.80644">
        <ele>398</ele>
        <time>2014-05-01T13:19:12.868Z</time>
      </trkpt>
      <trkpt lat="45.83043" lon="4.80662">
        <ele>425</ele>
        <time>2014-05-01T13:19:17.873Z</time>
      </trkpt>
      <trkpt lat="45.83025" lon="4.80658">
        <ele>436</ele>
        <time>2014-05-01T13:19:21.845Z</time>
      </trkpt>
      <trkpt lat="45.83018" lon="4.8068">
        <ele>422</ele>
        <time>2014-05-01T13:19:26.888Z</time>
      </trkpt>
      <trkpt lat="45.83001" lon="4.80693">
        <ele>424</ele>
        <time>2014-05-01T13:19:31.891Z</time>
      </trkpt>
      <trkpt lat="45.82988" lon="4.80705">
        <ele>423</ele>
        <time>2014-05-01T13:19:36.913Z</time>
      </trkpt>
      <trkpt lat="45.82987" lon="4.80716">
        <ele>425</ele>
        <time>2014-05-01T13:19:42.896Z</time>
      </trkpt>
      <trkpt lat="45.82985" lon="4.80719">
        <ele>426</ele>
        <time>2014-05-01T13:19:47.91Z</time>
      </trkpt>
      <trkpt lat="45.82973" lon="4.80734">
        <ele>427</ele>
        <time>2014-05-01T13:19:51.914Z</time>
      </trkpt>
      <trkpt lat="45.82963" lon="4.80748">
        <ele>430</ele>
        <time>2014-05-01T13:19:56.913Z</time>
      </trkpt>
      <trkpt lat="45.82942" lon="4.80759">
        <ele>430</ele>
        <time>2014-05-01T13:20:01.93Z</time>
      </trkpt>
      <trkpt lat="45.82919" lon="4.80783">
        <ele>431</ele>
        <time>2014-05-01T13:20:07.91Z</time>
      </trkpt>
      <trkpt lat="45.82908" lon="4.80796">
        <ele>432</ele>
        <time>2014-05-01T13:20:12.905Z</time>
      </trkpt>
      <trkpt lat="45.82901" lon="4.80813">
        <ele>430</ele>
        <time>2014-05-01T13:20:17.93Z</time>
      </trkpt>
      <trkpt lat="45.82883" lon="4.80827">
        <ele>427</ele>
        <time>2014-05-01T13:20:23.903Z</time>
      </trkpt>
      <trkpt lat="45.82874" lon="4.80843">
        <ele>424</ele>
        <time>2014-05-01T13:20:28.891Z</time>
      </trkpt>
      <trkpt lat="45.8286" lon="4.80865">
        <ele>421</ele>
        <time>2014-05-01T13:20:33.915Z</time>
      </trkpt>
      <trkpt lat="45.82836" lon="4.80894">
        <ele>415</ele>
        <time>2014-05-01T13:20:39.891Z</time>
      </trkpt>
      <trkpt lat="45.82827" lon="4.80915">
        <ele>411</ele>
        <time>2014-05-01T13:20:44.891Z</time>
      </trkpt>
      <trkpt lat="45.82823" lon="4.80939">
        <ele>409</ele>
        <time>2014-05-01T13:20:49.921Z</time>
      </trkpt>
      <trkpt lat="45.82812" lon="4.80952">
        <ele>408</ele>
        <time>2014-05-01T13:20:54.89Z</time>
      </trkpt>
      <trkpt lat="45.82799" lon="4.80955">
        <ele>409</ele>
        <time>2014-05-01T13:20:59.896Z</time>
      </trkpt>
      <trkpt lat="45.82787" lon="4.8096">
        <ele>409</ele>
        <time>2014-05-01T13:21:04.901Z</time>
      </trkpt>
      <trkpt lat="45.82774" lon="4.80965">
        <ele>410</ele>
        <time>2014-05-01T13:21:10.899Z</time>
      </trkpt>
      <trkpt lat="45.82762" lon="4.80968">
        <ele>410</ele>
        <time>2014-05-01T13:21:16.884Z</time>
      </trkpt>
      <trkpt lat="45.82746" lon="4.8097">
        <ele>410</ele>
        <time>2014-05-01T13:21:19.883Z</time>
      </trkpt>
      <trkpt lat="45.82724" lon="4.80973">
        <ele>409</ele>
        <time>2014-05-01T13:21:25.881Z</time>
      </trkpt>
      <trkpt lat="45.82717" lon="4.80981">
        <ele>409</ele>
        <time>2014-05-01T13:21:30.884Z</time>
      </trkpt>
      <trkpt lat="45.82703" lon="4.80982">
        <ele>407</ele>
        <time>2014-05-01T13:21:35.896Z</time>
      </trkpt>
      <trkpt lat="45.82686" lon="4.80988">
        <ele>406</ele>
        <time>2014-05-01T13:21:40.884Z</time>
      </trkpt>
      <trkpt lat="45.82666" lon="4.81001">
        <ele>394</ele>
        <time>2014-05-01T13:21:44.896Z</time>
      </trkpt>
      <trkpt lat="45.82672" lon="4.8101">
        <ele>389</ele>
        <time>2014-05-01T13:21:50.896Z</time>
      </trkpt>
      <trkpt lat="45.82684" lon="4.81016">
        <ele>389</ele>
        <time>2014-05-01T13:21:56.89Z</time>
      </trkpt>
      <trkpt lat="45.8269" lon="4.81021">
        <ele>389</ele>
        <time>2014-05-01T13:22:01.895Z</time>
      </trkpt>
      <trkpt lat="45.82696" lon="4.81026">
        <ele>389</ele>
        <time>2014-05-01T13:22:06.903Z</time>
      </trkpt>
      <trkpt lat="45.82707" lon="4.81036">
        <ele>388</ele>
        <time>2014-05-01T13:22:12.895Z</time>
      </trkpt>
      <trkpt lat="45.82714" lon="4.81045">
        <ele>388</ele>
        <time>2014-05-01T13:22:17.895Z</time>
      </trkpt>
      <trkpt lat="45.82721" lon="4.81053">
        <ele>391</ele>
        <time>2014-05-01T13:22:22.903Z</time>
      </trkpt>
      <trkpt lat="45.82731" lon="4.81068">
        <ele>393</ele>
        <time>2014-05-01T13:22:28.895Z</time>
      </trkpt>
      <trkpt lat="45.82739" lon="4.81079">
        <ele>395</ele>
        <time>2014-05-01T13:22:33.895Z</time>
      </trkpt>
      <trkpt lat="45.82754" lon="4.81086">
        <ele>396</ele>
        <time>2014-05-01T13:22:38.881Z</time>
      </trkpt>
      <trkpt lat="45.8276" lon="4.81091">
        <ele>397</ele>
        <time>2014-05-01T13:22:43.885Z</time>
      </trkpt>
      <trkpt lat="45.82768" lon="4.811">
        <ele>401</ele>
        <time>2014-05-01T13:22:49.886Z</time>
      </trkpt>
      <trkpt lat="45.82778" lon="4.81105">
        <ele>400</ele>
        <time>2014-05-01T13:22:54.888Z</time>
      </trkpt>
      <trkpt lat="45.82792" lon="4.81117">
        <ele>401</ele>
        <time>2014-05-01T13:23:00.876Z</time>
      </trkpt>
      <trkpt lat="45.82802" lon="4.81118">
        <ele>401</ele>
        <time>2014-05-01T13:23:05.883Z</time>
      </trkpt>
      <trkpt lat="45.82812" lon="4.81128">
        <ele>403</ele>
        <time>2014-05-01T13:23:11.881Z</time>
      </trkpt>
      <trkpt lat="45.82826" lon="4.81141">
        <ele>404</ele>
        <time>2014-05-01T13:23:16.89Z</time>
      </trkpt>
      <trkpt lat="45.8282" lon="4.81158">
        <ele>404</ele>
        <time>2014-05-01T13:23:22.888Z</time>
      </trkpt>
      <trkpt lat="45.82813" lon="4.81178">
        <ele>405</ele>
        <time>2014-05-01T13:23:27.893Z</time>
      </trkpt>
      <trkpt lat="45.82806" lon="4.81196">
        <ele>405</ele>
        <time>2014-05-01T13:23:33.894Z</time>
      </trkpt>
      <trkpt lat="45.82802" lon="4.8121">
        <ele>405</ele>
        <time>2014-05-01T13:23:38.898Z</time>
      </trkpt>
      <trkpt lat="45.82796" lon="4.81229">
        <ele>407</ele>
        <time>2014-05-01T13:23:44.893Z</time>
      </trkpt>
      <trkpt lat="45.82793" lon="4.8125">
        <ele>413</ele>
        <time>2014-05-01T13:23:50.865Z</time>
      </trkpt>
      <trkpt lat="45.82797" lon="4.81265">
        <ele>414</ele>
        <time>2014-05-01T13:23:55.869Z</time>
      </trkpt>
      <trkpt lat="45.82793" lon="4.81273">
        <ele>414</ele>
        <time>2014-05-01T13:24:00.895Z</time>
      </trkpt>
      <trkpt lat="45.82795" lon="4.81274">
        <ele>413</ele>
        <time>2014-05-01T13:24:06.89Z</time>
      </trkpt>
      <trkpt lat="45.82794" lon="4.81274">
        <ele>414</ele>
        <time>2014-05-01T13:24:12.881Z</time>
      </trkpt>
      <trkpt lat="45.82791" lon="4.81275">
        <ele>413</ele>
        <time>2014-05-01T13:24:17.885Z</time>
      </trkpt>
      <trkpt lat="45.82785" lon="4.8129">
        <ele>415</ele>
        <time>2014-05-01T13:24:23.886Z</time>
      </trkpt>
      <trkpt lat="45.8278" lon="4.8129">
        <ele>415</ele>
        <time>2014-05-01T13:24:28.895Z</time>
      </trkpt>
      <trkpt lat="45.82774" lon="4.81297">
        <ele>417</ele>
        <time>2014-05-01T13:24:34.881Z</time>
      </trkpt>
      <trkpt lat="45.8277" lon="4.81305">
        <ele>418</ele>
        <time>2014-05-01T13:24:40.86Z</time>
      </trkpt>
      <trkpt lat="45.82765" lon="4.81315">
        <ele>418</ele>
        <time>2014-05-01T13:24:45.874Z</time>
      </trkpt>
      <trkpt lat="45.8276" lon="4.81327">
        <ele>418</ele>
        <time>2014-05-01T13:24:50.895Z</time>
      </trkpt>
      <trkpt lat="45.82748" lon="4.81344">
        <ele>420</ele>
        <time>2014-05-01T13:24:56.919Z</time>
      </trkpt>
      <trkpt lat="45.8275" lon="4.81372">
        <ele>425</ele>
        <time>2014-05-01T13:25:02.904Z</time>
      </trkpt>
      <trkpt lat="45.82749" lon="4.81394">
        <ele>424</ele>
        <time>2014-05-01T13:25:08.886Z</time>
      </trkpt>
      <trkpt lat="45.82757" lon="4.81411">
        <ele>426</ele>
        <time>2014-05-01T13:25:13.915Z</time>
      </trkpt>
      <trkpt lat="45.82756" lon="4.81416">
        <ele>427</ele>
        <time>2014-05-01T13:25:18.945Z</time>
      </trkpt>
      <trkpt lat="45.82755" lon="4.81428">
        <ele>428</ele>
        <time>2014-05-01T13:25:24.933Z</time>
      </trkpt>
      <trkpt lat="45.82754" lon="4.81447">
        <ele>429</ele>
        <time>2014-05-01T13:25:27.925Z</time>
      </trkpt>
      <trkpt lat="45.82752" lon="4.81467">
        <ele>431</ele>
        <time>2014-05-01T13:25:33.91Z</time>
      </trkpt>
      <trkpt lat="45.8275" lon="4.81492">
        <ele>433</ele>
        <time>2014-05-01T13:25:38.91Z</time>
      </trkpt>
      <trkpt lat="45.82752" lon="4.81505">
        <ele>435</ele>
        <time>2014-05-01T13:25:43.92Z</time>
      </trkpt>
      <trkpt lat="45.82748" lon="4.81512">
        <ele>438</ele>
        <time>2014-05-01T13:25:48.928Z</time>
      </trkpt>
      <trkpt lat="45.82733" lon="4.81517">
        <ele>441</ele>
        <time>2014-05-01T13:25:52.916Z</time>
      </trkpt>
      <trkpt lat="45.8272" lon="4.81529">
        <ele>443</ele>
        <time>2014-05-01T13:25:56.938Z</time>
      </trkpt>
      <trkpt lat="45.82713" lon="4.81542">
        <ele>444</ele>
        <time>2014-05-01T13:26:02.916Z</time>
      </trkpt>
      <trkpt lat="45.82712" lon="4.81556">
        <ele>447</ele>
        <time>2014-05-01T13:26:07.928Z</time>
      </trkpt>
      <trkpt lat="45.82699" lon="4.81573">
        <ele>451</ele>
        <time>2014-05-01T13:26:13.928Z</time>
      </trkpt>
      <trkpt lat="45.82696" lon="4.81595">
        <ele>455</ele>
        <time>2014-05-01T13:26:18.916Z</time>
      </trkpt>
      <trkpt lat="45.82697" lon="4.81609">
        <ele>455</ele>
        <time>2014-05-01T13:26:23.92Z</time>
      </trkpt>
      <trkpt lat="45.82695" lon="4.81617">
        <ele>455</ele>
        <time>2014-05-01T13:26:28.92Z</time>
      </trkpt>
      <trkpt lat="45.82694" lon="4.81643">
        <ele>456</ele>
        <time>2014-05-01T13:26:33.925Z</time>
      </trkpt>
      <trkpt lat="45.82686" lon="4.81663">
        <ele>458</ele>
        <time>2014-05-01T13:26:39.934Z</time>
      </trkpt>
      <trkpt lat="45.82684" lon="4.81682">
        <ele>459</ele>
        <time>2014-05-01T13:26:45.911Z</time>
      </trkpt>
      <trkpt lat="45.82682" lon="4.81701">
        <ele>458</ele>
        <time>2014-05-01T13:26:50.911Z</time>
      </trkpt>
      <trkpt lat="45.82688" lon="4.8172">
        <ele>459</ele>
        <time>2014-05-01T13:26:55.911Z</time>
      </trkpt>
      <trkpt lat="45.82679" lon="4.81734">
        <ele>460</ele>
        <time>2014-05-01T13:27:00.916Z</time>
      </trkpt>
      <trkpt lat="45.82675" lon="4.81757">
        <ele>460</ele>
        <time>2014-05-01T13:27:05.926Z</time>
      </trkpt>
      <trkpt lat="45.82673" lon="4.81779">
        <ele>461</ele>
        <time>2014-05-01T13:27:11.918Z</time>
      </trkpt>
      <trkpt lat="45.82669" lon="4.81798">
        <ele>461</ele>
        <time>2014-05-01T13:27:17.911Z</time>
      </trkpt>
      <trkpt lat="45.82668" lon="4.8182">
        <ele>462</ele>
        <time>2014-05-01T13:27:23.904Z</time>
      </trkpt>
      <trkpt lat="45.82661" lon="4.81837">
        <ele>462</ele>
        <time>2014-05-01T13:27:28.92Z</time>
      </trkpt>
      <trkpt lat="45.82654" lon="4.81853">
        <ele>463</ele>
        <time>2014-05-01T13:27:33.925Z</time>
      </trkpt>
      <trkpt lat="45.82651" lon="4.81877">
        <ele>464</ele>
        <time>2014-05-01T13:27:39.92Z</time>
      </trkpt>
      <trkpt lat="45.82638" lon="4.81892">
        <ele>467</ele>
        <time>2014-05-01T13:27:43.924Z</time>
      </trkpt>
      <trkpt lat="45.8263" lon="4.81919">
        <ele>469</ele>
        <time>2014-05-01T13:27:49.969Z</time>
      </trkpt>
      <trkpt lat="45.82629" lon="4.81949">
        <ele>468</ele>
        <time>2014-05-01T13:27:55.916Z</time>
      </trkpt>
      <trkpt lat="45.82626" lon="4.81968">
        <ele>469</ele>
        <time>2014-05-01T13:28:01.911Z</time>
      </trkpt>
      <trkpt lat="45.82627" lon="4.8199">
        <ele>469</ele>
        <time>2014-05-01T13:28:07.904Z</time>
      </trkpt>
      <trkpt lat="45.82622" lon="4.82012">
        <ele>468</ele>
        <time>2014-05-01T13:28:12.911Z</time>
      </trkpt>
      <trkpt lat="45.82621" lon="4.82041">
        <ele>470</ele>
        <time>2014-05-01T13:28:18.921Z</time>
      </trkpt>
      <trkpt lat="45.82624" lon="4.82062">
        <ele>472</ele>
        <time>2014-05-01T13:28:24.904Z</time>
      </trkpt>
      <trkpt lat="45.82628" lon="4.82083">
        <ele>475</ele>
        <time>2014-05-01T13:28:29.911Z</time>
      </trkpt>
      <trkpt lat="45.82633" lon="4.82103">
        <ele>476</ele>
        <time>2014-05-01T13:28:34.919Z</time>
      </trkpt>
      <trkpt lat="45.82639" lon="4.82136">
        <ele>476</ele>
        <time>2014-05-01T13:28:40.9Z</time>
      </trkpt>
      <trkpt lat="45.82647" lon="4.8216">
        <ele>473</ele>
        <time>2014-05-01T13:28:45.895Z</time>
      </trkpt>
      <trkpt lat="45.82657" lon="4.82182">
        <ele>471</ele>
        <time>2014-05-01T13:28:50.911Z</time>
      </trkpt>
      <trkpt lat="45.82667" lon="4.82205">
        <ele>465</ele>
        <time>2014-05-01T13:28:56.9Z</time>
      </trkpt>
      <trkpt lat="45.82677" lon="4.82238">
        <ele>462</ele>
        <time>2014-05-01T13:29:02.905Z</time>
      </trkpt>
      <trkpt lat="45.8269" lon="4.82262">
        <ele>458</ele>
        <time>2014-05-01T13:29:08.886Z</time>
      </trkpt>
      <trkpt lat="45.82701" lon="4.82282">
        <ele>457</ele>
        <time>2014-05-01T13:29:13.895Z</time>
      </trkpt>
      <trkpt lat="45.8271" lon="4.82302">
        <ele>457</ele>
        <time>2014-05-01T13:29:18.91Z</time>
      </trkpt>
      <trkpt lat="45.8272" lon="4.8233">
        <ele>457</ele>
        <time>2014-05-01T13:29:24.896Z</time>
      </trkpt>
      <trkpt lat="45.82725" lon="4.8235">
        <ele>456</ele>
        <time>2014-05-01T13:29:28.905Z</time>
      </trkpt>
      <trkpt lat="45.82732" lon="4.82369">
        <ele>454</ele>
        <time>2014-05-01T13:29:33.9Z</time>
      </trkpt>
      <trkpt lat="45.82735" lon="4.82391">
        <ele>454</ele>
        <time>2014-05-01T13:29:39.896Z</time>
      </trkpt>
      <trkpt lat="45.82744" lon="4.82415">
        <ele>451</ele>
        <time>2014-05-01T13:29:44.896Z</time>
      </trkpt>
      <trkpt lat="45.82755" lon="4.82437">
        <ele>449</ele>
        <time>2014-05-01T13:29:50.891Z</time>
      </trkpt>
      <trkpt lat="45.82775" lon="4.82466">
        <ele>447</ele>
        <time>2014-05-01T13:29:56.879Z</time>
      </trkpt>
      <trkpt lat="45.82779" lon="4.82484">
        <ele>446</ele>
        <time>2014-05-01T13:30:01.878Z</time>
      </trkpt>
      <trkpt lat="45.82778" lon="4.82506">
        <ele>443</ele>
        <time>2014-05-01T13:30:06.875Z</time>
      </trkpt>
      <trkpt lat="45.82777" lon="4.82528">
        <ele>440</ele>
        <time>2014-05-01T13:30:11.874Z</time>
      </trkpt>
      <trkpt lat="45.82771" lon="4.82546">
        <ele>439</ele>
        <time>2014-05-01T13:30:16.875Z</time>
      </trkpt>
      <trkpt lat="45.82769" lon="4.8257">
        <ele>434</ele>
        <time>2014-05-01T13:30:20.876Z</time>
      </trkpt>
      <trkpt lat="45.82774" lon="4.82596">
        <ele>431</ele>
        <time>2014-05-01T13:30:25.885Z</time>
      </trkpt>
      <trkpt lat="45.82785" lon="4.82617">
        <ele>429</ele>
        <time>2014-05-01T13:30:29.886Z</time>
      </trkpt>
      <trkpt lat="45.82795" lon="4.82639">
        <ele>427</ele>
        <time>2014-05-01T13:30:34.894Z</time>
      </trkpt>
      <trkpt lat="45.82799" lon="4.82662">
        <ele>426</ele>
        <time>2014-05-01T13:30:40.923Z</time>
      </trkpt>
      <trkpt lat="45.82797" lon="4.82685">
        <ele>424</ele>
        <time>2014-05-01T13:30:46.916Z</time>
      </trkpt>
      <trkpt lat="45.82791" lon="4.82703">
        <ele>424</ele>
        <time>2014-05-01T13:30:52.91Z</time>
      </trkpt>
      <trkpt lat="45.82786" lon="4.82716">
        <ele>424</ele>
        <time>2014-05-01T13:30:58.891Z</time>
      </trkpt>
      <trkpt lat="45.82775" lon="4.82724">
        <ele>422</ele>
        <time>2014-05-01T13:31:03.935Z</time>
      </trkpt>
      <trkpt lat="45.82762" lon="4.82726">
        <ele>419</ele>
        <time>2014-05-01T13:31:09.888Z</time>
      </trkpt>
      <trkpt lat="45.8274" lon="4.82728">
        <ele>415</ele>
        <time>2014-05-01T13:31:14.903Z</time>
      </trkpt>
      <trkpt lat="45.82719" lon="4.8273">
        <ele>415</ele>
        <time>2014-05-01T13:31:19.919Z</time>
      </trkpt>
      <trkpt lat="45.82701" lon="4.82718">
        <ele>412</ele>
        <time>2014-05-01T13:31:23.896Z</time>
      </trkpt>
      <trkpt lat="45.8268" lon="4.82697">
        <ele>410</ele>
        <time>2014-05-01T13:31:29.89Z</time>
      </trkpt>
      <trkpt lat="45.82663" lon="4.82692">
        <ele>409</ele>
        <time>2014-05-01T13:31:34.876Z</time>
      </trkpt>
      <trkpt lat="45.82647" lon="4.82684">
        <ele>410</ele>
        <time>2014-05-01T13:31:39.88Z</time>
      </trkpt>
      <trkpt lat="45.82635" lon="4.82672">
        <ele>409</ele>
        <time>2014-05-01T13:31:45.871Z</time>
      </trkpt>
      <trkpt lat="45.82627" lon="4.82665">
        <ele>411</ele>
        <time>2014-05-01T13:31:50.871Z</time>
      </trkpt>
      <trkpt lat="45.82621" lon="4.82641">
        <ele>409</ele>
        <time>2014-05-01T13:31:55.856Z</time>
      </trkpt>
      <trkpt lat="45.826" lon="4.82621">
        <ele>404</ele>
        <time>2014-05-01T13:32:01.856Z</time>
      </trkpt>
      <trkpt lat="45.82585" lon="4.82629">
        <ele>401</ele>
        <time>2014-05-01T13:32:05.854Z</time>
      </trkpt>
      <trkpt lat="45.82575" lon="4.82637">
        <ele>402</ele>
        <time>2014-05-01T13:32:11.86Z</time>
      </trkpt>
      <trkpt lat="45.82549" lon="4.8267">
        <ele>394</ele>
        <time>2014-05-01T13:32:15.856Z</time>
      </trkpt>
      <trkpt lat="45.82531" lon="4.82704">
        <ele>381</ele>
        <time>2014-05-01T13:32:17.87Z</time>
      </trkpt>
      <trkpt lat="45.82543" lon="4.82717">
        <ele>373</ele>
        <time>2014-05-01T13:32:21.865Z</time>
      </trkpt>
      <trkpt lat="45.82557" lon="4.82727">
        <ele>372</ele>
        <time>2014-05-01T13:32:26.861Z</time>
      </trkpt>
      <trkpt lat="45.82563" lon="4.82726">
        <ele>370</ele>
        <time>2014-05-01T13:32:31.869Z</time>
      </trkpt>
      <trkpt lat="45.82586" lon="4.82733">
        <ele>367</ele>
        <time>2014-05-01T13:32:36.87Z</time>
      </trkpt>
      <trkpt lat="45.82606" lon="4.82731">
        <ele>364</ele>
        <time>2014-05-01T13:32:42.865Z</time>
      </trkpt>
      <trkpt lat="45.8262" lon="4.82729">
        <ele>363</ele>
        <time>2014-05-01T13:32:47.865Z</time>
      </trkpt>
      <trkpt lat="45.82629" lon="4.82734">
        <ele>360</ele>
        <time>2014-05-01T13:32:53.858Z</time>
      </trkpt>
      <trkpt lat="45.82637" lon="4.82742">
        <ele>361</ele>
        <time>2014-05-01T13:32:58.858Z</time>
      </trkpt>
      <trkpt lat="45.82644" lon="4.82755">
        <ele>361</ele>
        <time>2014-05-01T13:33:03.865Z</time>
      </trkpt>
      <trkpt lat="45.82652" lon="4.82769">
        <ele>358</ele>
        <time>2014-05-01T13:33:08.871Z</time>
      </trkpt>
      <trkpt lat="45.82653" lon="4.82783">
        <ele>357</ele>
        <time>2014-05-01T13:33:13.88Z</time>
      </trkpt>
      <trkpt lat="45.82658" lon="4.82801">
        <ele>358</ele>
        <time>2014-05-01T13:33:18.861Z</time>
      </trkpt>
      <trkpt lat="45.82666" lon="4.82818">
        <ele>360</ele>
        <time>2014-05-01T13:33:24.851Z</time>
      </trkpt>
      <trkpt lat="45.82679" lon="4.82829">
        <ele>360</ele>
        <time>2014-05-01T13:33:27.855Z</time>
      </trkpt>
      <trkpt lat="45.82694" lon="4.82844">
        <ele>360</ele>
        <time>2014-05-01T13:33:32.859Z</time>
      </trkpt>
      <trkpt lat="45.82719" lon="4.82864">
        <ele>361</ele>
        <time>2014-05-01T13:33:38.871Z</time>
      </trkpt>
      <trkpt lat="45.82732" lon="4.82872">
        <ele>362</ele>
        <time>2014-05-01T13:33:43.91Z</time>
      </trkpt>
      <trkpt lat="45.8275" lon="4.82879">
        <ele>362</ele>
        <time>2014-05-01T13:33:49.876Z</time>
      </trkpt>
      <trkpt lat="45.82772" lon="4.82888">
        <ele>362</ele>
        <time>2014-05-01T13:33:55.871Z</time>
      </trkpt>
      <trkpt lat="45.82789" lon="4.82888">
        <ele>360</ele>
        <time>2014-05-01T13:34:01.86Z</time>
      </trkpt>
      <trkpt lat="45.82816" lon="4.82891">
        <ele>360</ele>
        <time>2014-05-01T13:34:07.856Z</time>
      </trkpt>
      <trkpt lat="45.82833" lon="4.82887">
        <ele>361</ele>
        <time>2014-05-01T13:34:12.879Z</time>
      </trkpt>
      <trkpt lat="45.82855" lon="4.82883">
        <ele>359</ele>
        <time>2014-05-01T13:34:18.813Z</time>
      </trkpt>
      <trkpt lat="45.82871" lon="4.82886">
        <ele>357</ele>
        <time>2014-05-01T13:34:23.83Z</time>
      </trkpt>
      <trkpt lat="45.82888" lon="4.82881">
        <ele>357</ele>
        <time>2014-05-01T13:34:28.855Z</time>
      </trkpt>
      <trkpt lat="45.82904" lon="4.82873">
        <ele>356</ele>
        <time>2014-05-01T13:34:33.885Z</time>
      </trkpt>
      <trkpt lat="45.82923" lon="4.82864">
        <ele>356</ele>
        <time>2014-05-01T13:34:39.856Z</time>
      </trkpt>
      <trkpt lat="45.82936" lon="4.82855">
        <ele>357</ele>
        <time>2014-05-01T13:34:45.846Z</time>
      </trkpt>
      <trkpt lat="45.82947" lon="4.82844">
        <ele>360</ele>
        <time>2014-05-01T13:34:51.839Z</time>
      </trkpt>
      <trkpt lat="45.82958" lon="4.82836">
        <ele>359</ele>
        <time>2014-05-01T13:34:56.85Z</time>
      </trkpt>
      <trkpt lat="45.82966" lon="4.82826">
        <ele>359</ele>
        <time>2014-05-01T13:35:02.843Z</time>
      </trkpt>
      <trkpt lat="45.82978" lon="4.82818">
        <ele>356</ele>
        <time>2014-05-01T13:35:07.846Z</time>
      </trkpt>
      <trkpt lat="45.8299" lon="4.8282">
        <ele>354</ele>
        <time>2014-05-01T13:35:12.853Z</time>
      </trkpt>
      <trkpt lat="45.83003" lon="4.82826">
        <ele>352</ele>
        <time>2014-05-01T13:35:17.86Z</time>
      </trkpt>
      <trkpt lat="45.83021" lon="4.82835">
        <ele>350</ele>
        <time>2014-05-01T13:35:22.868Z</time>
      </trkpt>
      <trkpt lat="45.83044" lon="4.82843">
        <ele>348</ele>
        <time>2014-05-01T13:35:27.87Z</time>
      </trkpt>
      <trkpt lat="45.83064" lon="4.82853">
        <ele>346</ele>
        <time>2014-05-01T13:35:33.86Z</time>
      </trkpt>
      <trkpt lat="45.83062" lon="4.8286">
        <ele>346</ele>
        <time>2014-05-01T13:35:38.865Z</time>
      </trkpt>
      <trkpt lat="45.83052" lon="4.82875">
        <ele>343</ele>
        <time>2014-05-01T13:35:43.879Z</time>
      </trkpt>
      <trkpt lat="45.8305" lon="4.82895">
        <ele>342</ele>
        <time>2014-05-01T13:35:48.879Z</time>
      </trkpt>
      <trkpt lat="45.8305" lon="4.82916">
        <ele>345</ele>
        <time>2014-05-01T13:35:54.873Z</time>
      </trkpt>
      <trkpt lat="45.83048" lon="4.82937">
        <ele>347</ele>
        <time>2014-05-01T13:35:59.881Z</time>
      </trkpt>
      <trkpt lat="45.83049" lon="4.82957">
        <ele>349</ele>
        <time>2014-05-01T13:36:03.92Z</time>
      </trkpt>
      <trkpt lat="45.83042" lon="4.82979">
        <ele>348</ele>
        <time>2014-05-01T13:36:08.865Z</time>
      </trkpt>
      <trkpt lat="45.83034" lon="4.8301">
        <ele>344</ele>
        <time>2014-05-01T13:36:14.855Z</time>
      </trkpt>
      <trkpt lat="45.83032" lon="4.8303">
        <ele>346</ele>
        <time>2014-05-01T13:36:19.906Z</time>
      </trkpt>
      <trkpt lat="45.83026" lon="4.83048">
        <ele>346</ele>
        <time>2014-05-01T13:36:25.856Z</time>
      </trkpt>
      <trkpt lat="45.83033" lon="4.8305">
        <ele>345</ele>
        <time>2014-05-01T13:36:30.859Z</time>
      </trkpt>
      <trkpt lat="45.8305" lon="4.83062">
        <ele>345</ele>
        <time>2014-05-01T13:36:32.849Z</time>
      </trkpt>
      <trkpt lat="45.83066" lon="4.83069">
        <ele>344</ele>
        <time>2014-05-01T13:36:35.883Z</time>
      </trkpt>
      <trkpt lat="45.83088" lon="4.83072">
        <ele>343</ele>
        <time>2014-05-01T13:36:41.844Z</time>
      </trkpt>
      <trkpt lat="45.83102" lon="4.83078">
        <ele>328</ele>
        <time>2014-05-01T13:36:46.865Z</time>
      </trkpt>
      <trkpt lat="45.83117" lon="4.83082">
        <ele>319</ele>
        <time>2014-05-01T13:36:52.85Z</time>
      </trkpt>
      <trkpt lat="45.83129" lon="4.83087">
        <ele>319</ele>
        <time>2014-05-01T13:36:58.838Z</time>
      </trkpt>
      <trkpt lat="45.8313" lon="4.83072">
        <ele>317</ele>
        <time>2014-05-01T13:37:03.846Z</time>
      </trkpt>
      <trkpt lat="45.83129" lon="4.83057">
        <ele>318</ele>
        <time>2014-05-01T13:37:09.845Z</time>
      </trkpt>
      <trkpt lat="45.83131" lon="4.83043">
        <ele>320</ele>
        <time>2014-05-01T13:37:15.84Z</time>
      </trkpt>
      <trkpt lat="45.83128" lon="4.83032">
        <ele>319</ele>
        <time>2014-05-01T13:37:20.846Z</time>
      </trkpt>
      <trkpt lat="45.83133" lon="4.83004">
        <ele>320</ele>
        <time>2014-05-01T13:37:26.846Z</time>
      </trkpt>
      <trkpt lat="45.8314" lon="4.82984">
        <ele>320</ele>
        <time>2014-05-01T13:37:32.85Z</time>
      </trkpt>
      <trkpt lat="45.83152" lon="4.82968">
        <ele>322</ele>
        <time>2014-05-01T13:37:35.841Z</time>
      </trkpt>
      <trkpt lat="45.83169" lon="4.82937">
        <ele>323</ele>
        <time>2014-05-01T13:37:40.848Z</time>
      </trkpt>
      <trkpt lat="45.83179" lon="4.82911">
        <ele>318</ele>
        <time>2014-05-01T13:37:45.873Z</time>
      </trkpt>
      <trkpt lat="45.83187" lon="4.82898">
        <ele>316</ele>
        <time>2014-05-01T13:37:51.836Z</time>
      </trkpt>
      <trkpt lat="45.83189" lon="4.82883">
        <ele>316</ele>
        <time>2014-05-01T13:37:56.845Z</time>
      </trkpt>
      <trkpt lat="45.83201" lon="4.82853">
        <ele>318</ele>
        <time>2014-05-01T13:38:01.846Z</time>
      </trkpt>
      <trkpt lat="45.83201" lon="4.82841">
        <ele>318</ele>
        <time>2014-05-01T13:38:06.855Z</time>
      </trkpt>
      <trkpt lat="45.83202" lon="4.82822">
        <ele>315</ele>
        <time>2014-05-01T13:38:11.86Z</time>
      </trkpt>
      <trkpt lat="45.83203" lon="4.82804">
        <ele>314</ele>
        <time>2014-05-01T13:38:17.836Z</time>
      </trkpt>
      <trkpt lat="45.83206" lon="4.82787">
        <ele>316</ele>
        <time>2014-05-01T13:38:23.866Z</time>
      </trkpt>
      <trkpt lat="45.83206" lon="4.82777">
        <ele>316</ele>
        <time>2014-05-01T13:38:29.843Z</time>
      </trkpt>
      <trkpt lat="45.83207" lon="4.82759">
        <ele>315</ele>
        <time>2014-05-01T13:38:34.846Z</time>
      </trkpt>
      <trkpt lat="45.83208" lon="4.82745">
        <ele>314</ele>
        <time>2014-05-01T13:38:40.364Z</time>
      </trkpt>
      <trkpt lat="45.83208" lon="4.82745">
        <ele>314</ele>
        <time>2014-05-01T13:38:45.484Z</time>
      </trkpt>
      <trkpt lat="45.83208" lon="4.82745">
        <ele>314</ele>
        <time>2014-05-01T13:38:50.489Z</time>
      </trkpt>
      <trkpt lat="45.83208" lon="4.82745">
        <ele>314</ele>
        <time>2014-05-01T13:38:56.501Z</time>
      </trkpt>
      <trkpt lat="45.83208" lon="4.82745">
        <ele>314</ele>
        <time>2014-05-01T13:39:01.619Z</time>
      </trkpt>
      <trkpt lat="45.83208" lon="4.82745">
        <ele>314</ele>
        <time>2014-05-01T13:39:07.5Z</time>
      </trkpt>
      <trkpt lat="45.83209" lon="4.82666">
        <ele>310</ele>
        <time>2014-05-01T13:39:16.4Z</time>
      </trkpt>
      <trkpt lat="45.83216" lon="4.82671">
        <ele>309</ele>
        <time>2014-05-01T13:39:21.41Z</time>
      </trkpt>
      <trkpt lat="45.8324" lon="4.82653">
        <ele>313</ele>
        <time>2014-05-01T13:39:27.4Z</time>
      </trkpt>
      <trkpt lat="45.83243" lon="4.82654">
        <ele>303</ele>
        <time>2014-05-01T13:39:33.389Z</time>
      </trkpt>
      <trkpt lat="45.83253" lon="4.82645">
        <ele>308</ele>
        <time>2014-05-01T13:39:38.396Z</time>
      </trkpt>
      <trkpt lat="45.8326" lon="4.82633">
        <ele>306</ele>
        <time>2014-05-01T13:39:43.404Z</time>
      </trkpt>
      <trkpt lat="45.83261" lon="4.82621">
        <ele>305</ele>
        <time>2014-05-01T13:39:49.4Z</time>
      </trkpt>
      <trkpt lat="45.83265" lon="4.82607">
        <ele>307</ele>
        <time>2014-05-01T13:39:54.405Z</time>
      </trkpt>
      <trkpt lat="45.83265" lon="4.82598">
        <ele>308</ele>
        <time>2014-05-01T13:39:59.414Z</time>
      </trkpt>
      <trkpt lat="45.83262" lon="4.82586">
        <ele>309</ele>
        <time>2014-05-01T13:40:04.414Z</time>
      </trkpt>
      <trkpt lat="45.83268" lon="4.82566">
        <ele>308</ele>
        <time>2014-05-01T13:40:07.414Z</time>
      </trkpt>
      <trkpt lat="45.8327" lon="4.82536">
        <ele>309</ele>
        <time>2014-05-01T13:40:13.399Z</time>
      </trkpt>
      <trkpt lat="45.83275" lon="4.82522">
        <ele>309</ele>
        <time>2014-05-01T13:40:18.449Z</time>
      </trkpt>
      <trkpt lat="45.83281" lon="4.82503">
        <ele>310</ele>
        <time>2014-05-01T13:40:24.415Z</time>
      </trkpt>
      <trkpt lat="45.83293" lon="4.82482">
        <ele>314</ele>
        <time>2014-05-01T13:40:30.41Z</time>
      </trkpt>
      <trkpt lat="45.833" lon="4.82463">
        <ele>318</ele>
        <time>2014-05-01T13:40:36.395Z</time>
      </trkpt>
      <trkpt lat="45.83305" lon="4.82444">
        <ele>320</ele>
        <time>2014-05-01T13:40:41.393Z</time>
      </trkpt>
      <trkpt lat="45.83312" lon="4.8242">
        <ele>320</ele>
        <time>2014-05-01T13:40:45.395Z</time>
      </trkpt>
      <trkpt lat="45.83321" lon="4.82393">
        <ele>321</ele>
        <time>2014-05-01T13:40:50.418Z</time>
      </trkpt>
      <trkpt lat="45.83332" lon="4.82375">
        <ele>322</ele>
        <time>2014-05-01T13:40:56.409Z</time>
      </trkpt>
      <trkpt lat="45.83334" lon="4.82364">
        <ele>322</ele>
        <time>2014-05-01T13:41:01.414Z</time>
      </trkpt>
      <trkpt lat="45.83331" lon="4.82343">
        <ele>321</ele>
        <time>2014-05-01T13:41:05.401Z</time>
      </trkpt>
      <trkpt lat="45.83336" lon="4.82309">
        <ele>315</ele>
        <time>2014-05-01T13:41:10.414Z</time>
      </trkpt>
      <trkpt lat="45.83336" lon="4.82281">
        <ele>313</ele>
        <time>2014-05-01T13:41:16.411Z</time>
      </trkpt>
      <trkpt lat="45.83328" lon="4.82266">
        <ele>313</ele>
        <time>2014-05-01T13:41:21.409Z</time>
      </trkpt>
      <trkpt lat="45.83317" lon="4.82254">
        <ele>314</ele>
        <time>2014-05-01T13:41:25.403Z</time>
      </trkpt>
      <trkpt lat="45.83302" lon="4.82245">
        <ele>314</ele>
        <time>2014-05-01T13:41:30.415Z</time>
      </trkpt>
      <trkpt lat="45.83295" lon="4.82237">
        <ele>314</ele>
        <time>2014-05-01T13:41:36.406Z</time>
      </trkpt>
      <trkpt lat="45.83275" lon="4.8222">
        <ele>314</ele>
        <time>2014-05-01T13:41:41.424Z</time>
      </trkpt>
      <trkpt lat="45.83245" lon="4.82207">
        <ele>314</ele>
        <time>2014-05-01T13:41:47.4Z</time>
      </trkpt>
      <trkpt lat="45.83231" lon="4.82187">
        <ele>314</ele>
        <time>2014-05-01T13:41:53.395Z</time>
      </trkpt>
      <trkpt lat="45.83234" lon="4.82166">
        <ele>313</ele>
        <time>2014-05-01T13:41:56.395Z</time>
      </trkpt>
      <trkpt lat="45.83231" lon="4.82148">
        <ele>313</ele>
        <time>2014-05-01T13:42:01.403Z</time>
      </trkpt>
      <trkpt lat="45.83217" lon="4.8214">
        <ele>312</ele>
        <time>2014-05-01T13:42:06.386Z</time>
      </trkpt>
      <trkpt lat="45.83204" lon="4.82128">
        <ele>313</ele>
        <time>2014-05-01T13:42:12.395Z</time>
      </trkpt>
      <trkpt lat="45.83213" lon="4.82095">
        <ele>317</ele>
        <time>2014-05-01T13:42:16.386Z</time>
      </trkpt>
      <trkpt lat="45.83224" lon="4.8208">
        <ele>311</ele>
        <time>2014-05-01T13:42:19.394Z</time>
      </trkpt>
      <trkpt lat="45.83228" lon="4.82078">
        <ele>306</ele>
        <time>2014-05-01T13:42:24.395Z</time>
      </trkpt>
      <trkpt lat="45.8324" lon="4.82087">
        <ele>305</ele>
        <time>2014-05-01T13:42:29.395Z</time>
      </trkpt>
      <trkpt lat="45.83248" lon="4.82094">
        <ele>304</ele>
        <time>2014-05-01T13:42:34.403Z</time>
      </trkpt>
      <trkpt lat="45.8326" lon="4.82106">
        <ele>304</ele>
        <time>2014-05-01T13:42:39.415Z</time>
      </trkpt>
      <trkpt lat="45.83266" lon="4.82111">
        <ele>301</ele>
        <time>2014-05-01T13:42:44.415Z</time>
      </trkpt>
      <trkpt lat="45.83274" lon="4.82113">
        <ele>300</ele>
        <time>2014-05-01T13:42:49.425Z</time>
      </trkpt>
      <trkpt lat="45.83288" lon="4.82121">
        <ele>299</ele>
        <time>2014-05-01T13:42:53.413Z</time>
      </trkpt>
      <trkpt lat="45.83333" lon="4.82142">
        <ele>297</ele>
        <time>2014-05-01T13:42:59.399Z</time>
      </trkpt>
      <trkpt lat="45.83359" lon="4.82149">
        <ele>298</ele>
        <time>2014-05-01T13:43:05.391Z</time>
      </trkpt>
      <trkpt lat="45.83367" lon="4.82153">
        <ele>297</ele>
        <time>2014-05-01T13:43:10.399Z</time>
      </trkpt>
      <trkpt lat="45.8338" lon="4.82138">
        <ele>294</ele>
        <time>2014-05-01T13:43:16.389Z</time>
      </trkpt>
      <trkpt lat="45.83391" lon="4.82116">
        <ele>292</ele>
        <time>2014-05-01T13:43:22.378Z</time>
      </trkpt>
      <trkpt lat="45.83397" lon="4.82105">
        <ele>290</ele>
        <time>2014-05-01T13:43:27.389Z</time>
      </trkpt>
      <trkpt lat="45.83414" lon="4.82081">
        <ele>286</ele>
        <time>2014-05-01T13:43:31.378Z</time>
      </trkpt>
      <trkpt lat="45.83425" lon="4.82081">
        <ele>287</ele>
        <time>2014-05-01T13:43:36.383Z</time>
      </trkpt>
      <trkpt lat="45.83431" lon="4.82076">
        <ele>287</ele>
        <time>2014-05-01T13:43:41.383Z</time>
      </trkpt>
      <trkpt lat="45.8343" lon="4.82063">
        <ele>287</ele>
        <time>2014-05-01T13:43:46.384Z</time>
      </trkpt>
      <trkpt lat="45.83424" lon="4.82054">
        <ele>285</ele>
        <time>2014-05-01T13:43:52.383Z</time>
      </trkpt>
      <trkpt lat="45.83425" lon="4.82038">
        <ele>286</ele>
        <time>2014-05-01T13:43:57.395Z</time>
      </trkpt>
      <trkpt lat="45.83427" lon="4.82019">
        <ele>287</ele>
        <time>2014-05-01T13:44:02.385Z</time>
      </trkpt>
      <trkpt lat="45.83424" lon="4.82005">
        <ele>287</ele>
        <time>2014-05-01T13:44:08.371Z</time>
      </trkpt>
      <trkpt lat="45.83417" lon="4.82">
        <ele>287</ele>
        <time>2014-05-01T13:44:13.384Z</time>
      </trkpt>
      <trkpt lat="45.83408" lon="4.81996">
        <ele>287</ele>
        <time>2014-05-01T13:44:18.39Z</time>
      </trkpt>
      <trkpt lat="45.83394" lon="4.81991">
        <ele>287</ele>
        <time>2014-05-01T13:44:24.384Z</time>
      </trkpt>
      <trkpt lat="45.8339" lon="4.81978">
        <ele>288</ele>
        <time>2014-05-01T13:44:29.39Z</time>
      </trkpt>
      <trkpt lat="45.83389" lon="4.81959">
        <ele>288</ele>
        <time>2014-05-01T13:44:33.389Z</time>
      </trkpt>
      <trkpt lat="45.83389" lon="4.81944">
        <ele>288</ele>
        <time>2014-05-01T13:44:38.391Z</time>
      </trkpt>
      <trkpt lat="45.8339" lon="4.81928">
        <ele>288</ele>
        <time>2014-05-01T13:44:44.421Z</time>
      </trkpt>
      <trkpt lat="45.83388" lon="4.81916">
        <ele>285</ele>
        <time>2014-05-01T13:44:50.39Z</time>
      </trkpt>
      <trkpt lat="45.83384" lon="4.81905">
        <ele>278</ele>
        <time>2014-05-01T13:44:56.383Z</time>
      </trkpt>
      <trkpt lat="45.83383" lon="4.81898">
        <ele>272</ele>
        <time>2014-05-01T13:45:01.386Z</time>
      </trkpt>
      <trkpt lat="45.83383" lon="4.81886">
        <ele>269</ele>
        <time>2014-05-01T13:45:06.394Z</time>
      </trkpt>
      <trkpt lat="45.83382" lon="4.81877">
        <ele>268</ele>
        <time>2014-05-01T13:45:11.406Z</time>
      </trkpt>
      <trkpt lat="45.83385" lon="4.81875">
        <ele>268</ele>
        <time>2014-05-01T13:45:16.441Z</time>
      </trkpt>
      <trkpt lat="45.83385" lon="4.81867">
        <ele>269</ele>
        <time>2014-05-01T13:45:22.395Z</time>
      </trkpt>
      <trkpt lat="45.83385" lon="4.81858">
        <ele>270</ele>
        <time>2014-05-01T13:45:28.4Z</time>
      </trkpt>
      <trkpt lat="45.83385" lon="4.81852">
        <ele>269</ele>
        <time>2014-05-01T13:45:33.403Z</time>
      </trkpt>
      <trkpt lat="45.83388" lon="4.81838">
        <ele>271</ele>
        <time>2014-05-01T13:45:38.408Z</time>
      </trkpt>
      <trkpt lat="45.83387" lon="4.81827">
        <ele>276</ele>
        <time>2014-05-01T13:45:43.413Z</time>
      </trkpt>
      <trkpt lat="45.83386" lon="4.81821">
        <ele>281</ele>
        <time>2014-05-01T13:45:49.4Z</time>
      </trkpt>
      <trkpt lat="45.83385" lon="4.81814">
        <ele>284</ele>
        <time>2014-05-01T13:45:54.4Z</time>
      </trkpt>
      <trkpt lat="45.83386" lon="4.81809">
        <ele>287</ele>
        <time>2014-05-01T13:45:59.401Z</time>
      </trkpt>
      <trkpt lat="45.83387" lon="4.81801">
        <ele>287</ele>
        <time>2014-05-01T13:46:04.42Z</time>
      </trkpt>
      <trkpt lat="45.83388" lon="4.81792">
        <ele>287</ele>
        <time>2014-05-01T13:46:10.411Z</time>
      </trkpt>
      <trkpt lat="45.83389" lon="4.81781">
        <ele>286</ele>
        <time>2014-05-01T13:46:15.415Z</time>
      </trkpt>
      <trkpt lat="45.83389" lon="4.81772">
        <ele>286</ele>
        <time>2014-05-01T13:46:21.421Z</time>
      </trkpt>
      <trkpt lat="45.83387" lon="4.81762">
        <ele>287</ele>
        <time>2014-05-01T13:46:26.433Z</time>
      </trkpt>
      <trkpt lat="45.83388" lon="4.81752">
        <ele>290</ele>
        <time>2014-05-01T13:46:32.421Z</time>
      </trkpt>
      <trkpt lat="45.83389" lon="4.81743">
        <ele>290</ele>
        <time>2014-05-01T13:46:37.425Z</time>
      </trkpt>
      <trkpt lat="45.83389" lon="4.8174">
        <ele>291</ele>
        <time>2014-05-01T13:46:42.464Z</time>
      </trkpt>
      <trkpt lat="45.83388" lon="4.81738">
        <ele>291</ele>
        <time>2014-05-01T13:46:48.44Z</time>
      </trkpt>
      <trkpt lat="45.83388" lon="4.81738">
        <ele>292</ele>
        <time>2014-05-01T13:46:53.444Z</time>
      </trkpt>
      <trkpt lat="45.83388" lon="4.81729">
        <ele>291</ele>
        <time>2014-05-01T13:46:58.48Z</time>
      </trkpt>
      <trkpt lat="45.83386" lon="4.81713">
        <ele>294</ele>
        <time>2014-05-01T13:47:04.44Z</time>
      </trkpt>
      <trkpt lat="45.83388" lon="4.81704">
        <ele>297</ele>
        <time>2014-05-01T13:47:09.441Z</time>
      </trkpt>
      <trkpt lat="45.8338" lon="4.81697">
        <ele>300</ele>
        <time>2014-05-01T13:47:15.441Z</time>
      </trkpt>
      <trkpt lat="45.83381" lon="4.8169">
        <ele>300</ele>
        <time>2014-05-01T13:47:20.441Z</time>
      </trkpt>
      <trkpt lat="45.83381" lon="4.81686">
        <ele>303</ele>
        <time>2014-05-01T13:47:25.441Z</time>
      </trkpt>
      <trkpt lat="45.83379" lon="4.81679">
        <ele>306</ele>
        <time>2014-05-01T13:47:30.48Z</time>
      </trkpt>
      <trkpt lat="45.83375" lon="4.81669">
        <ele>312</ele>
        <time>2014-05-01T13:47:36.446Z</time>
      </trkpt>
      <trkpt lat="45.83371" lon="4.81651">
        <ele>316</ele>
        <time>2014-05-01T13:47:42.445Z</time>
      </trkpt>
      <trkpt lat="45.83364" lon="4.81636">
        <ele>318</ele>
        <time>2014-05-01T13:47:48.443Z</time>
      </trkpt>
      <trkpt lat="45.83361" lon="4.81618">
        <ele>319</ele>
        <time>2014-05-01T13:47:54.441Z</time>
      </trkpt>
      <trkpt lat="45.83357" lon="4.81607">
        <ele>321</ele>
        <time>2014-05-01T13:47:59.443Z</time>
      </trkpt>
      <trkpt lat="45.8335" lon="4.81592">
        <ele>323</ele>
        <time>2014-05-01T13:48:05.443Z</time>
      </trkpt>
      <trkpt lat="45.83349" lon="4.81579">
        <ele>322</ele>
        <time>2014-05-01T13:48:10.443Z</time>
      </trkpt>
      <trkpt lat="45.83344" lon="4.81567">
        <ele>325</ele>
        <time>2014-05-01T13:48:16.443Z</time>
      </trkpt>
      <trkpt lat="45.83335" lon="4.81554">
        <ele>328</ele>
        <time>2014-05-01T13:48:21.444Z</time>
      </trkpt>
      <trkpt lat="45.8333" lon="4.81543">
        <ele>328</ele>
        <time>2014-05-01T13:48:27.443Z</time>
      </trkpt>
      <trkpt lat="45.83329" lon="4.81531">
        <ele>329</ele>
        <time>2014-05-01T13:48:32.443Z</time>
      </trkpt>
      <trkpt lat="45.83327" lon="4.8152">
        <ele>330</ele>
        <time>2014-05-01T13:48:37.443Z</time>
      </trkpt>
      <trkpt lat="45.83325" lon="4.81506">
        <ele>330</ele>
        <time>2014-05-01T13:48:42.443Z</time>
      </trkpt>
      <trkpt lat="45.83321" lon="4.81493">
        <ele>333</ele>
        <time>2014-05-01T13:48:47.443Z</time>
      </trkpt>
      <trkpt lat="45.83321" lon="4.81483">
        <ele>334</ele>
        <time>2014-05-01T13:48:52.443Z</time>
      </trkpt>
      <trkpt lat="45.83327" lon="4.81473">
        <ele>339</ele>
        <time>2014-05-01T13:48:58.441Z</time>
      </trkpt>
      <trkpt lat="45.83334" lon="4.81466">
        <ele>341</ele>
        <time>2014-05-01T13:49:03.441Z</time>
      </trkpt>
      <trkpt lat="45.83343" lon="4.81459">
        <ele>343</ele>
        <time>2014-05-01T13:49:08.443Z</time>
      </trkpt>
      <trkpt lat="45.83353" lon="4.81448">
        <ele>344</ele>
        <time>2014-05-01T13:49:14.441Z</time>
      </trkpt>
      <trkpt lat="45.83363" lon="4.81442">
        <ele>345</ele>
        <time>2014-05-01T13:49:19.443Z</time>
      </trkpt>
      <trkpt lat="45.83373" lon="4.81435">
        <ele>347</ele>
        <time>2014-05-01T13:49:24.443Z</time>
      </trkpt>
      <trkpt lat="45.83382" lon="4.81428">
        <ele>347</ele>
        <time>2014-05-01T13:49:29.444Z</time>
      </trkpt>
      <trkpt lat="45.8339" lon="4.81423">
        <ele>349</ele>
        <time>2014-05-01T13:49:34.444Z</time>
      </trkpt>
      <trkpt lat="45.83403" lon="4.81413">
        <ele>349</ele>
        <time>2014-05-01T13:49:40.44Z</time>
      </trkpt>
      <trkpt lat="45.83414" lon="4.81407">
        <ele>350</ele>
        <time>2014-05-01T13:49:45.443Z</time>
      </trkpt>
      <trkpt lat="45.83424" lon="4.81401">
        <ele>350</ele>
        <time>2014-05-01T13:49:50.443Z</time>
      </trkpt>
      <trkpt lat="45.83433" lon="4.81401">
        <ele>351</ele>
        <time>2014-05-01T13:49:55.444Z</time>
      </trkpt>
      <trkpt lat="45.83429" lon="4.81389">
        <ele>353</ele>
        <time>2014-05-01T13:50:01.443Z</time>
      </trkpt>
      <trkpt lat="45.83425" lon="4.81384">
        <ele>356</ele>
        <time>2014-05-01T13:50:06.443Z</time>
      </trkpt>
      <trkpt lat="45.8343" lon="4.8136">
        <ele>358</ele>
        <time>2014-05-01T13:50:12.441Z</time>
      </trkpt>
      <trkpt lat="45.8344" lon="4.81345">
        <ele>355</ele>
        <time>2014-05-01T13:50:17.44Z</time>
      </trkpt>
      <trkpt lat="45.83449" lon="4.81351">
        <ele>353</ele>
        <time>2014-05-01T13:50:22.441Z</time>
      </trkpt>
      <trkpt lat="45.83461" lon="4.81358">
        <ele>354</ele>
        <time>2014-05-01T13:50:28.441Z</time>
      </trkpt>
      <trkpt lat="45.83476" lon="4.8136">
        <ele>355</ele>
        <time>2014-05-01T13:50:33.441Z</time>
      </trkpt>
      <trkpt lat="45.83489" lon="4.81355">
        <ele>355</ele>
        <time>2014-05-01T13:50:38.44Z</time>
      </trkpt>
      <trkpt lat="45.835" lon="4.81348">
        <ele>357</ele>
        <time>2014-05-01T13:50:43.441Z</time>
      </trkpt>
      <trkpt lat="45.83514" lon="4.81337">
        <ele>358</ele>
        <time>2014-05-01T13:50:49.44Z</time>
      </trkpt>
      <trkpt lat="45.83522" lon="4.81334">
        <ele>360</ele>
        <time>2014-05-01T13:50:54.443Z</time>
      </trkpt>
      <trkpt lat="45.83532" lon="4.81327">
        <ele>362</ele>
        <time>2014-05-01T13:50:59.444Z</time>
      </trkpt>
      <trkpt lat="45.83547" lon="4.81315">
        <ele>363</ele>
        <time>2014-05-01T13:51:05.44Z</time>
      </trkpt>
      <trkpt lat="45.83558" lon="4.81306">
        <ele>363</ele>
        <time>2014-05-01T13:51:10.44Z</time>
      </trkpt>
      <trkpt lat="45.83568" lon="4.81302">
        <ele>366</ele>
        <time>2014-05-01T13:51:15.441Z</time>
      </trkpt>
      <trkpt lat="45.83579" lon="4.8129">
        <ele>365</ele>
        <time>2014-05-01T13:51:21.44Z</time>
      </trkpt>
      <trkpt lat="45.83593" lon="4.81282">
        <ele>363</ele>
        <time>2014-05-01T13:51:26.44Z</time>
      </trkpt>
      <trkpt lat="45.83597" lon="4.81269">
        <ele>364</ele>
        <time>2014-05-01T13:51:31.444Z</time>
      </trkpt>
      <trkpt lat="45.83609" lon="4.81268">
        <ele>365</ele>
        <time>2014-05-01T13:51:37.44Z</time>
      </trkpt>
      <trkpt lat="45.83621" lon="4.81268">
        <ele>366</ele>
        <time>2014-05-01T13:51:42.443Z</time>
      </trkpt>
      <trkpt lat="45.83632" lon="4.81268">
        <ele>366</ele>
        <time>2014-05-01T13:51:47.444Z</time>
      </trkpt>
      <trkpt lat="45.83645" lon="4.81261">
        <ele>367</ele>
        <time>2014-05-01T13:51:51.444Z</time>
      </trkpt>
      <trkpt lat="45.83662" lon="4.81252">
        <ele>369</ele>
        <time>2014-05-01T13:51:57.441Z</time>
      </trkpt>
      <trkpt lat="45.83672" lon="4.81241">
        <ele>368</ele>
        <time>2014-05-01T13:52:02.48Z</time>
      </trkpt>
      <trkpt lat="45.83684" lon="4.81232">
        <ele>367</ele>
        <time>2014-05-01T13:52:08.445Z</time>
      </trkpt>
      <trkpt lat="45.83704" lon="4.81223">
        <ele>365</ele>
        <time>2014-05-01T13:52:14.443Z</time>
      </trkpt>
      <trkpt lat="45.83725" lon="4.8121">
        <ele>362</ele>
        <time>2014-05-01T13:52:20.443Z</time>
      </trkpt>
      <trkpt lat="45.83751" lon="4.81209">
        <ele>359</ele>
        <time>2014-05-01T13:52:26.441Z</time>
      </trkpt>
      <trkpt lat="45.83764" lon="4.81203">
        <ele>360</ele>
        <time>2014-05-01T13:52:31.44Z</time>
      </trkpt>
      <trkpt lat="45.83773" lon="4.81182">
        <ele>358</ele>
        <time>2014-05-01T13:52:36.44Z</time>
      </trkpt>
      <trkpt lat="45.8378" lon="4.81156">
        <ele>351</ele>
        <time>2014-05-01T13:52:41.44Z</time>
      </trkpt>
      <trkpt lat="45.83785" lon="4.8116">
        <ele>351</ele>
        <time>2014-05-01T13:52:46.44Z</time>
      </trkpt>
      <trkpt lat="45.83787" lon="4.81166">
        <ele>350</ele>
        <time>2014-05-01T13:52:51.444Z</time>
      </trkpt>
      <trkpt lat="45.83787" lon="4.81168">
        <ele>350</ele>
        <time>2014-05-01T13:52:56.445Z</time>
      </trkpt>
      <trkpt lat="45.83786" lon="4.8117">
        <ele>349</ele>
        <time>2014-05-01T13:53:02.443Z</time>
      </trkpt>
      <trkpt lat="45.83786" lon="4.8117">
        <ele>349</ele>
        <time>2014-05-01T13:53:07.445Z</time>
      </trkpt>
      <trkpt lat="45.83786" lon="4.8117">
        <ele>349</ele>
        <time>2014-05-01T13:53:12.445Z</time>
      </trkpt>
      <trkpt lat="45.83786" lon="4.8117">
        <ele>349</ele>
        <time>2014-05-01T13:53:17.445Z</time>
      </trkpt>
      <trkpt lat="45.83786" lon="4.8117">
        <ele>349</ele>
        <time>2014-05-01T13:53:23.445Z</time>
      </trkpt>
      <trkpt lat="45.83786" lon="4.8117">
        <ele>349</ele>
        <time>2014-05-01T13:53:29.445Z</time>
      </trkpt>
      <trkpt lat="45.83784" lon="4.81178">
        <ele>347</ele>
        <time>2014-05-01T13:53:34.445Z</time>
      </trkpt>
      <trkpt lat="45.83783" lon="4.81179">
        <ele>347</ele>
        <time>2014-05-01T13:53:40.44Z</time>
      </trkpt>
      <trkpt lat="45.83784" lon="4.81176">
        <ele>348</ele>
        <time>2014-05-01T13:53:45.44Z</time>
      </trkpt>
      <trkpt lat="45.83785" lon="4.81163">
        <ele>346</ele>
        <time>2014-05-01T13:53:50.44Z</time>
      </trkpt>
      <trkpt lat="45.83785" lon="4.8115">
        <ele>344</ele>
        <time>2014-05-01T13:53:55.44Z</time>
      </trkpt>
      <trkpt lat="45.83783" lon="4.81141">
        <ele>346</ele>
        <time>2014-05-01T13:54:00.44Z</time>
      </trkpt>
      <trkpt lat="45.83783" lon="4.81136">
        <ele>349</ele>
        <time>2014-05-01T13:54:05.44Z</time>
      </trkpt>
      <trkpt lat="45.83778" lon="4.81131">
        <ele>349</ele>
        <time>2014-05-01T13:54:10.44Z</time>
      </trkpt>
      <trkpt lat="45.83778" lon="4.81123">
        <ele>348</ele>
        <time>2014-05-01T13:54:15.44Z</time>
      </trkpt>
      <trkpt lat="45.83781" lon="4.81113">
        <ele>349</ele>
        <time>2014-05-01T13:54:20.48Z</time>
      </trkpt>
      <trkpt lat="45.83788" lon="4.81093">
        <ele>350</ele>
        <time>2014-05-01T13:54:26.44Z</time>
      </trkpt>
      <trkpt lat="45.83789" lon="4.81085">
        <ele>349</ele>
        <time>2014-05-01T13:54:31.44Z</time>
      </trkpt>
      <trkpt lat="45.83792" lon="4.8107">
        <ele>349</ele>
        <time>2014-05-01T13:54:36.441Z</time>
      </trkpt>
      <trkpt lat="45.83792" lon="4.81058">
        <ele>351</ele>
        <time>2014-05-01T13:54:42.48Z</time>
      </trkpt>
      <trkpt lat="45.83791" lon="4.8105">
        <ele>353</ele>
        <time>2014-05-01T13:54:48.44Z</time>
      </trkpt>
      <trkpt lat="45.83788" lon="4.81049">
        <ele>354</ele>
        <time>2014-05-01T13:54:53.444Z</time>
      </trkpt>
      <trkpt lat="45.83784" lon="4.81048">
        <ele>359</ele>
        <time>2014-05-01T13:54:58.446Z</time>
      </trkpt>
      <trkpt lat="45.83784" lon="4.81039">
        <ele>363</ele>
        <time>2014-05-01T13:55:04.44Z</time>
      </trkpt>
      <trkpt lat="45.83782" lon="4.81027">
        <ele>366</ele>
        <time>2014-05-01T13:55:09.44Z</time>
      </trkpt>
      <trkpt lat="45.83784" lon="4.81013">
        <ele>366</ele>
        <time>2014-05-01T13:55:14.478Z</time>
      </trkpt>
      <trkpt lat="45.83786" lon="4.81004">
        <ele>366</ele>
        <time>2014-05-01T13:55:20.44Z</time>
      </trkpt>
      <trkpt lat="45.83788" lon="4.80996">
        <ele>367</ele>
        <time>2014-05-01T13:55:25.44Z</time>
      </trkpt>
      <trkpt lat="45.83789" lon="4.80992">
        <ele>368</ele>
        <time>2014-05-01T13:55:30.479Z</time>
      </trkpt>
      <trkpt lat="45.83792" lon="4.80974">
        <ele>369</ele>
        <time>2014-05-01T13:55:36.44Z</time>
      </trkpt>
      <trkpt lat="45.83792" lon="4.80974">
        <ele>373</ele>
        <time>2014-05-01T13:55:41.44Z</time>
      </trkpt>
      <trkpt lat="45.838" lon="4.80972">
        <ele>374</ele>
        <time>2014-05-01T13:55:46.44Z</time>
      </trkpt>
      <trkpt lat="45.83805" lon="4.80968">
        <ele>375</ele>
        <time>2014-05-01T13:55:51.44Z</time>
      </trkpt>
      <trkpt lat="45.83805" lon="4.80965">
        <ele>377</ele>
        <time>2014-05-01T13:55:56.44Z</time>
      </trkpt>
      <trkpt lat="45.83812" lon="4.80957">
        <ele>378</ele>
        <time>2014-05-01T13:56:01.44Z</time>
      </trkpt>
      <trkpt lat="45.83816" lon="4.80958">
        <ele>379</ele>
        <time>2014-05-01T13:56:06.44Z</time>
      </trkpt>
      <trkpt lat="45.83823" lon="4.80953">
        <ele>380</ele>
        <time>2014-05-01T13:56:11.449Z</time>
      </trkpt>
      <trkpt lat="45.83829" lon="4.80951">
        <ele>382</ele>
        <time>2014-05-01T13:56:17.44Z</time>
      </trkpt>
      <trkpt lat="45.83835" lon="4.80942">
        <ele>382</ele>
        <time>2014-05-01T13:56:22.44Z</time>
      </trkpt>
      <trkpt lat="45.83839" lon="4.80936">
        <ele>384</ele>
        <time>2014-05-01T13:56:27.454Z</time>
      </trkpt>
      <trkpt lat="45.83836" lon="4.80932">
        <ele>386</ele>
        <time>2014-05-01T13:56:33.44Z</time>
      </trkpt>
      <trkpt lat="45.83839" lon="4.80935">
        <ele>391</ele>
        <time>2014-05-01T13:56:38.44Z</time>
      </trkpt>
      <trkpt lat="45.83841" lon="4.80937">
        <ele>391</ele>
        <time>2014-05-01T13:56:43.451Z</time>
      </trkpt>
      <trkpt lat="45.83848" lon="4.80933">
        <ele>394</ele>
        <time>2014-05-01T13:56:49.44Z</time>
      </trkpt>
      <trkpt lat="45.83852" lon="4.80929">
        <ele>392</ele>
        <time>2014-05-01T13:56:54.44Z</time>
      </trkpt>
      <trkpt lat="45.83854" lon="4.8092">
        <ele>393</ele>
        <time>2014-05-01T13:56:59.451Z</time>
      </trkpt>
      <trkpt lat="45.83856" lon="4.80913">
        <ele>394</ele>
        <time>2014-05-01T13:57:05.44Z</time>
      </trkpt>
      <trkpt lat="45.83854" lon="4.80923">
        <ele>399</ele>
        <time>2014-05-01T13:57:10.44Z</time>
      </trkpt>
      <trkpt lat="45.83854" lon="4.80935">
        <ele>403</ele>
        <time>2014-05-01T13:57:15.45Z</time>
      </trkpt>
      <trkpt lat="45.83853" lon="4.80952">
        <ele>406</ele>
        <time>2014-05-01T13:57:21.441Z</time>
      </trkpt>
      <trkpt lat="45.83847" lon="4.80972">
        <ele>405</ele>
        <time>2014-05-01T13:57:26.441Z</time>
      </trkpt>
      <trkpt lat="45.83849" lon="4.80984">
        <ele>405</ele>
        <time>2014-05-01T13:57:31.446Z</time>
      </trkpt>
      <trkpt lat="45.83859" lon="4.80992">
        <ele>403</ele>
        <time>2014-05-01T13:57:37.443Z</time>
      </trkpt>
      <trkpt lat="45.83863" lon="4.80992">
        <ele>404</ele>
        <time>2014-05-01T13:57:42.448Z</time>
      </trkpt>
      <trkpt lat="45.83867" lon="4.8099">
        <ele>407</ele>
        <time>2014-05-01T13:57:47.458Z</time>
      </trkpt>
      <trkpt lat="45.83872" lon="4.80986">
        <ele>409</ele>
        <time>2014-05-01T13:57:53.443Z</time>
      </trkpt>
      <trkpt lat="45.83874" lon="4.80985">
        <ele>409</ele>
        <time>2014-05-01T13:57:58.453Z</time>
      </trkpt>
      <trkpt lat="45.83879" lon="4.80984">
        <ele>412</ele>
        <time>2014-05-01T13:58:04.441Z</time>
      </trkpt>
      <trkpt lat="45.83883" lon="4.80982">
        <ele>414</ele>
        <time>2014-05-01T13:58:09.441Z</time>
      </trkpt>
      <trkpt lat="45.83887" lon="4.8098">
        <ele>417</ele>
        <time>2014-05-01T13:58:14.445Z</time>
      </trkpt>
      <trkpt lat="45.83893" lon="4.80974">
        <ele>418</ele>
        <time>2014-05-01T13:58:19.455Z</time>
      </trkpt>
      <trkpt lat="45.83895" lon="4.80972">
        <ele>419</ele>
        <time>2014-05-01T13:58:25.443Z</time>
      </trkpt>
      <trkpt lat="45.83903" lon="4.80972">
        <ele>421</ele>
        <time>2014-05-01T13:58:31.443Z</time>
      </trkpt>
      <trkpt lat="45.83906" lon="4.80973">
        <ele>424</ele>
        <time>2014-05-01T13:58:37.441Z</time>
      </trkpt>
      <trkpt lat="45.83908" lon="4.80972">
        <ele>425</ele>
        <time>2014-05-01T13:58:43.073Z</time>
      </trkpt>
      <trkpt lat="45.83908" lon="4.80972">
        <ele>425</ele>
        <time>2014-05-01T13:58:48.191Z</time>
      </trkpt>
      <trkpt lat="45.83908" lon="4.80972">
        <ele>425</ele>
        <time>2014-05-01T13:58:54.765Z</time>
      </trkpt>
      <trkpt lat="45.83908" lon="4.80972">
        <ele>425</ele>
        <time>2014-05-01T13:59:00.525Z</time>
      </trkpt>
      <trkpt lat="45.83908" lon="4.80972">
        <ele>425</ele>
        <time>2014-05-01T13:59:05.538Z</time>
      </trkpt>
      <trkpt lat="45.83938" lon="4.80951">
        <ele>449</ele>
        <time>2014-05-01T13:59:11.195Z</time>
      </trkpt>
      <trkpt lat="45.83937" lon="4.8096">
        <ele>444</ele>
        <time>2014-05-01T13:59:16.195Z</time>
      </trkpt>
      <trkpt lat="45.83936" lon="4.80969">
        <ele>446</ele>
        <time>2014-05-01T13:59:21.195Z</time>
      </trkpt>
      <trkpt lat="45.83932" lon="4.80986">
        <ele>444</ele>
        <time>2014-05-01T13:59:26.195Z</time>
      </trkpt>
      <trkpt lat="45.83934" lon="4.81002">
        <ele>438</ele>
        <time>2014-05-01T13:59:32.195Z</time>
      </trkpt>
      <trkpt lat="45.83937" lon="4.81003">
        <ele>438</ele>
        <time>2014-05-01T13:59:37.199Z</time>
      </trkpt>
      <trkpt lat="45.83939" lon="4.81004">
        <ele>437</ele>
        <time>2014-05-01T13:59:42.199Z</time>
      </trkpt>
      <trkpt lat="45.83939" lon="4.81004">
        <ele>438</ele>
        <time>2014-05-01T13:59:48.199Z</time>
      </trkpt>
      <trkpt lat="45.83939" lon="4.81004">
        <ele>438</ele>
        <time>2014-05-01T13:59:53.261Z</time>
      </trkpt>
      <trkpt lat="45.83941" lon="4.81005">
        <ele>439</ele>
        <time>2014-05-01T13:59:59.205Z</time>
      </trkpt>
      <trkpt lat="45.83942" lon="4.8101">
        <ele>439</ele>
        <time>2014-05-01T14:00:05.195Z</time>
      </trkpt>
      <trkpt lat="45.83944" lon="4.81017">
        <ele>439</ele>
        <time>2014-05-01T14:00:10.195Z</time>
      </trkpt>
      <trkpt lat="45.83944" lon="4.81031">
        <ele>443</ele>
        <time>2014-05-01T14:00:15.195Z</time>
      </trkpt>
      <trkpt lat="45.83945" lon="4.81046">
        <ele>443</ele>
        <time>2014-05-01T14:00:20.195Z</time>
      </trkpt>
      <trkpt lat="45.83947" lon="4.81065">
        <ele>442</ele>
        <time>2014-05-01T14:00:25.199Z</time>
      </trkpt>
      <trkpt lat="45.83951" lon="4.81086">
        <ele>444</ele>
        <time>2014-05-01T14:00:31.196Z</time>
      </trkpt>
      <trkpt lat="45.83953" lon="4.81101">
        <ele>442</ele>
        <time>2014-05-01T14:00:36.196Z</time>
      </trkpt>
      <trkpt lat="45.83952" lon="4.8112">
        <ele>443</ele>
        <time>2014-05-01T14:00:41.304Z</time>
      </trkpt>
      <trkpt lat="45.83959" lon="4.81136">
        <ele>443</ele>
        <time>2014-05-01T14:00:47.305Z</time>
      </trkpt>
      <trkpt lat="45.83967" lon="4.8116">
        <ele>443</ele>
        <time>2014-05-01T14:00:53.301Z</time>
      </trkpt>
      <trkpt lat="45.83976" lon="4.8118">
        <ele>443</ele>
        <time>2014-05-01T14:00:58.303Z</time>
      </trkpt>
      <trkpt lat="45.83986" lon="4.81197">
        <ele>442</ele>
        <time>2014-05-01T14:01:03.305Z</time>
      </trkpt>
      <trkpt lat="45.83999" lon="4.81208">
        <ele>441</ele>
        <time>2014-05-01T14:01:07.301Z</time>
      </trkpt>
      <trkpt lat="45.84015" lon="4.81219">
        <ele>440</ele>
        <time>2014-05-01T14:01:13.301Z</time>
      </trkpt>
      <trkpt lat="45.84034" lon="4.81229">
        <ele>440</ele>
        <time>2014-05-01T14:01:18.3Z</time>
      </trkpt>
      <trkpt lat="45.84052" lon="4.81236">
        <ele>439</ele>
        <time>2014-05-01T14:01:23.305Z</time>
      </trkpt>
      <trkpt lat="45.84073" lon="4.8124">
        <ele>439</ele>
        <time>2014-05-01T14:01:29.299Z</time>
      </trkpt>
      <trkpt lat="45.84086" lon="4.81242">
        <ele>440</ele>
        <time>2014-05-01T14:01:34.305Z</time>
      </trkpt>
      <trkpt lat="45.84106" lon="4.81246">
        <ele>441</ele>
        <time>2014-05-01T14:01:40.299Z</time>
      </trkpt>
      <trkpt lat="45.84126" lon="4.81245">
        <ele>439</ele>
        <time>2014-05-01T14:01:45.299Z</time>
      </trkpt>
      <trkpt lat="45.84147" lon="4.81246">
        <ele>437</ele>
        <time>2014-05-01T14:01:50.299Z</time>
      </trkpt>
      <trkpt lat="45.84163" lon="4.81242">
        <ele>439</ele>
        <time>2014-05-01T14:01:55.299Z</time>
      </trkpt>
      <trkpt lat="45.84181" lon="4.81238">
        <ele>437</ele>
        <time>2014-05-01T14:02:00.299Z</time>
      </trkpt>
      <trkpt lat="45.84205" lon="4.81241">
        <ele>435</ele>
        <time>2014-05-01T14:02:06.298Z</time>
      </trkpt>
      <trkpt lat="45.84221" lon="4.81237">
        <ele>434</ele>
        <time>2014-05-01T14:02:11.303Z</time>
      </trkpt>
      <trkpt lat="45.84234" lon="4.81234">
        <ele>436</ele>
        <time>2014-05-01T14:02:17.261Z</time>
      </trkpt>
      <trkpt lat="45.84251" lon="4.81243">
        <ele>437</ele>
        <time>2014-05-01T14:02:21.263Z</time>
      </trkpt>
      <trkpt lat="45.84277" lon="4.81253">
        <ele>437</ele>
        <time>2014-05-01T14:02:26.263Z</time>
      </trkpt>
      <trkpt lat="45.84293" lon="4.81257">
        <ele>432</ele>
        <time>2014-05-01T14:02:32.27Z</time>
      </trkpt>
      <trkpt lat="45.84305" lon="4.81265">
        <ele>430</ele>
        <time>2014-05-01T14:02:37.273Z</time>
      </trkpt>
      <trkpt lat="45.84318" lon="4.8126">
        <ele>430</ele>
        <time>2014-05-01T14:02:43.265Z</time>
      </trkpt>
      <trkpt lat="45.84324" lon="4.81255">
        <ele>432</ele>
        <time>2014-05-01T14:02:49.28Z</time>
      </trkpt>
      <trkpt lat="45.84334" lon="4.81242">
        <ele>434</ele>
        <time>2014-05-01T14:02:55.264Z</time>
      </trkpt>
      <trkpt lat="45.84337" lon="4.81229">
        <ele>440</ele>
        <time>2014-05-01T14:03:00.264Z</time>
      </trkpt>
      <trkpt lat="45.8434" lon="4.81217">
        <ele>443</ele>
        <time>2014-05-01T14:03:05.286Z</time>
      </trkpt>
      <trkpt lat="45.84342" lon="4.81204">
        <ele>446</ele>
        <time>2014-05-01T14:03:11.264Z</time>
      </trkpt>
      <trkpt lat="45.84344" lon="4.8119">
        <ele>448</ele>
        <time>2014-05-01T14:03:16.264Z</time>
      </trkpt>
      <trkpt lat="45.84343" lon="4.81175">
        <ele>449</ele>
        <time>2014-05-01T14:03:21.284Z</time>
      </trkpt>
      <trkpt lat="45.84344" lon="4.81159">
        <ele>451</ele>
        <time>2014-05-01T14:03:27.264Z</time>
      </trkpt>
      <trkpt lat="45.84347" lon="4.81142">
        <ele>451</ele>
        <time>2014-05-01T14:03:32.264Z</time>
      </trkpt>
      <trkpt lat="45.84349" lon="4.81126">
        <ele>452</ele>
        <time>2014-05-01T14:03:37.285Z</time>
      </trkpt>
      <trkpt lat="45.84355" lon="4.81101">
        <ele>458</ele>
        <time>2014-05-01T14:03:43.264Z</time>
      </trkpt>
      <trkpt lat="45.84357" lon="4.8109">
        <ele>461</ele>
        <time>2014-05-01T14:03:48.264Z</time>
      </trkpt>
      <trkpt lat="45.84359" lon="4.81076">
        <ele>465</ele>
        <time>2014-05-01T14:03:53.265Z</time>
      </trkpt>
      <trkpt lat="45.84361" lon="4.81058">
        <ele>466</ele>
        <time>2014-05-01T14:03:59.263Z</time>
      </trkpt>
      <trkpt lat="45.84366" lon="4.81039">
        <ele>464</ele>
        <time>2014-05-01T14:04:04.266Z</time>
      </trkpt>
      <trkpt lat="45.84367" lon="4.81032">
        <ele>465</ele>
        <time>2014-05-01T14:04:09.269Z</time>
      </trkpt>
      <trkpt lat="45.8437" lon="4.81018">
        <ele>468</ele>
        <time>2014-05-01T14:04:14.271Z</time>
      </trkpt>
      <trkpt lat="45.84373" lon="4.81005">
        <ele>471</ele>
        <time>2014-05-01T14:04:20.264Z</time>
      </trkpt>
      <trkpt lat="45.84376" lon="4.80991">
        <ele>473</ele>
        <time>2014-05-01T14:04:25.265Z</time>
      </trkpt>
      <trkpt lat="45.84383" lon="4.80974">
        <ele>475</ele>
        <time>2014-05-01T14:04:31.265Z</time>
      </trkpt>
      <trkpt lat="45.84386" lon="4.8096">
        <ele>475</ele>
        <time>2014-05-01T14:04:36.265Z</time>
      </trkpt>
      <trkpt lat="45.84389" lon="4.80944">
        <ele>475</ele>
        <time>2014-05-01T14:04:41.265Z</time>
      </trkpt>
      <trkpt lat="45.84396" lon="4.8092">
        <ele>474</ele>
        <time>2014-05-01T14:04:47.265Z</time>
      </trkpt>
      <trkpt lat="45.84401" lon="4.80909">
        <ele>473</ele>
        <time>2014-05-01T14:04:53.265Z</time>
      </trkpt>
      <trkpt lat="45.84405" lon="4.80896">
        <ele>477</ele>
        <time>2014-05-01T14:04:58.274Z</time>
      </trkpt>
      <trkpt lat="45.8441" lon="4.80884">
        <ele>479</ele>
        <time>2014-05-01T14:05:04.268Z</time>
      </trkpt>
      <trkpt lat="45.8441" lon="4.80866">
        <ele>480</ele>
        <time>2014-05-01T14:05:10.264Z</time>
      </trkpt>
      <trkpt lat="45.84413" lon="4.80849">
        <ele>481</ele>
        <time>2014-05-01T14:05:15.264Z</time>
      </trkpt>
      <trkpt lat="45.84414" lon="4.80828">
        <ele>480</ele>
        <time>2014-05-01T14:05:21.264Z</time>
      </trkpt>
      <trkpt lat="45.84416" lon="4.8081">
        <ele>480</ele>
        <time>2014-05-01T14:05:27.263Z</time>
      </trkpt>
      <trkpt lat="45.84416" lon="4.80797">
        <ele>482</ele>
        <time>2014-05-01T14:05:32.263Z</time>
      </trkpt>
      <trkpt lat="45.84417" lon="4.80775">
        <ele>483</ele>
        <time>2014-05-01T14:05:38.263Z</time>
      </trkpt>
      <trkpt lat="45.84413" lon="4.80768">
        <ele>482</ele>
        <time>2014-05-01T14:05:43.286Z</time>
      </trkpt>
      <trkpt lat="45.84412" lon="4.80754">
        <ele>485</ele>
        <time>2014-05-01T14:05:49.264Z</time>
      </trkpt>
      <trkpt lat="45.84409" lon="4.80748">
        <ele>485</ele>
        <time>2014-05-01T14:05:54.264Z</time>
      </trkpt>
      <trkpt lat="45.84408" lon="4.80739">
        <ele>489</ele>
        <time>2014-05-01T14:05:59.293Z</time>
      </trkpt>
      <trkpt lat="45.84404" lon="4.80723">
        <ele>492</ele>
        <time>2014-05-01T14:06:05.264Z</time>
      </trkpt>
      <trkpt lat="45.84406" lon="4.80707">
        <ele>493</ele>
        <time>2014-05-01T14:06:11.264Z</time>
      </trkpt>
      <trkpt lat="45.84407" lon="4.80688">
        <ele>496</ele>
        <time>2014-05-01T14:06:17.261Z</time>
      </trkpt>
      <trkpt lat="45.84405" lon="4.80685">
        <ele>498</ele>
        <time>2014-05-01T14:06:22.3Z</time>
      </trkpt>
      <trkpt lat="45.84404" lon="4.80677">
        <ele>499</ele>
        <time>2014-05-01T14:06:28.265Z</time>
      </trkpt>
      <trkpt lat="45.84406" lon="4.80659">
        <ele>499</ele>
        <time>2014-05-01T14:06:33.27Z</time>
      </trkpt>
      <trkpt lat="45.84409" lon="4.80648">
        <ele>500</ele>
        <time>2014-05-01T14:06:38.28Z</time>
      </trkpt>
      <trkpt lat="45.84412" lon="4.80634">
        <ele>501</ele>
        <time>2014-05-01T14:06:44.263Z</time>
      </trkpt>
      <trkpt lat="45.84414" lon="4.80619">
        <ele>506</ele>
        <time>2014-05-01T14:06:49.263Z</time>
      </trkpt>
      <trkpt lat="45.8442" lon="4.80608">
        <ele>509</ele>
        <time>2014-05-01T14:06:54.263Z</time>
      </trkpt>
      <trkpt lat="45.84423" lon="4.80594">
        <ele>506</ele>
        <time>2014-05-01T14:06:59.263Z</time>
      </trkpt>
      <trkpt lat="45.84431" lon="4.80588">
        <ele>505</ele>
        <time>2014-05-01T14:07:04.269Z</time>
      </trkpt>
      <trkpt lat="45.84445" lon="4.80586">
        <ele>505</ele>
        <time>2014-05-01T14:07:10.265Z</time>
      </trkpt>
      <trkpt lat="45.8446" lon="4.80586">
        <ele>506</ele>
        <time>2014-05-01T14:07:15.265Z</time>
      </trkpt>
      <trkpt lat="45.84476" lon="4.80591">
        <ele>510</ele>
        <time>2014-05-01T14:07:19.293Z</time>
      </trkpt>
      <trkpt lat="45.8449" lon="4.80591">
        <ele>508</ele>
        <time>2014-05-01T14:07:25.263Z</time>
      </trkpt>
      <trkpt lat="45.84501" lon="4.8059">
        <ele>504</ele>
        <time>2014-05-01T14:07:30.264Z</time>
      </trkpt>
      <trkpt lat="45.8451" lon="4.80574">
        <ele>500</ele>
        <time>2014-05-01T14:07:34.263Z</time>
      </trkpt>
      <trkpt lat="45.84521" lon="4.80565">
        <ele>500</ele>
        <time>2014-05-01T14:07:39.264Z</time>
      </trkpt>
      <trkpt lat="45.84532" lon="4.80555">
        <ele>498</ele>
        <time>2014-05-01T14:07:44.295Z</time>
      </trkpt>
      <trkpt lat="45.84547" lon="4.80556">
        <ele>504</ele>
        <time>2014-05-01T14:07:49.264Z</time>
      </trkpt>
      <trkpt lat="45.84556" lon="4.80563">
        <ele>510</ele>
        <time>2014-05-01T14:07:54.264Z</time>
      </trkpt>
      <trkpt lat="45.84564" lon="4.80573">
        <ele>510</ele>
        <time>2014-05-01T14:08:00.294Z</time>
      </trkpt>
      <trkpt lat="45.84565" lon="4.80591">
        <ele>512</ele>
        <time>2014-05-01T14:08:06.265Z</time>
      </trkpt>
      <trkpt lat="45.84575" lon="4.80608">
        <ele>517</ele>
        <time>2014-05-01T14:08:12.285Z</time>
      </trkpt>
      <trkpt lat="45.84592" lon="4.80617">
        <ele>517</ele>
        <time>2014-05-01T14:08:17.275Z</time>
      </trkpt>
      <trkpt lat="45.84606" lon="4.80616">
        <ele>513</ele>
        <time>2014-05-01T14:08:23.261Z</time>
      </trkpt>
      <trkpt lat="45.84626" lon="4.8062">
        <ele>508</ele>
        <time>2014-05-01T14:08:28.265Z</time>
      </trkpt>
      <trkpt lat="45.84646" lon="4.80627">
        <ele>506</ele>
        <time>2014-05-01T14:08:33.284Z</time>
      </trkpt>
      <trkpt lat="45.8466" lon="4.8063">
        <ele>506</ele>
        <time>2014-05-01T14:08:39.264Z</time>
      </trkpt>
      <trkpt lat="45.84674" lon="4.80627">
        <ele>505</ele>
        <time>2014-05-01T14:08:45.261Z</time>
      </trkpt>
      <trkpt lat="45.84708" lon="4.8064">
        <ele>503</ele>
        <time>2014-05-01T14:08:50.265Z</time>
      </trkpt>
      <trkpt lat="45.84725" lon="4.80638">
        <ele>502</ele>
        <time>2014-05-01T14:08:56.263Z</time>
      </trkpt>
      <trkpt lat="45.8474" lon="4.80638">
        <ele>504</ele>
        <time>2014-05-01T14:09:01.273Z</time>
      </trkpt>
      <trkpt lat="45.84757" lon="4.80641">
        <ele>505</ele>
        <time>2014-05-01T14:09:07.261Z</time>
      </trkpt>
      <trkpt lat="45.84773" lon="4.80633">
        <ele>506</ele>
        <time>2014-05-01T14:09:12.265Z</time>
      </trkpt>
      <trkpt lat="45.84789" lon="4.80633">
        <ele>505</ele>
        <time>2014-05-01T14:09:16.265Z</time>
      </trkpt>
      <trkpt lat="45.84803" lon="4.80631">
        <ele>507</ele>
        <time>2014-05-01T14:09:22.263Z</time>
      </trkpt>
      <trkpt lat="45.84819" lon="4.8063">
        <ele>506</ele>
        <time>2014-05-01T14:09:27.264Z</time>
      </trkpt>
      <trkpt lat="45.84837" lon="4.80636">
        <ele>502</ele>
        <time>2014-05-01T14:09:32.266Z</time>
      </trkpt>
      <trkpt lat="45.84859" lon="4.80641">
        <ele>499</ele>
        <time>2014-05-01T14:09:37.801Z</time>
      </trkpt>
      <trkpt lat="45.84875" lon="4.80651">
        <ele>498</ele>
        <time>2014-05-01T14:09:42.801Z</time>
      </trkpt>
      <trkpt lat="45.84893" lon="4.80654">
        <ele>498</ele>
        <time>2014-05-01T14:09:48.24Z</time>
      </trkpt>
      <trkpt lat="45.849" lon="4.80655">
        <ele>499</ele>
        <time>2014-05-01T14:09:53.24Z</time>
      </trkpt>
      <trkpt lat="45.84911" lon="4.80652">
        <ele>501</ele>
        <time>2014-05-01T14:09:58.24Z</time>
      </trkpt>
      <trkpt lat="45.84927" lon="4.80655">
        <ele>502</ele>
        <time>2014-05-01T14:10:04.243Z</time>
      </trkpt>
      <trkpt lat="45.8494" lon="4.8066">
        <ele>503</ele>
        <time>2014-05-01T14:10:10.244Z</time>
      </trkpt>
      <trkpt lat="45.84948" lon="4.80677">
        <ele>503</ele>
        <time>2014-05-01T14:10:15.24Z</time>
      </trkpt>
      <trkpt lat="45.84954" lon="4.80696">
        <ele>502</ele>
        <time>2014-05-01T14:10:19.24Z</time>
      </trkpt>
      <trkpt lat="45.84968" lon="4.80715">
        <ele>503</ele>
        <time>2014-05-01T14:10:23.24Z</time>
      </trkpt>
      <trkpt lat="45.84976" lon="4.80727">
        <ele>503</ele>
        <time>2014-05-01T14:10:28.245Z</time>
      </trkpt>
      <trkpt lat="45.84981" lon="4.80746">
        <ele>505</ele>
        <time>2014-05-01T14:10:33.25Z</time>
      </trkpt>
      <trkpt lat="45.84988" lon="4.80761">
        <ele>505</ele>
        <time>2014-05-01T14:10:39.24Z</time>
      </trkpt>
      <trkpt lat="45.84995" lon="4.80778">
        <ele>505</ele>
        <time>2014-05-01T14:10:44.244Z</time>
      </trkpt>
      <trkpt lat="45.85003" lon="4.80797">
        <ele>506</ele>
        <time>2014-05-01T14:10:50.248Z</time>
      </trkpt>
      <trkpt lat="45.85012" lon="4.80808">
        <ele>504</ele>
        <time>2014-05-01T14:10:56.259Z</time>
      </trkpt>
      <trkpt lat="45.85023" lon="4.80829">
        <ele>503</ele>
        <time>2014-05-01T14:11:02.245Z</time>
      </trkpt>
      <trkpt lat="45.85036" lon="4.80853">
        <ele>505</ele>
        <time>2014-05-01T14:11:07.254Z</time>
      </trkpt>
      <trkpt lat="45.8505" lon="4.80869">
        <ele>504</ele>
        <time>2014-05-01T14:11:13.243Z</time>
      </trkpt>
      <trkpt lat="45.8506" lon="4.80894">
        <ele>501</ele>
        <time>2014-05-01T14:11:18.246Z</time>
      </trkpt>
      <trkpt lat="45.85081" lon="4.80923">
        <ele>498</ele>
        <time>2014-05-01T14:11:24.239Z</time>
      </trkpt>
      <trkpt lat="45.85094" lon="4.80945">
        <ele>497</ele>
        <time>2014-05-01T14:11:29.24Z</time>
      </trkpt>
      <trkpt lat="45.85105" lon="4.80965">
        <ele>498</ele>
        <time>2014-05-01T14:11:34.253Z</time>
      </trkpt>
      <trkpt lat="45.8512" lon="4.80979">
        <ele>497</ele>
        <time>2014-05-01T14:11:39.241Z</time>
      </trkpt>
      <trkpt lat="45.85133" lon="4.8099">
        <ele>496</ele>
        <time>2014-05-01T14:11:44.243Z</time>
      </trkpt>
      <trkpt lat="45.85144" lon="4.81003">
        <ele>499</ele>
        <time>2014-05-01T14:11:50.25Z</time>
      </trkpt>
      <trkpt lat="45.85153" lon="4.81018">
        <ele>497</ele>
        <time>2014-05-01T14:11:55.243Z</time>
      </trkpt>
      <trkpt lat="45.85162" lon="4.81036">
        <ele>497</ele>
        <time>2014-05-01T14:12:01.24Z</time>
      </trkpt>
      <trkpt lat="45.85175" lon="4.81052">
        <ele>496</ele>
        <time>2014-05-01T14:12:04.241Z</time>
      </trkpt>
      <trkpt lat="45.85187" lon="4.81071">
        <ele>496</ele>
        <time>2014-05-01T14:12:10.24Z</time>
      </trkpt>
      <trkpt lat="45.85197" lon="4.81084">
        <ele>496</ele>
        <time>2014-05-01T14:12:15.241Z</time>
      </trkpt>
      <trkpt lat="45.85211" lon="4.81099">
        <ele>495</ele>
        <time>2014-05-01T14:12:21.246Z</time>
      </trkpt>
      <trkpt lat="45.85222" lon="4.81105">
        <ele>495</ele>
        <time>2014-05-01T14:12:26.246Z</time>
      </trkpt>
      <trkpt lat="45.85245" lon="4.81128">
        <ele>492</ele>
        <time>2014-05-01T14:12:32.241Z</time>
      </trkpt>
      <trkpt lat="45.85257" lon="4.81138">
        <ele>489</ele>
        <time>2014-05-01T14:12:37.241Z</time>
      </trkpt>
      <trkpt lat="45.85265" lon="4.81149">
        <ele>490</ele>
        <time>2014-05-01T14:12:42.241Z</time>
      </trkpt>
      <trkpt lat="45.85274" lon="4.81161">
        <ele>489</ele>
        <time>2014-05-01T14:12:47.241Z</time>
      </trkpt>
      <trkpt lat="45.85292" lon="4.81182">
        <ele>485</ele>
        <time>2014-05-01T14:12:52.248Z</time>
      </trkpt>
      <trkpt lat="45.85313" lon="4.81198">
        <ele>484</ele>
        <time>2014-05-01T14:12:58.241Z</time>
      </trkpt>
      <trkpt lat="45.85324" lon="4.81198">
        <ele>482</ele>
        <time>2014-05-01T14:13:03.254Z</time>
      </trkpt>
      <trkpt lat="45.85342" lon="4.81217">
        <ele>480</ele>
        <time>2014-05-01T14:13:09.24Z</time>
      </trkpt>
      <trkpt lat="45.85362" lon="4.81239">
        <ele>479</ele>
        <time>2014-05-01T14:13:14.24Z</time>
      </trkpt>
      <trkpt lat="45.85373" lon="4.81247">
        <ele>479</ele>
        <time>2014-05-01T14:13:19.241Z</time>
      </trkpt>
      <trkpt lat="45.85383" lon="4.81251">
        <ele>477</ele>
        <time>2014-05-01T14:13:24.245Z</time>
      </trkpt>
      <trkpt lat="45.85393" lon="4.81259">
        <ele>477</ele>
        <time>2014-05-01T14:13:29.248Z</time>
      </trkpt>
      <trkpt lat="45.85413" lon="4.81269">
        <ele>476</ele>
        <time>2014-05-01T14:13:35.24Z</time>
      </trkpt>
      <trkpt lat="45.85429" lon="4.8127">
        <ele>477</ele>
        <time>2014-05-01T14:13:40.243Z</time>
      </trkpt>
      <trkpt lat="45.85457" lon="4.8127">
        <ele>472</ele>
        <time>2014-05-01T14:13:46.241Z</time>
      </trkpt>
      <trkpt lat="45.85472" lon="4.81278">
        <ele>470</ele>
        <time>2014-05-01T14:13:51.241Z</time>
      </trkpt>
      <trkpt lat="45.85485" lon="4.81288">
        <ele>462</ele>
        <time>2014-05-01T14:13:55.24Z</time>
      </trkpt>
      <trkpt lat="45.85487" lon="4.81306">
        <ele>458</ele>
        <time>2014-05-01T14:14:01.24Z</time>
      </trkpt>
      <trkpt lat="45.85487" lon="4.81317">
        <ele>458</ele>
        <time>2014-05-01T14:14:07.24Z</time>
      </trkpt>
      <trkpt lat="45.85478" lon="4.81336">
        <ele>459</ele>
        <time>2014-05-01T14:14:12.239Z</time>
      </trkpt>
      <trkpt lat="45.85475" lon="4.81345">
        <ele>460</ele>
        <time>2014-05-01T14:14:17.24Z</time>
      </trkpt>
      <trkpt lat="45.85465" lon="4.81368">
        <ele>461</ele>
        <time>2014-05-01T14:14:22.245Z</time>
      </trkpt>
      <trkpt lat="45.85465" lon="4.81387">
        <ele>462</ele>
        <time>2014-05-01T14:14:27.376Z</time>
      </trkpt>
      <trkpt lat="45.85464" lon="4.81411">
        <ele>457</ele>
        <time>2014-05-01T14:14:33.375Z</time>
      </trkpt>
      <trkpt lat="45.85476" lon="4.81429">
        <ele>456</ele>
        <time>2014-05-01T14:14:37.375Z</time>
      </trkpt>
      <trkpt lat="45.85486" lon="4.81452">
        <ele>451</ele>
        <time>2014-05-01T14:14:42.381Z</time>
      </trkpt>
      <trkpt lat="45.85498" lon="4.81476">
        <ele>446</ele>
        <time>2014-05-01T14:14:48.375Z</time>
      </trkpt>
      <trkpt lat="45.85507" lon="4.81499">
        <ele>442</ele>
        <time>2014-05-01T14:14:53.376Z</time>
      </trkpt>
      <trkpt lat="45.85519" lon="4.81516">
        <ele>439</ele>
        <time>2014-05-01T14:14:58.385Z</time>
      </trkpt>
      <trkpt lat="45.85529" lon="4.81548">
        <ele>437</ele>
        <time>2014-05-01T14:15:04.376Z</time>
      </trkpt>
      <trkpt lat="45.85545" lon="4.81571">
        <ele>434</ele>
        <time>2014-05-01T14:15:07.376Z</time>
      </trkpt>
      <trkpt lat="45.85559" lon="4.81596">
        <ele>432</ele>
        <time>2014-05-01T14:15:13.375Z</time>
      </trkpt>
      <trkpt lat="45.85577" lon="4.81623">
        <ele>429</ele>
        <time>2014-05-01T14:15:18.375Z</time>
      </trkpt>
      <trkpt lat="45.85594" lon="4.81642">
        <ele>424</ele>
        <time>2014-05-01T14:15:23.381Z</time>
      </trkpt>
      <trkpt lat="45.85605" lon="4.81663">
        <ele>422</ele>
        <time>2014-05-01T14:15:28.383Z</time>
      </trkpt>
      <trkpt lat="45.85619" lon="4.81675">
        <ele>426</ele>
        <time>2014-05-01T14:15:34.38Z</time>
      </trkpt>
      <trkpt lat="45.85627" lon="4.81675">
        <ele>424</ele>
        <time>2014-05-01T14:15:40.38Z</time>
      </trkpt>
      <trkpt lat="45.85637" lon="4.81681">
        <ele>424</ele>
        <time>2014-05-01T14:15:46.379Z</time>
      </trkpt>
      <trkpt lat="45.85658" lon="4.81694">
        <ele>422</ele>
        <time>2014-05-01T14:15:52.375Z</time>
      </trkpt>
      <trkpt lat="45.85668" lon="4.81694">
        <ele>422</ele>
        <time>2014-05-01T14:15:57.379Z</time>
      </trkpt>
      <trkpt lat="45.85695" lon="4.81703">
        <ele>425</ele>
        <time>2014-05-01T14:16:03.385Z</time>
      </trkpt>
      <trkpt lat="45.85715" lon="4.81704">
        <ele>422</ele>
        <time>2014-05-01T14:16:09.385Z</time>
      </trkpt>
      <trkpt lat="45.85738" lon="4.81709">
        <ele>419</ele>
        <time>2014-05-01T14:16:15.376Z</time>
      </trkpt>
      <trkpt lat="45.8576" lon="4.81711">
        <ele>415</ele>
        <time>2014-05-01T14:16:21.378Z</time>
      </trkpt>
      <trkpt lat="45.85779" lon="4.81711">
        <ele>414</ele>
        <time>2014-05-01T14:16:27.383Z</time>
      </trkpt>
      <trkpt lat="45.85798" lon="4.81714">
        <ele>415</ele>
        <time>2014-05-01T14:16:33.378Z</time>
      </trkpt>
      <trkpt lat="45.85813" lon="4.81717">
        <ele>416</ele>
        <time>2014-05-01T14:16:38.378Z</time>
      </trkpt>
      <trkpt lat="45.85827" lon="4.81719">
        <ele>415</ele>
        <time>2014-05-01T14:16:43.381Z</time>
      </trkpt>
      <trkpt lat="45.85854" lon="4.81733">
        <ele>413</ele>
        <time>2014-05-01T14:16:49.378Z</time>
      </trkpt>
      <trkpt lat="45.85875" lon="4.81742">
        <ele>409</ele>
        <time>2014-05-01T14:16:54.378Z</time>
      </trkpt>
      <trkpt lat="45.8589" lon="4.81751">
        <ele>409</ele>
        <time>2014-05-01T14:16:59.38Z</time>
      </trkpt>
      <trkpt lat="45.85904" lon="4.8176">
        <ele>407</ele>
        <time>2014-05-01T14:17:04.381Z</time>
      </trkpt>
      <trkpt lat="45.85919" lon="4.81776">
        <ele>405</ele>
        <time>2014-05-01T14:17:09.375Z</time>
      </trkpt>
      <trkpt lat="45.85931" lon="4.81791">
        <ele>402</ele>
        <time>2014-05-01T14:17:14.376Z</time>
      </trkpt>
      <trkpt lat="45.85953" lon="4.81811">
        <ele>400</ele>
        <time>2014-05-01T14:17:20.375Z</time>
      </trkpt>
      <trkpt lat="45.85964" lon="4.81826">
        <ele>400</ele>
        <time>2014-05-01T14:17:25.376Z</time>
      </trkpt>
      <trkpt lat="45.85989" lon="4.81843">
        <ele>395</ele>
        <time>2014-05-01T14:17:31.375Z</time>
      </trkpt>
      <trkpt lat="45.86002" lon="4.81849">
        <ele>392</ele>
        <time>2014-05-01T14:17:36.375Z</time>
      </trkpt>
      <trkpt lat="45.86021" lon="4.81853">
        <ele>389</ele>
        <time>2014-05-01T14:17:41.375Z</time>
      </trkpt>
      <trkpt lat="45.86037" lon="4.8186">
        <ele>385</ele>
        <time>2014-05-01T14:17:46.375Z</time>
      </trkpt>
      <trkpt lat="45.86056" lon="4.81872">
        <ele>379</ele>
        <time>2014-05-01T14:17:51.375Z</time>
      </trkpt>
      <trkpt lat="45.8607" lon="4.81883">
        <ele>378</ele>
        <time>2014-05-01T14:17:56.38Z</time>
      </trkpt>
      <trkpt lat="45.86089" lon="4.81894">
        <ele>374</ele>
        <time>2014-05-01T14:18:02.375Z</time>
      </trkpt>
      <trkpt lat="45.86109" lon="4.81911">
        <ele>368</ele>
        <time>2014-05-01T14:18:07.375Z</time>
      </trkpt>
      <trkpt lat="45.86129" lon="4.81923">
        <ele>361</ele>
        <time>2014-05-01T14:18:12.38Z</time>
      </trkpt>
      <trkpt lat="45.86145" lon="4.81936">
        <ele>359</ele>
        <time>2014-05-01T14:18:18.375Z</time>
      </trkpt>
      <trkpt lat="45.86151" lon="4.81952">
        <ele>358</ele>
        <time>2014-05-01T14:18:23.375Z</time>
      </trkpt>
      <trkpt lat="45.86162" lon="4.8197">
        <ele>353</ele>
        <time>2014-05-01T14:18:28.385Z</time>
      </trkpt>
      <trkpt lat="45.86176" lon="4.81997">
        <ele>349</ele>
        <time>2014-05-01T14:18:34.384Z</time>
      </trkpt>
      <trkpt lat="45.86186" lon="4.8201">
        <ele>349</ele>
        <time>2014-05-01T14:18:39.38Z</time>
      </trkpt>
      <trkpt lat="45.86186" lon="4.8201">
        <ele>349</ele>
        <time>2014-05-01T14:18:44.505Z</time>
      </trkpt>
      <trkpt lat="45.86186" lon="4.8201">
        <ele>349</ele>
        <time>2014-05-01T14:18:49.553Z</time>
      </trkpt>
      <trkpt lat="45.86186" lon="4.8201">
        <ele>349</ele>
        <time>2014-05-01T14:18:55.225Z</time>
      </trkpt>
      <trkpt lat="45.86186" lon="4.8201">
        <ele>349</ele>
        <time>2014-05-01T14:19:00.226Z</time>
      </trkpt>
      <trkpt lat="45.86186" lon="4.8201">
        <ele>349</ele>
        <time>2014-05-01T14:19:05.231Z</time>
      </trkpt>
      <trkpt lat="45.86186" lon="4.8201">
        <ele>349</ele>
        <time>2014-05-01T14:19:10.235Z</time>
      </trkpt>
      <trkpt lat="45.86278" lon="4.82079">
        <ele>334</ele>
        <time>2014-05-01T14:19:10.905Z</time>
      </trkpt>
      <trkpt lat="45.86295" lon="4.82092">
        <ele>334</ele>
        <time>2014-05-01T14:19:15.91Z</time>
      </trkpt>
      <trkpt lat="45.86313" lon="4.82103">
        <ele>332</ele>
        <time>2014-05-01T14:19:21.906Z</time>
      </trkpt>
      <trkpt lat="45.86321" lon="4.82118">
        <ele>334</ele>
        <time>2014-05-01T14:19:27.906Z</time>
      </trkpt>
      <trkpt lat="45.86324" lon="4.82126">
        <ele>335</ele>
        <time>2014-05-01T14:19:32.908Z</time>
      </trkpt>
      <trkpt lat="45.86339" lon="4.82152">
        <ele>330</ele>
        <time>2014-05-01T14:19:38.906Z</time>
      </trkpt>
      <trkpt lat="45.86352" lon="4.82162">
        <ele>326</ele>
        <time>2014-05-01T14:19:41.91Z</time>
      </trkpt>
      <trkpt lat="45.86366" lon="4.82165">
        <ele>321</ele>
        <time>2014-05-01T14:19:46.905Z</time>
      </trkpt>
      <trkpt lat="45.86376" lon="4.82156">
        <ele>320</ele>
        <time>2014-05-01T14:19:51.905Z</time>
      </trkpt>
      <trkpt lat="45.86391" lon="4.82153">
        <ele>319</ele>
        <time>2014-05-01T14:19:55.905Z</time>
      </trkpt>
      <trkpt lat="45.86408" lon="4.82149">
        <ele>316</ele>
        <time>2014-05-01T14:20:00.906Z</time>
      </trkpt>
      <trkpt lat="45.86429" lon="4.82144">
        <ele>314</ele>
        <time>2014-05-01T14:20:05.906Z</time>
      </trkpt>
      <trkpt lat="45.86451" lon="4.82131">
        <ele>308</ele>
        <time>2014-05-01T14:20:11.905Z</time>
      </trkpt>
      <trkpt lat="45.86466" lon="4.82123">
        <ele>305</ele>
        <time>2014-05-01T14:20:16.906Z</time>
      </trkpt>
      <trkpt lat="45.86487" lon="4.82117">
        <ele>304</ele>
        <time>2014-05-01T14:20:22.906Z</time>
      </trkpt>
      <trkpt lat="45.86511" lon="4.8212">
        <ele>300</ele>
        <time>2014-05-01T14:20:27.926Z</time>
      </trkpt>
      <trkpt lat="45.86531" lon="4.82122">
        <ele>297</ele>
        <time>2014-05-01T14:20:33.906Z</time>
      </trkpt>
      <trkpt lat="45.86547" lon="4.82123">
        <ele>295</ele>
        <time>2014-05-01T14:20:38.906Z</time>
      </trkpt>
      <trkpt lat="45.86555" lon="4.82113">
        <ele>294</ele>
        <time>2014-05-01T14:20:43.91Z</time>
      </trkpt>
      <trkpt lat="45.86567" lon="4.82102">
        <ele>294</ele>
        <time>2014-05-01T14:20:48.709Z</time>
      </trkpt>
      <trkpt lat="45.86583" lon="4.82102">
        <ele>293</ele>
        <time>2014-05-01T14:20:53.709Z</time>
      </trkpt>
      <trkpt lat="45.86601" lon="4.82101">
        <ele>293</ele>
        <time>2014-05-01T14:20:58.709Z</time>
      </trkpt>
      <trkpt lat="45.86619" lon="4.82101">
        <ele>291</ele>
        <time>2014-05-01T14:21:03.709Z</time>
      </trkpt>
      <trkpt lat="45.86635" lon="4.82101">
        <ele>288</ele>
        <time>2014-05-01T14:21:08.71Z</time>
      </trkpt>
      <trkpt lat="45.8665" lon="4.82103">
        <ele>288</ele>
        <time>2014-05-01T14:21:13.71Z</time>
      </trkpt>
      <trkpt lat="45.86669" lon="4.82093">
        <ele>285</ele>
        <time>2014-05-01T14:21:18.71Z</time>
      </trkpt>
      <trkpt lat="45.86688" lon="4.82099">
        <ele>285</ele>
        <time>2014-05-01T14:21:24.709Z</time>
      </trkpt>
      <trkpt lat="45.86701" lon="4.82099">
        <ele>284</ele>
        <time>2014-05-01T14:21:29.713Z</time>
      </trkpt>
      <trkpt lat="45.86721" lon="4.82095">
        <ele>285</ele>
        <time>2014-05-01T14:21:35.71Z</time>
      </trkpt>
      <trkpt lat="45.86744" lon="4.82093">
        <ele>283</ele>
        <time>2014-05-01T14:21:41.71Z</time>
      </trkpt>
      <trkpt lat="45.86766" lon="4.8209">
        <ele>277</ele>
        <time>2014-05-01T14:21:46.71Z</time>
      </trkpt>
      <trkpt lat="45.8678" lon="4.82087">
        <ele>270</ele>
        <time>2014-05-01T14:21:51.71Z</time>
      </trkpt>
      <trkpt lat="45.86795" lon="4.82095">
        <ele>270</ele>
        <time>2014-05-01T14:21:57.71Z</time>
      </trkpt>
      <trkpt lat="45.86803" lon="4.82112">
        <ele>269</ele>
        <time>2014-05-01T14:22:00.71Z</time>
      </trkpt>
      <trkpt lat="45.86819" lon="4.82125">
        <ele>268</ele>
        <time>2014-05-01T14:22:05.755Z</time>
      </trkpt>
      <trkpt lat="45.86841" lon="4.8214">
        <ele>267</ele>
        <time>2014-05-01T14:22:11.709Z</time>
      </trkpt>
      <trkpt lat="45.86859" lon="4.82141">
        <ele>266</ele>
        <time>2014-05-01T14:22:16.71Z</time>
      </trkpt>
      <trkpt lat="45.86873" lon="4.82147">
        <ele>262</ele>
        <time>2014-05-01T14:22:21.753Z</time>
      </trkpt>
      <trkpt lat="45.86894" lon="4.82164">
        <ele>260</ele>
        <time>2014-05-01T14:22:27.71Z</time>
      </trkpt>
      <trkpt lat="45.86904" lon="4.8218">
        <ele>260</ele>
        <time>2014-05-01T14:22:32.71Z</time>
      </trkpt>
      <trkpt lat="45.86913" lon="4.82183">
        <ele>260</ele>
        <time>2014-05-01T14:22:37.749Z</time>
      </trkpt>
      <trkpt lat="45.86924" lon="4.822">
        <ele>259</ele>
        <time>2014-05-01T14:22:43.721Z</time>
      </trkpt>
      <trkpt lat="45.8695" lon="4.82231">
        <ele>257</ele>
        <time>2014-05-01T14:22:49.71Z</time>
      </trkpt>
      <trkpt lat="45.86971" lon="4.82243">
        <ele>255</ele>
        <time>2014-05-01T14:22:54.713Z</time>
      </trkpt>
      <trkpt lat="45.86987" lon="4.82248">
        <ele>252</ele>
        <time>2014-05-01T14:23:00.194Z</time>
      </trkpt>
      <trkpt lat="45.86994" lon="4.82241">
        <ele>251</ele>
        <time>2014-05-01T14:23:05.195Z</time>
      </trkpt>
      <trkpt lat="45.87" lon="4.8223">
        <ele>252</ele>
        <time>2014-05-01T14:23:10.195Z</time>
      </trkpt>
      <trkpt lat="45.87005" lon="4.82216">
        <ele>252</ele>
        <time>2014-05-01T14:23:15.196Z</time>
      </trkpt>
      <trkpt lat="45.8701" lon="4.82177">
        <ele>242</ele>
        <time>2014-05-01T14:23:20.196Z</time>
      </trkpt>
      <trkpt lat="45.87006" lon="4.82169">
        <ele>246</ele>
        <time>2014-05-01T14:23:25.208Z</time>
      </trkpt>
      <trkpt lat="45.8699" lon="4.82168">
        <ele>250</ele>
        <time>2014-05-01T14:23:30.678Z</time>
      </trkpt>
      <trkpt lat="45.86982" lon="4.82149">
        <ele>252</ele>
        <time>2014-05-01T14:23:36.676Z</time>
      </trkpt>
      <trkpt lat="45.86972" lon="4.82135">
        <ele>250</ele>
        <time>2014-05-01T14:23:39.679Z</time>
      </trkpt>
      <trkpt lat="45.86969" lon="4.82115">
        <ele>249</ele>
        <time>2014-05-01T14:23:43.678Z</time>
      </trkpt>
      <trkpt lat="45.86971" lon="4.82094">
        <ele>249</ele>
        <time>2014-05-01T14:23:46.676Z</time>
      </trkpt>
      <trkpt lat="45.86971" lon="4.82068">
        <ele>246</ele>
        <time>2014-05-01T14:23:51.676Z</time>
      </trkpt>
      <trkpt lat="45.86967" lon="4.82053">
        <ele>244</ele>
        <time>2014-05-01T14:23:56.676Z</time>
      </trkpt>
      <trkpt lat="45.86968" lon="4.8204">
        <ele>242</ele>
        <time>2014-05-01T14:24:01.676Z</time>
      </trkpt>
      <trkpt lat="45.8697" lon="4.82036">
        <ele>242</ele>
        <time>2014-05-01T14:24:06.706Z</time>
      </trkpt>
      <trkpt lat="45.86979" lon="4.82011">
        <ele>241</ele>
        <time>2014-05-01T14:24:12.68Z</time>
      </trkpt>
      <trkpt lat="45.86978" lon="4.8201">
        <ele>241</ele>
        <time>2014-05-01T14:24:17.683Z</time>
      </trkpt>
      <trkpt lat="45.86979" lon="4.82005">
        <ele>241</ele>
        <time>2014-05-01T14:24:22.7Z</time>
      </trkpt>
      <trkpt lat="45.86979" lon="4.82005">
        <ele>241</ele>
        <time>2014-05-01T14:24:28.68Z</time>
      </trkpt>
      <trkpt lat="45.86979" lon="4.82006">
        <ele>241</ele>
        <time>2014-05-01T14:24:33.681Z</time>
      </trkpt>
      <trkpt lat="45.86979" lon="4.82006">
        <ele>241</ele>
        <time>2014-05-01T14:24:38.705Z</time>
      </trkpt>
      <trkpt lat="45.86979" lon="4.82006">
        <ele>241</ele>
        <time>2014-05-01T14:24:44.681Z</time>
      </trkpt>
      <trkpt lat="45.86979" lon="4.82006">
        <ele>241</ele>
        <time>2014-05-01T14:24:50.68Z</time>
      </trkpt>
      <trkpt lat="45.86979" lon="4.82006">
        <ele>241</ele>
        <time>2014-05-01T14:24:55.68Z</time>
      </trkpt>
      <trkpt lat="45.86979" lon="4.82006">
        <ele>241</ele>
        <time>2014-05-01T14:25:00.68Z</time>
      </trkpt>
      <trkpt lat="45.86979" lon="4.82006">
        <ele>241</ele>
        <time>2014-05-01T14:25:05.681Z</time>
      </trkpt>
      <trkpt lat="45.86979" lon="4.82006">
        <ele>241</ele>
        <time>2014-05-01T14:25:10.709Z</time>
      </trkpt>
      <trkpt lat="45.86981" lon="4.81981">
        <ele>231</ele>
        <time>2014-05-01T14:25:16.678Z</time>
      </trkpt>
      <trkpt lat="45.86987" lon="4.81957">
        <ele>224</ele>
        <time>2014-05-01T14:25:21.678Z</time>
      </trkpt>
      <trkpt lat="45.86987" lon="4.8196">
        <ele>215</ele>
        <time>2014-05-01T14:25:26.7Z</time>
      </trkpt>
      <trkpt lat="45.86987" lon="4.81957">
        <ele>217</ele>
        <time>2014-05-01T14:25:32.681Z</time>
      </trkpt>
      <trkpt lat="45.86987" lon="4.81957">
        <ele>216</ele>
        <time>2014-05-01T14:25:37.681Z</time>
      </trkpt>
      <trkpt lat="45.86988" lon="4.81955">
        <ele>215</ele>
        <time>2014-05-01T14:25:42.708Z</time>
      </trkpt>
      <trkpt lat="45.86989" lon="4.81951">
        <ele>218</ele>
        <time>2014-05-01T14:25:48.678Z</time>
      </trkpt>
      <trkpt lat="45.86975" lon="4.81949">
        <ele>223</ele>
        <time>2014-05-01T14:25:53.679Z</time>
      </trkpt>
      <trkpt lat="45.86964" lon="4.8195">
        <ele>229</ele>
        <time>2014-05-01T14:25:58.701Z</time>
      </trkpt>
      <trkpt lat="45.86955" lon="4.81946">
        <ele>235</ele>
        <time>2014-05-01T14:26:04.679Z</time>
      </trkpt>
      <trkpt lat="45.86944" lon="4.81939">
        <ele>243</ele>
        <time>2014-05-01T14:26:10.679Z</time>
      </trkpt>
      <trkpt lat="45.86933" lon="4.81924">
        <ele>248</ele>
        <time>2014-05-01T14:26:16.679Z</time>
      </trkpt>
      <trkpt lat="45.86923" lon="4.81906">
        <ele>252</ele>
        <time>2014-05-01T14:26:21.72Z</time>
      </trkpt>
      <trkpt lat="45.86917" lon="4.81888">
        <ele>252</ele>
        <time>2014-05-01T14:26:25.678Z</time>
      </trkpt>
      <trkpt lat="45.8691" lon="4.81866">
        <ele>252</ele>
        <time>2014-05-01T14:26:30.699Z</time>
      </trkpt>
      <trkpt lat="45.86892" lon="4.81869">
        <ele>249</ele>
        <time>2014-05-01T14:26:34.678Z</time>
      </trkpt>
      <trkpt lat="45.86882" lon="4.81856">
        <ele>241</ele>
        <time>2014-05-01T14:26:38.68Z</time>
      </trkpt>
      <trkpt lat="45.86865" lon="4.81856">
        <ele>243</ele>
        <time>2014-05-01T14:26:44.68Z</time>
      </trkpt>
      <trkpt lat="45.86848" lon="4.81865">
        <ele>245</ele>
        <time>2014-05-01T14:26:48.68Z</time>
      </trkpt>
      <trkpt lat="45.86834" lon="4.81873">
        <ele>250</ele>
        <time>2014-05-01T14:26:53.72Z</time>
      </trkpt>
      <trkpt lat="45.8682" lon="4.81878">
        <ele>257</ele>
        <time>2014-05-01T14:26:59.678Z</time>
      </trkpt>
      <trkpt lat="45.86815" lon="4.8188">
        <ele>254</ele>
        <time>2014-05-01T14:27:04.68Z</time>
      </trkpt>
      <trkpt lat="45.86817" lon="4.81855">
        <ele>254</ele>
        <time>2014-05-01T14:27:09.723Z</time>
      </trkpt>
      <trkpt lat="45.86814" lon="4.81835">
        <ele>259</ele>
        <time>2014-05-01T14:27:15.68Z</time>
      </trkpt>
      <trkpt lat="45.86814" lon="4.81813">
        <ele>260</ele>
        <time>2014-05-01T14:27:20.68Z</time>
      </trkpt>
      <trkpt lat="45.86811" lon="4.8179">
        <ele>262</ele>
        <time>2014-05-01T14:27:25.721Z</time>
      </trkpt>
      <trkpt lat="45.86811" lon="4.81768">
        <ele>261</ele>
        <time>2014-05-01T14:27:31.68Z</time>
      </trkpt>
      <trkpt lat="45.8681" lon="4.81756">
        <ele>263</ele>
        <time>2014-05-01T14:27:36.68Z</time>
      </trkpt>
      <trkpt lat="45.86813" lon="4.81745">
        <ele>265</ele>
        <time>2014-05-01T14:27:41.723Z</time>
      </trkpt>
      <trkpt lat="45.86813" lon="4.8173">
        <ele>269</ele>
        <time>2014-05-01T14:27:47.679Z</time>
      </trkpt>
      <trkpt lat="45.86813" lon="4.81712">
        <ele>273</ele>
        <time>2014-05-01T14:27:52.68Z</time>
      </trkpt>
      <trkpt lat="45.86819" lon="4.81691">
        <ele>275</ele>
        <time>2014-05-01T14:27:56.679Z</time>
      </trkpt>
      <trkpt lat="45.8682" lon="4.81678">
        <ele>276</ele>
        <time>2014-05-01T14:28:01.68Z</time>
      </trkpt>
      <trkpt lat="45.86825" lon="4.81669">
        <ele>278</ele>
        <time>2014-05-01T14:28:06.7Z</time>
      </trkpt>
      <trkpt lat="45.86824" lon="4.81661">
        <ele>280</ele>
        <time>2014-05-01T14:28:12.68Z</time>
      </trkpt>
      <trkpt lat="45.86823" lon="4.81646">
        <ele>283</ele>
        <time>2014-05-01T14:28:18.679Z</time>
      </trkpt>
      <trkpt lat="45.86822" lon="4.81628">
        <ele>284</ele>
        <time>2014-05-01T14:28:24.678Z</time>
      </trkpt>
      <trkpt lat="45.86821" lon="4.81621">
        <ele>285</ele>
        <time>2014-05-01T14:28:29.72Z</time>
      </trkpt>
      <trkpt lat="45.86824" lon="4.81599">
        <ele>286</ele>
        <time>2014-05-01T14:28:35.678Z</time>
      </trkpt>
      <trkpt lat="45.86824" lon="4.81579">
        <ele>289</ele>
        <time>2014-05-01T14:28:40.678Z</time>
      </trkpt>
      <trkpt lat="45.86825" lon="4.81566">
        <ele>289</ele>
        <time>2014-05-01T14:28:45.678Z</time>
      </trkpt>
      <trkpt lat="45.86827" lon="4.81546">
        <ele>289</ele>
        <time>2014-05-01T14:28:49.678Z</time>
      </trkpt>
      <trkpt lat="45.86825" lon="4.81532">
        <ele>289</ele>
        <time>2014-05-01T14:28:54.678Z</time>
      </trkpt>
      <trkpt lat="45.86819" lon="4.81524">
        <ele>288</ele>
        <time>2014-05-01T14:28:59.678Z</time>
      </trkpt>
      <trkpt lat="45.86812" lon="4.81511">
        <ele>288</ele>
        <time>2014-05-01T14:29:04.689Z</time>
      </trkpt>
      <trkpt lat="45.86812" lon="4.81489">
        <ele>289</ele>
        <time>2014-05-01T14:29:09.679Z</time>
      </trkpt>
      <trkpt lat="45.86811" lon="4.81469">
        <ele>288</ele>
        <time>2014-05-01T14:29:14.679Z</time>
      </trkpt>
      <trkpt lat="45.86809" lon="4.81446">
        <ele>287</ele>
        <time>2014-05-01T14:29:19.679Z</time>
      </trkpt>
      <trkpt lat="45.86802" lon="4.81428">
        <ele>289</ele>
        <time>2014-05-01T14:29:25.678Z</time>
      </trkpt>
      <trkpt lat="45.86798" lon="4.81418">
        <ele>291</ele>
        <time>2014-05-01T14:29:30.678Z</time>
      </trkpt>
      <trkpt lat="45.868" lon="4.81398">
        <ele>293</ele>
        <time>2014-05-01T14:29:35.678Z</time>
      </trkpt>
      <trkpt lat="45.86796" lon="4.81381">
        <ele>292</ele>
        <time>2014-05-01T14:29:40.679Z</time>
      </trkpt>
      <trkpt lat="45.86793" lon="4.81362">
        <ele>293</ele>
        <time>2014-05-01T14:29:46.679Z</time>
      </trkpt>
      <trkpt lat="45.8678" lon="4.81354">
        <ele>302</ele>
        <time>2014-05-01T14:29:52.686Z</time>
      </trkpt>
      <trkpt lat="45.86777" lon="4.81341">
        <ele>302</ele>
        <time>2014-05-01T14:29:58.679Z</time>
      </trkpt>
      <trkpt lat="45.86773" lon="4.81315">
        <ele>304</ele>
        <time>2014-05-01T14:30:04.679Z</time>
      </trkpt>
      <trkpt lat="45.86768" lon="4.81299">
        <ele>308</ele>
        <time>2014-05-01T14:30:10.678Z</time>
      </trkpt>
      <trkpt lat="45.86761" lon="4.81292">
        <ele>308</ele>
        <time>2014-05-01T14:30:15.72Z</time>
      </trkpt>
      <trkpt lat="45.86756" lon="4.8128">
        <ele>309</ele>
        <time>2014-05-01T14:30:21.678Z</time>
      </trkpt>
      <trkpt lat="45.86752" lon="4.8126">
        <ele>309</ele>
        <time>2014-05-01T14:30:26.678Z</time>
      </trkpt>
      <trkpt lat="45.86751" lon="4.81234">
        <ele>308</ele>
        <time>2014-05-01T14:30:31.715Z</time>
      </trkpt>
      <trkpt lat="45.86745" lon="4.81216">
        <ele>308</ele>
        <time>2014-05-01T14:30:37.679Z</time>
      </trkpt>
      <trkpt lat="45.86736" lon="4.81198">
        <ele>312</ele>
        <time>2014-05-01T14:30:42.679Z</time>
      </trkpt>
      <trkpt lat="45.86735" lon="4.81177">
        <ele>312</ele>
        <time>2014-05-01T14:30:46.679Z</time>
      </trkpt>
      <trkpt lat="45.86731" lon="4.8116">
        <ele>314</ele>
        <time>2014-05-01T14:30:52.679Z</time>
      </trkpt>
      <trkpt lat="45.86731" lon="4.81135">
        <ele>315</ele>
        <time>2014-05-01T14:30:58.678Z</time>
      </trkpt>
      <trkpt lat="45.86728" lon="4.81121">
        <ele>314</ele>
        <time>2014-05-01T14:31:03.719Z</time>
      </trkpt>
      <trkpt lat="45.86718" lon="4.81116">
        <ele>315</ele>
        <time>2014-05-01T14:31:09.678Z</time>
      </trkpt>
      <trkpt lat="45.86714" lon="4.81103">
        <ele>315</ele>
        <time>2014-05-01T14:31:14.678Z</time>
      </trkpt>
      <trkpt lat="45.8671" lon="4.81092">
        <ele>316</ele>
        <time>2014-05-01T14:31:19.72Z</time>
      </trkpt>
      <trkpt lat="45.86715" lon="4.81071">
        <ele>319</ele>
        <time>2014-05-01T14:31:24.678Z</time>
      </trkpt>
      <trkpt lat="45.86708" lon="4.81056">
        <ele>322</ele>
        <time>2014-05-01T14:31:29.678Z</time>
      </trkpt>
      <trkpt lat="45.867" lon="4.81046">
        <ele>323</ele>
        <time>2014-05-01T14:31:34.679Z</time>
      </trkpt>
      <trkpt lat="45.86698" lon="4.81026">
        <ele>325</ele>
        <time>2014-05-01T14:31:38.679Z</time>
      </trkpt>
      <trkpt lat="45.86696" lon="4.81011">
        <ele>326</ele>
        <time>2014-05-01T14:31:43.679Z</time>
      </trkpt>
      <trkpt lat="45.86691" lon="4.80997">
        <ele>327</ele>
        <time>2014-05-01T14:31:48.679Z</time>
      </trkpt>
      <trkpt lat="45.8669" lon="4.80988">
        <ele>328</ele>
        <time>2014-05-01T14:31:53.679Z</time>
      </trkpt>
      <trkpt lat="45.8668" lon="4.80982">
        <ele>330</ele>
        <time>2014-05-01T14:31:58.679Z</time>
      </trkpt>
      <trkpt lat="45.86679" lon="4.80971">
        <ele>330</ele>
        <time>2014-05-01T14:32:03.679Z</time>
      </trkpt>
      <trkpt lat="45.86675" lon="4.80954">
        <ele>330</ele>
        <time>2014-05-01T14:32:08.679Z</time>
      </trkpt>
      <trkpt lat="45.86663" lon="4.80949">
        <ele>334</ele>
        <time>2014-05-01T14:32:14.678Z</time>
      </trkpt>
      <trkpt lat="45.86659" lon="4.8094">
        <ele>334</ele>
        <time>2014-05-01T14:32:19.678Z</time>
      </trkpt>
      <trkpt lat="45.86647" lon="4.80936">
        <ele>336</ele>
        <time>2014-05-01T14:32:24.679Z</time>
      </trkpt>
      <trkpt lat="45.8664" lon="4.80933">
        <ele>334</ele>
        <time>2014-05-01T14:32:29.683Z</time>
      </trkpt>
      <trkpt lat="45.86627" lon="4.80936">
        <ele>335</ele>
        <time>2014-05-01T14:32:35.679Z</time>
      </trkpt>
      <trkpt lat="45.86617" lon="4.80931">
        <ele>334</ele>
        <time>2014-05-01T14:32:40.679Z</time>
      </trkpt>
      <trkpt lat="45.86608" lon="4.80927">
        <ele>336</ele>
        <time>2014-05-01T14:32:46.679Z</time>
      </trkpt>
      <trkpt lat="45.8659" lon="4.80922">
        <ele>338</ele>
        <time>2014-05-01T14:32:51.679Z</time>
      </trkpt>
      <trkpt lat="45.86576" lon="4.80924">
        <ele>339</ele>
        <time>2014-05-01T14:32:55.72Z</time>
      </trkpt>
      <trkpt lat="45.86558" lon="4.80924">
        <ele>340</ele>
        <time>2014-05-01T14:33:01.723Z</time>
      </trkpt>
      <trkpt lat="45.86537" lon="4.80925">
        <ele>341</ele>
        <time>2014-05-01T14:33:07.679Z</time>
      </trkpt>
      <trkpt lat="45.86527" lon="4.80916">
        <ele>342</ele>
        <time>2014-05-01T14:33:13.678Z</time>
      </trkpt>
      <trkpt lat="45.86518" lon="4.80908">
        <ele>344</ele>
        <time>2014-05-01T14:33:18.679Z</time>
      </trkpt>
      <trkpt lat="45.86509" lon="4.80902">
        <ele>348</ele>
        <time>2014-05-01T14:33:24.679Z</time>
      </trkpt>
      <trkpt lat="45.865" lon="4.80889">
        <ele>349</ele>
        <time>2014-05-01T14:33:29.68Z</time>
      </trkpt>
      <trkpt lat="45.86482" lon="4.80889">
        <ele>351</ele>
        <time>2014-05-01T14:33:35.676Z</time>
      </trkpt>
      <trkpt lat="45.86472" lon="4.80879">
        <ele>352</ele>
        <time>2014-05-01T14:33:40.678Z</time>
      </trkpt>
      <trkpt lat="45.86461" lon="4.80866">
        <ele>355</ele>
        <time>2014-05-01T14:33:46.678Z</time>
      </trkpt>
      <trkpt lat="45.86453" lon="4.8086">
        <ele>358</ele>
        <time>2014-05-01T14:33:51.678Z</time>
      </trkpt>
      <trkpt lat="45.86447" lon="4.80843">
        <ele>360</ele>
        <time>2014-05-01T14:33:57.676Z</time>
      </trkpt>
      <trkpt lat="45.86442" lon="4.80829">
        <ele>362</ele>
        <time>2014-05-01T14:34:02.676Z</time>
      </trkpt>
      <trkpt lat="45.86425" lon="4.80834">
        <ele>364</ele>
        <time>2014-05-01T14:34:07.679Z</time>
      </trkpt>
      <trkpt lat="45.86415" lon="4.80821">
        <ele>361</ele>
        <time>2014-05-01T14:34:12.679Z</time>
      </trkpt>
      <trkpt lat="45.86408" lon="4.80812">
        <ele>358</ele>
        <time>2014-05-01T14:34:17.679Z</time>
      </trkpt>
      <trkpt lat="45.86407" lon="4.8081">
        <ele>357</ele>
        <time>2014-05-01T14:34:22.681Z</time>
      </trkpt>
      <trkpt lat="45.86405" lon="4.80807">
        <ele>359</ele>
        <time>2014-05-01T14:34:27.685Z</time>
      </trkpt>
      <trkpt lat="45.86403" lon="4.80807">
        <ele>358</ele>
        <time>2014-05-01T14:34:32.705Z</time>
      </trkpt>
      <trkpt lat="45.86404" lon="4.80797">
        <ele>358</ele>
        <time>2014-05-01T14:34:38.678Z</time>
      </trkpt>
      <trkpt lat="45.8641" lon="4.80777">
        <ele>358</ele>
        <time>2014-05-01T14:34:41.679Z</time>
      </trkpt>
      <trkpt lat="45.86411" lon="4.80751">
        <ele>362</ele>
        <time>2014-05-01T14:34:47.678Z</time>
      </trkpt>
      <trkpt lat="45.86413" lon="4.80733">
        <ele>364</ele>
        <time>2014-05-01T14:34:52.679Z</time>
      </trkpt>
      <trkpt lat="45.86415" lon="4.807">
        <ele>363</ele>
        <time>2014-05-01T14:34:57.678Z</time>
      </trkpt>
      <trkpt lat="45.86412" lon="4.8068">
        <ele>364</ele>
        <time>2014-05-01T14:35:03.718Z</time>
      </trkpt>
      <trkpt lat="45.86401" lon="4.80674">
        <ele>365</ele>
        <time>2014-05-01T14:35:09.678Z</time>
      </trkpt>
      <trkpt lat="45.86396" lon="4.80663">
        <ele>365</ele>
        <time>2014-05-01T14:35:14.68Z</time>
      </trkpt>
      <trkpt lat="45.86396" lon="4.80654">
        <ele>368</ele>
        <time>2014-05-01T14:35:20.679Z</time>
      </trkpt>
      <trkpt lat="45.86396" lon="4.80633">
        <ele>369</ele>
        <time>2014-05-01T14:35:24.678Z</time>
      </trkpt>
      <trkpt lat="45.86392" lon="4.80623">
        <ele>369</ele>
        <time>2014-05-01T14:35:29.678Z</time>
      </trkpt>
      <trkpt lat="45.86392" lon="4.80601">
        <ele>372</ele>
        <time>2014-05-01T14:35:33.683Z</time>
      </trkpt>
      <trkpt lat="45.86392" lon="4.80586">
        <ele>374</ele>
        <time>2014-05-01T14:35:39.678Z</time>
      </trkpt>
      <trkpt lat="45.86388" lon="4.80576">
        <ele>375</ele>
        <time>2014-05-01T14:35:44.685Z</time>
      </trkpt>
      <trkpt lat="45.86382" lon="4.80562">
        <ele>376</ele>
        <time>2014-05-01T14:35:50.679Z</time>
      </trkpt>
      <trkpt lat="45.86378" lon="4.80549">
        <ele>381</ele>
        <time>2014-05-01T14:35:56.679Z</time>
      </trkpt>
      <trkpt lat="45.86373" lon="4.80521">
        <ele>383</ele>
        <time>2014-05-01T14:36:02.678Z</time>
      </trkpt>
      <trkpt lat="45.86366" lon="4.80508">
        <ele>384</ele>
        <time>2014-05-01T14:36:07.715Z</time>
      </trkpt>
      <trkpt lat="45.86363" lon="4.80489">
        <ele>384</ele>
        <time>2014-05-01T14:36:13.678Z</time>
      </trkpt>
      <trkpt lat="45.86355" lon="4.80491">
        <ele>384</ele>
        <time>2014-05-01T14:36:18.678Z</time>
      </trkpt>
      <trkpt lat="45.86349" lon="4.80475">
        <ele>385</ele>
        <time>2014-05-01T14:36:23.719Z</time>
      </trkpt>
      <trkpt lat="45.86349" lon="4.80455">
        <ele>384</ele>
        <time>2014-05-01T14:36:27.68Z</time>
      </trkpt>
      <trkpt lat="45.86344" lon="4.80443">
        <ele>383</ele>
        <time>2014-05-01T14:36:32.686Z</time>
      </trkpt>
      <trkpt lat="45.8634" lon="4.80435">
        <ele>386</ele>
        <time>2014-05-01T14:36:38.678Z</time>
      </trkpt>
      <trkpt lat="45.86339" lon="4.80429">
        <ele>387</ele>
        <time>2014-05-01T14:36:43.679Z</time>
      </trkpt>
      <trkpt lat="45.8634" lon="4.80411">
        <ele>387</ele>
        <time>2014-05-01T14:36:48.686Z</time>
      </trkpt>
      <trkpt lat="45.86334" lon="4.80399">
        <ele>390</ele>
        <time>2014-05-01T14:36:54.679Z</time>
      </trkpt>
      <trkpt lat="45.86335" lon="4.80376">
        <ele>393</ele>
        <time>2014-05-01T14:36:58.678Z</time>
      </trkpt>
      <trkpt lat="45.86333" lon="4.80355">
        <ele>396</ele>
        <time>2014-05-01T14:37:03.679Z</time>
      </trkpt>
      <trkpt lat="45.86326" lon="4.80334">
        <ele>398</ele>
        <time>2014-05-01T14:37:09.678Z</time>
      </trkpt>
      <trkpt lat="45.86318" lon="4.80321">
        <ele>403</ele>
        <time>2014-05-01T14:37:15.678Z</time>
      </trkpt>
      <trkpt lat="45.86315" lon="4.80303">
        <ele>405</ele>
        <time>2014-05-01T14:37:20.689Z</time>
      </trkpt>
      <trkpt lat="45.86312" lon="4.80292">
        <ele>406</ele>
        <time>2014-05-01T14:37:26.678Z</time>
      </trkpt>
      <trkpt lat="45.86304" lon="4.80289">
        <ele>405</ele>
        <time>2014-05-01T14:37:31.678Z</time>
      </trkpt>
      <trkpt lat="45.86301" lon="4.80278">
        <ele>405</ele>
        <time>2014-05-01T14:37:36.69Z</time>
      </trkpt>
      <trkpt lat="45.86293" lon="4.80273">
        <ele>406</ele>
        <time>2014-05-01T14:37:42.678Z</time>
      </trkpt>
      <trkpt lat="45.86292" lon="4.80255">
        <ele>409</ele>
        <time>2014-05-01T14:37:47.678Z</time>
      </trkpt>
      <trkpt lat="45.86289" lon="4.80229">
        <ele>414</ele>
        <time>2014-05-01T14:37:53.678Z</time>
      </trkpt>
      <trkpt lat="45.86285" lon="4.80214">
        <ele>416</ele>
        <time>2014-05-01T14:37:58.724Z</time>
      </trkpt>
      <trkpt lat="45.86271" lon="4.80211">
        <ele>418</ele>
        <time>2014-05-01T14:38:04.678Z</time>
      </trkpt>
      <trkpt lat="45.86258" lon="4.8021">
        <ele>419</ele>
        <time>2014-05-01T14:38:09.678Z</time>
      </trkpt>
      <trkpt lat="45.86254" lon="4.80201">
        <ele>420</ele>
        <time>2014-05-01T14:38:14.678Z</time>
      </trkpt>
      <trkpt lat="45.86254" lon="4.80187">
        <ele>420</ele>
        <time>2014-05-01T14:38:20.678Z</time>
      </trkpt>
      <trkpt lat="45.86251" lon="4.80177">
        <ele>420</ele>
        <time>2014-05-01T14:38:25.679Z</time>
      </trkpt>
      <trkpt lat="45.86246" lon="4.80168">
        <ele>421</ele>
        <time>2014-05-01T14:38:31.719Z</time>
      </trkpt>
      <trkpt lat="45.86239" lon="4.80154">
        <ele>423</ele>
        <time>2014-05-01T14:38:37.675Z</time>
      </trkpt>
      <trkpt lat="45.86244" lon="4.80145">
        <ele>425</ele>
        <time>2014-05-01T14:38:43.054Z</time>
      </trkpt>
      <trkpt lat="45.86244" lon="4.80145">
        <ele>425</ele>
        <time>2014-05-01T14:38:49.034Z</time>
      </trkpt>
      <trkpt lat="45.86244" lon="4.80145">
        <ele>425</ele>
        <time>2014-05-01T14:38:54.153Z</time>
      </trkpt>
      <trkpt lat="45.86244" lon="4.80145">
        <ele>425</ele>
        <time>2014-05-01T14:38:59.279Z</time>
      </trkpt>
      <trkpt lat="45.86244" lon="4.80145">
        <ele>425</ele>
        <time>2014-05-01T14:39:05.29Z</time>
      </trkpt>
      <trkpt lat="45.86244" lon="4.80145">
        <ele>425</ele>
        <time>2014-05-01T14:39:10.86Z</time>
      </trkpt>
      <trkpt lat="45.86241" lon="4.80059">
        <ele>442</ele>
        <time>2014-05-01T14:39:17.241Z</time>
      </trkpt>
      <trkpt lat="45.86236" lon="4.8005">
        <ele>437</ele>
        <time>2014-05-01T14:39:22.241Z</time>
      </trkpt>
      <trkpt lat="45.86237" lon="4.80037">
        <ele>439</ele>
        <time>2014-05-01T14:39:27.253Z</time>
      </trkpt>
      <trkpt lat="45.86235" lon="4.80026">
        <ele>437</ele>
        <time>2014-05-01T14:39:33.24Z</time>
      </trkpt>
      <trkpt lat="45.86235" lon="4.80023">
        <ele>437</ele>
        <time>2014-05-01T14:39:38.25Z</time>
      </trkpt>
      <trkpt lat="45.86234" lon="4.80007">
        <ele>439</ele>
        <time>2014-05-01T14:39:44.283Z</time>
      </trkpt>
      <trkpt lat="45.86232" lon="4.79987">
        <ele>441</ele>
        <time>2014-05-01T14:39:50.24Z</time>
      </trkpt>
      <trkpt lat="45.8622" lon="4.79989">
        <ele>440</ele>
        <time>2014-05-01T14:39:55.24Z</time>
      </trkpt>
      <trkpt lat="45.86214" lon="4.79985">
        <ele>440</ele>
        <time>2014-05-01T14:40:00.24Z</time>
      </trkpt>
      <trkpt lat="45.86215" lon="4.79973">
        <ele>440</ele>
        <time>2014-05-01T14:40:05.24Z</time>
      </trkpt>
      <trkpt lat="45.86209" lon="4.79968">
        <ele>444</ele>
        <time>2014-05-01T14:40:10.24Z</time>
      </trkpt>
      <trkpt lat="45.8621" lon="4.79953">
        <ele>448</ele>
        <time>2014-05-01T14:40:15.24Z</time>
      </trkpt>
      <trkpt lat="45.86219" lon="4.79936">
        <ele>450</ele>
        <time>2014-05-01T14:40:20.24Z</time>
      </trkpt>
      <trkpt lat="45.86229" lon="4.79922">
        <ele>450</ele>
        <time>2014-05-01T14:40:24.24Z</time>
      </trkpt>
      <trkpt lat="45.86242" lon="4.79917">
        <ele>450</ele>
        <time>2014-05-01T14:40:28.24Z</time>
      </trkpt>
      <trkpt lat="45.86252" lon="4.79909">
        <ele>451</ele>
        <time>2014-05-01T14:40:33.24Z</time>
      </trkpt>
      <trkpt lat="45.86263" lon="4.79906">
        <ele>452</ele>
        <time>2014-05-01T14:40:38.24Z</time>
      </trkpt>
      <trkpt lat="45.86274" lon="4.79899">
        <ele>451</ele>
        <time>2014-05-01T14:40:43.245Z</time>
      </trkpt>
      <trkpt lat="45.86286" lon="4.79886">
        <ele>451</ele>
        <time>2014-05-01T14:40:48.283Z</time>
      </trkpt>
      <trkpt lat="45.86304" lon="4.79869">
        <ele>451</ele>
        <time>2014-05-01T14:40:54.24Z</time>
      </trkpt>
      <trkpt lat="45.8632" lon="4.79863">
        <ele>451</ele>
        <time>2014-05-01T14:40:59.24Z</time>
      </trkpt>
      <trkpt lat="45.86337" lon="4.7986">
        <ele>448</ele>
        <time>2014-05-01T14:41:04.24Z</time>
      </trkpt>
      <trkpt lat="45.86352" lon="4.79856">
        <ele>448</ele>
        <time>2014-05-01T14:41:09.24Z</time>
      </trkpt>
      <trkpt lat="45.86366" lon="4.79859">
        <ele>446</ele>
        <time>2014-05-01T14:41:14.24Z</time>
      </trkpt>
      <trkpt lat="45.86379" lon="4.79858">
        <ele>445</ele>
        <time>2014-05-01T14:41:19.244Z</time>
      </trkpt>
      <trkpt lat="45.86393" lon="4.79862">
        <ele>446</ele>
        <time>2014-05-01T14:41:24.253Z</time>
      </trkpt>
      <trkpt lat="45.86408" lon="4.79866">
        <ele>445</ele>
        <time>2014-05-01T14:41:30.241Z</time>
      </trkpt>
      <trkpt lat="45.86421" lon="4.79873">
        <ele>445</ele>
        <time>2014-05-01T14:41:35.249Z</time>
      </trkpt>
      <trkpt lat="45.86436" lon="4.79882">
        <ele>445</ele>
        <time>2014-05-01T14:41:41.241Z</time>
      </trkpt>
      <trkpt lat="45.8645" lon="4.79887">
        <ele>444</ele>
        <time>2014-05-01T14:41:46.241Z</time>
      </trkpt>
      <trkpt lat="45.86464" lon="4.7989">
        <ele>445</ele>
        <time>2014-05-01T14:41:51.241Z</time>
      </trkpt>
      <trkpt lat="45.86475" lon="4.79899">
        <ele>447</ele>
        <time>2014-05-01T14:41:56.241Z</time>
      </trkpt>
      <trkpt lat="45.86486" lon="4.79904">
        <ele>447</ele>
        <time>2014-05-01T14:42:01.243Z</time>
      </trkpt>
      <trkpt lat="45.86502" lon="4.79907">
        <ele>449</ele>
        <time>2014-05-01T14:42:07.268Z</time>
      </trkpt>
      <trkpt lat="45.86518" lon="4.79913">
        <ele>451</ele>
        <time>2014-05-01T14:42:13.244Z</time>
      </trkpt>
      <trkpt lat="45.8653" lon="4.79912">
        <ele>453</ele>
        <time>2014-05-01T14:42:19.241Z</time>
      </trkpt>
      <trkpt lat="45.86545" lon="4.79912">
        <ele>454</ele>
        <time>2014-05-01T14:42:24.244Z</time>
      </trkpt>
      <trkpt lat="45.8656" lon="4.79911">
        <ele>457</ele>
        <time>2014-05-01T14:42:30.241Z</time>
      </trkpt>
      <trkpt lat="45.86575" lon="4.79907">
        <ele>456</ele>
        <time>2014-05-01T14:42:35.241Z</time>
      </trkpt>
      <trkpt lat="45.86587" lon="4.799">
        <ele>456</ele>
        <time>2014-05-01T14:42:40.288Z</time>
      </trkpt>
      <trkpt lat="45.86597" lon="4.79891">
        <ele>456</ele>
        <time>2014-05-01T14:42:46.245Z</time>
      </trkpt>
      <trkpt lat="45.86609" lon="4.79883">
        <ele>457</ele>
        <time>2014-05-01T14:42:51.249Z</time>
      </trkpt>
      <trkpt lat="45.86617" lon="4.79875">
        <ele>458</ele>
        <time>2014-05-01T14:42:57.241Z</time>
      </trkpt>
      <trkpt lat="45.86624" lon="4.79864">
        <ele>460</ele>
        <time>2014-05-01T14:43:02.243Z</time>
      </trkpt>
      <trkpt lat="45.86629" lon="4.79853">
        <ele>461</ele>
        <time>2014-05-01T14:43:07.25Z</time>
      </trkpt>
      <trkpt lat="45.86632" lon="4.7985">
        <ele>461</ele>
        <time>2014-05-01T14:43:13.245Z</time>
      </trkpt>
      <trkpt lat="45.86632" lon="4.79848">
        <ele>461</ele>
        <time>2014-05-01T14:43:18.245Z</time>
      </trkpt>
      <trkpt lat="45.86632" lon="4.79848">
        <ele>461</ele>
        <time>2014-05-01T14:43:23.255Z</time>
      </trkpt>
      <trkpt lat="45.86643" lon="4.79814">
        <ele>460</ele>
        <time>2014-05-01T14:43:29.245Z</time>
      </trkpt>
      <trkpt lat="45.86663" lon="4.7976">
        <ele>460</ele>
        <time>2014-05-01T14:43:35.241Z</time>
      </trkpt>
      <trkpt lat="45.86676" lon="4.79714">
        <ele>460</ele>
        <time>2014-05-01T14:43:41.24Z</time>
      </trkpt>
      <trkpt lat="45.86669" lon="4.79693">
        <ele>458</ele>
        <time>2014-05-01T14:43:46.24Z</time>
      </trkpt>
      <trkpt lat="45.86667" lon="4.79667">
        <ele>461</ele>
        <time>2014-05-01T14:43:51.24Z</time>
      </trkpt>
      <trkpt lat="45.86662" lon="4.79654">
        <ele>460</ele>
        <time>2014-05-01T14:43:56.24Z</time>
      </trkpt>
      <trkpt lat="45.86656" lon="4.79644">
        <ele>461</ele>
        <time>2014-05-01T14:44:01.24Z</time>
      </trkpt>
      <trkpt lat="45.86649" lon="4.79637">
        <ele>462</ele>
        <time>2014-05-01T14:44:06.24Z</time>
      </trkpt>
      <trkpt lat="45.86634" lon="4.79632">
        <ele>461</ele>
        <time>2014-05-01T14:44:11.245Z</time>
      </trkpt>
      <trkpt lat="45.86631" lon="4.79621">
        <ele>463</ele>
        <time>2014-05-01T14:44:17.24Z</time>
      </trkpt>
      <trkpt lat="45.86627" lon="4.79612">
        <ele>465</ele>
        <time>2014-05-01T14:44:22.24Z</time>
      </trkpt>
      <trkpt lat="45.8662" lon="4.79607">
        <ele>467</ele>
        <time>2014-05-01T14:44:27.28Z</time>
      </trkpt>
      <trkpt lat="45.86624" lon="4.79588">
        <ele>470</ele>
        <time>2014-05-01T14:44:31.24Z</time>
      </trkpt>
      <trkpt lat="45.86612" lon="4.79578">
        <ele>471</ele>
        <time>2014-05-01T14:44:36.263Z</time>
      </trkpt>
      <trkpt lat="45.86606" lon="4.79566">
        <ele>470</ele>
        <time>2014-05-01T14:44:42.24Z</time>
      </trkpt>
      <trkpt lat="45.86601" lon="4.79558">
        <ele>472</ele>
        <time>2014-05-01T14:44:47.241Z</time>
      </trkpt>
      <trkpt lat="45.86589" lon="4.79558">
        <ele>472</ele>
        <time>2014-05-01T14:44:52.268Z</time>
      </trkpt>
      <trkpt lat="45.86576" lon="4.79546">
        <ele>473</ele>
        <time>2014-05-01T14:44:58.241Z</time>
      </trkpt>
      <trkpt lat="45.86572" lon="4.79531">
        <ele>473</ele>
        <time>2014-05-01T14:45:03.241Z</time>
      </trkpt>
      <trkpt lat="45.86561" lon="4.79522">
        <ele>475</ele>
        <time>2014-05-01T14:45:08.265Z</time>
      </trkpt>
      <trkpt lat="45.86555" lon="4.7951">
        <ele>476</ele>
        <time>2014-05-01T14:45:14.241Z</time>
      </trkpt>
      <trkpt lat="45.86547" lon="4.79493">
        <ele>476</ele>
        <time>2014-05-01T14:45:20.24Z</time>
      </trkpt>
      <trkpt lat="45.86542" lon="4.79482">
        <ele>479</ele>
        <time>2014-05-01T14:45:26.451Z</time>
      </trkpt>
      <trkpt lat="45.86527" lon="4.79482">
        <ele>480</ele>
        <time>2014-05-01T14:45:29.446Z</time>
      </trkpt>
      <trkpt lat="45.86522" lon="4.79461">
        <ele>479</ele>
        <time>2014-05-01T14:45:33.448Z</time>
      </trkpt>
      <trkpt lat="45.86516" lon="4.79455">
        <ele>481</ele>
        <time>2014-05-01T14:45:38.449Z</time>
      </trkpt>
      <trkpt lat="45.86507" lon="4.79438">
        <ele>479</ele>
        <time>2014-05-01T14:45:43.453Z</time>
      </trkpt>
      <trkpt lat="45.86502" lon="4.79424">
        <ele>480</ele>
        <time>2014-05-01T14:45:48.454Z</time>
      </trkpt>
      <trkpt lat="45.865" lon="4.79413">
        <ele>482</ele>
        <time>2014-05-01T14:45:54.451Z</time>
      </trkpt>
      <trkpt lat="45.86488" lon="4.79411">
        <ele>484</ele>
        <time>2014-05-01T14:45:59.451Z</time>
      </trkpt>
      <trkpt lat="45.86472" lon="4.79408">
        <ele>485</ele>
        <time>2014-05-01T14:46:03.45Z</time>
      </trkpt>
      <trkpt lat="45.86458" lon="4.79401">
        <ele>488</ele>
        <time>2014-05-01T14:46:08.45Z</time>
      </trkpt>
      <trkpt lat="45.8645" lon="4.79391">
        <ele>491</ele>
        <time>2014-05-01T14:46:13.451Z</time>
      </trkpt>
      <trkpt lat="45.8644" lon="4.79382">
        <ele>491</ele>
        <time>2014-05-01T14:46:19.45Z</time>
      </trkpt>
      <trkpt lat="45.86419" lon="4.79378">
        <ele>490</ele>
        <time>2014-05-01T14:46:24.45Z</time>
      </trkpt>
      <trkpt lat="45.8641" lon="4.79365">
        <ele>491</ele>
        <time>2014-05-01T14:46:29.45Z</time>
      </trkpt>
      <trkpt lat="45.86406" lon="4.79348">
        <ele>491</ele>
        <time>2014-05-01T14:46:34.454Z</time>
      </trkpt>
      <trkpt lat="45.86402" lon="4.7933">
        <ele>492</ele>
        <time>2014-05-01T14:46:40.451Z</time>
      </trkpt>
      <trkpt lat="45.86394" lon="4.79317">
        <ele>493</ele>
        <time>2014-05-01T14:46:46.45Z</time>
      </trkpt>
      <trkpt lat="45.86388" lon="4.79308">
        <ele>496</ele>
        <time>2014-05-01T14:46:51.45Z</time>
      </trkpt>
      <trkpt lat="45.86381" lon="4.79297">
        <ele>498</ele>
        <time>2014-05-01T14:46:56.45Z</time>
      </trkpt>
      <trkpt lat="45.86375" lon="4.79285">
        <ele>500</ele>
        <time>2014-05-01T14:47:01.45Z</time>
      </trkpt>
      <trkpt lat="45.86367" lon="4.79276">
        <ele>502</ele>
        <time>2014-05-01T14:47:06.45Z</time>
      </trkpt>
      <trkpt lat="45.86359" lon="4.79268">
        <ele>505</ele>
        <time>2014-05-01T14:47:11.45Z</time>
      </trkpt>
      <trkpt lat="45.86352" lon="4.79264">
        <ele>506</ele>
        <time>2014-05-01T14:47:16.451Z</time>
      </trkpt>
      <trkpt lat="45.8634" lon="4.79248">
        <ele>509</ele>
        <time>2014-05-01T14:47:22.451Z</time>
      </trkpt>
      <trkpt lat="45.86323" lon="4.79238">
        <ele>510</ele>
        <time>2014-05-01T14:47:28.45Z</time>
      </trkpt>
      <trkpt lat="45.86313" lon="4.79224">
        <ele>513</ele>
        <time>2014-05-01T14:47:33.45Z</time>
      </trkpt>
      <trkpt lat="45.86304" lon="4.79209">
        <ele>513</ele>
        <time>2014-05-01T14:47:38.453Z</time>
      </trkpt>
      <trkpt lat="45.8629" lon="4.79198">
        <ele>516</ele>
        <time>2014-05-01T14:47:44.454Z</time>
      </trkpt>
      <trkpt lat="45.86283" lon="4.79179">
        <ele>517</ele>
        <time>2014-05-01T14:47:50.455Z</time>
      </trkpt>
      <trkpt lat="45.86268" lon="4.79171">
        <ele>518</ele>
        <time>2014-05-01T14:47:56.449Z</time>
      </trkpt>
      <trkpt lat="45.86259" lon="4.79164">
        <ele>520</ele>
        <time>2014-05-01T14:48:01.45Z</time>
      </trkpt>
      <trkpt lat="45.86247" lon="4.79154">
        <ele>520</ele>
        <time>2014-05-01T14:48:06.456Z</time>
      </trkpt>
      <trkpt lat="45.86245" lon="4.79134">
        <ele>521</ele>
        <time>2014-05-01T14:48:10.45Z</time>
      </trkpt>
      <trkpt lat="45.86235" lon="4.79117">
        <ele>522</ele>
        <time>2014-05-01T14:48:16.45Z</time>
      </trkpt>
      <trkpt lat="45.86221" lon="4.79106">
        <ele>520</ele>
        <time>2014-05-01T14:48:22.455Z</time>
      </trkpt>
      <trkpt lat="45.8621" lon="4.79095">
        <ele>520</ele>
        <time>2014-05-01T14:48:28.45Z</time>
      </trkpt>
      <trkpt lat="45.86195" lon="4.7909">
        <ele>520</ele>
        <time>2014-05-01T14:48:33.455Z</time>
      </trkpt>
      <trkpt lat="45.86188" lon="4.79072">
        <ele>522</ele>
        <time>2014-05-01T14:48:38.454Z</time>
      </trkpt>
      <trkpt lat="45.86176" lon="4.79056">
        <ele>523</ele>
        <time>2014-05-01T14:48:44.45Z</time>
      </trkpt>
      <trkpt lat="45.86167" lon="4.79046">
        <ele>523</ele>
        <time>2014-05-01T14:48:49.45Z</time>
      </trkpt>
      <trkpt lat="45.8616" lon="4.79037">
        <ele>525</ele>
        <time>2014-05-01T14:48:54.454Z</time>
      </trkpt>
      <trkpt lat="45.86146" lon="4.79019">
        <ele>524</ele>
        <time>2014-05-01T14:49:00.45Z</time>
      </trkpt>
      <trkpt lat="45.86148" lon="4.79001">
        <ele>526</ele>
        <time>2014-05-01T14:49:05.45Z</time>
      </trkpt>
      <trkpt lat="45.86136" lon="4.78992">
        <ele>526</ele>
        <time>2014-05-01T14:49:10.45Z</time>
      </trkpt>
      <trkpt lat="45.86122" lon="4.78978">
        <ele>525</ele>
        <time>2014-05-01T14:49:15.451Z</time>
      </trkpt>
      <trkpt lat="45.86122" lon="4.78955">
        <ele>525</ele>
        <time>2014-05-01T14:49:19.45Z</time>
      </trkpt>
      <trkpt lat="45.86107" lon="4.78952">
        <ele>526</ele>
        <time>2014-05-01T14:49:22.45Z</time>
      </trkpt>
      <trkpt lat="45.86096" lon="4.78942">
        <ele>527</ele>
        <time>2014-05-01T14:49:27.453Z</time>
      </trkpt>
      <trkpt lat="45.86085" lon="4.78922">
        <ele>526</ele>
        <time>2014-05-01T14:49:33.45Z</time>
      </trkpt>
      <trkpt lat="45.86079" lon="4.78902">
        <ele>527</ele>
        <time>2014-05-01T14:49:38.45Z</time>
      </trkpt>
      <trkpt lat="45.86074" lon="4.78901">
        <ele>527</ele>
        <time>2014-05-01T14:49:43.458Z</time>
      </trkpt>
      <trkpt lat="45.86052" lon="4.78891">
        <ele>528</ele>
        <time>2014-05-01T14:49:49.45Z</time>
      </trkpt>
      <trkpt lat="45.86044" lon="4.78877">
        <ele>527</ele>
        <time>2014-05-01T14:49:54.45Z</time>
      </trkpt>
      <trkpt lat="45.86034" lon="4.7887">
        <ele>528</ele>
        <time>2014-05-01T14:49:59.454Z</time>
      </trkpt>
      <trkpt lat="45.86028" lon="4.78856">
        <ele>528</ele>
        <time>2014-05-01T14:50:05.453Z</time>
      </trkpt>
      <trkpt lat="45.86011" lon="4.78846">
        <ele>526</ele>
        <time>2014-05-01T14:50:11.45Z</time>
      </trkpt>
      <trkpt lat="45.86007" lon="4.78843">
        <ele>526</ele>
        <time>2014-05-01T14:50:16.455Z</time>
      </trkpt>
      <trkpt lat="45.86" lon="4.78839">
        <ele>526</ele>
        <time>2014-05-01T14:50:21.455Z</time>
      </trkpt>
      <trkpt lat="45.86" lon="4.78839">
        <ele>525</ele>
        <time>2014-05-01T14:50:27.46Z</time>
      </trkpt>
      <trkpt lat="45.86" lon="4.78839">
        <ele>526</ele>
        <time>2014-05-01T14:50:33.458Z</time>
      </trkpt>
      <trkpt lat="45.86" lon="4.78838">
        <ele>526</ele>
        <time>2014-05-01T14:50:39.46Z</time>
      </trkpt>
      <trkpt lat="45.85993" lon="4.7883">
        <ele>524</ele>
        <time>2014-05-01T14:50:45.46Z</time>
      </trkpt>
      <trkpt lat="45.85984" lon="4.78824">
        <ele>521</ele>
        <time>2014-05-01T14:50:51.458Z</time>
      </trkpt>
      <trkpt lat="45.85971" lon="4.78817">
        <ele>520</ele>
        <time>2014-05-01T14:50:53.45Z</time>
      </trkpt>
      <trkpt lat="45.85939" lon="4.78808">
        <ele>525</ele>
        <time>2014-05-01T14:50:58.45Z</time>
      </trkpt>
      <trkpt lat="45.8592" lon="4.7881">
        <ele>524</ele>
        <time>2014-05-01T14:51:03.453Z</time>
      </trkpt>
      <trkpt lat="45.85915" lon="4.78812">
        <ele>522</ele>
        <time>2014-05-01T14:51:08.46Z</time>
      </trkpt>
      <trkpt lat="45.8589" lon="4.78822">
        <ele>520</ele>
        <time>2014-05-01T14:51:11.85Z</time>
      </trkpt>
      <trkpt lat="45.85866" lon="4.78819">
        <ele>528</ele>
        <time>2014-05-01T14:51:15.848Z</time>
      </trkpt>
      <trkpt lat="45.85841" lon="4.78801">
        <ele>535</ele>
        <time>2014-05-01T14:51:21.855Z</time>
      </trkpt>
      <trkpt lat="45.8583" lon="4.78798">
        <ele>537</ele>
        <time>2014-05-01T14:51:27.848Z</time>
      </trkpt>
      <trkpt lat="45.85819" lon="4.7881">
        <ele>537</ele>
        <time>2014-05-01T14:51:29.848Z</time>
      </trkpt>
      <trkpt lat="45.85807" lon="4.78825">
        <ele>534</ele>
        <time>2014-05-01T14:51:32.846Z</time>
      </trkpt>
      <trkpt lat="45.85802" lon="4.78837">
        <ele>533</ele>
        <time>2014-05-01T14:51:37.856Z</time>
      </trkpt>
      <trkpt lat="45.85795" lon="4.78854">
        <ele>531</ele>
        <time>2014-05-01T14:51:43.848Z</time>
      </trkpt>
      <trkpt lat="45.85797" lon="4.7887">
        <ele>529</ele>
        <time>2014-05-01T14:51:48.848Z</time>
      </trkpt>
      <trkpt lat="45.85787" lon="4.78877">
        <ele>531</ele>
        <time>2014-05-01T14:51:53.855Z</time>
      </trkpt>
      <trkpt lat="45.85774" lon="4.78874">
        <ele>532</ele>
        <time>2014-05-01T14:51:59.848Z</time>
      </trkpt>
      <trkpt lat="45.8577" lon="4.78862">
        <ele>532</ele>
        <time>2014-05-01T14:52:04.849Z</time>
      </trkpt>
      <trkpt lat="45.85763" lon="4.78855">
        <ele>534</ele>
        <time>2014-05-01T14:52:09.855Z</time>
      </trkpt>
      <trkpt lat="45.85752" lon="4.78844">
        <ele>536</ele>
        <time>2014-05-01T14:52:15.848Z</time>
      </trkpt>
      <trkpt lat="45.85748" lon="4.78842">
        <ele>537</ele>
        <time>2014-05-01T14:52:20.851Z</time>
      </trkpt>
      <trkpt lat="45.85746" lon="4.7884">
        <ele>536</ele>
        <time>2014-05-01T14:52:25.86Z</time>
      </trkpt>
      <trkpt lat="45.85745" lon="4.78837">
        <ele>536</ele>
        <time>2014-05-01T14:52:31.848Z</time>
      </trkpt>
      <trkpt lat="45.8574" lon="4.78831">
        <ele>537</ele>
        <time>2014-05-01T14:52:37.848Z</time>
      </trkpt>
      <trkpt lat="45.85732" lon="4.78823">
        <ele>538</ele>
        <time>2014-05-01T14:52:42.849Z</time>
      </trkpt>
      <trkpt lat="45.85722" lon="4.78812">
        <ele>541</ele>
        <time>2014-05-01T14:52:48.846Z</time>
      </trkpt>
      <trkpt lat="45.85712" lon="4.78802">
        <ele>544</ele>
        <time>2014-05-01T14:52:53.849Z</time>
      </trkpt>
      <trkpt lat="45.85704" lon="4.78793">
        <ele>543</ele>
        <time>2014-05-01T14:52:58.85Z</time>
      </trkpt>
      <trkpt lat="45.85698" lon="4.78777">
        <ele>544</ele>
        <time>2014-05-01T14:53:03.85Z</time>
      </trkpt>
      <trkpt lat="45.8569" lon="4.78763">
        <ele>544</ele>
        <time>2014-05-01T14:53:08.85Z</time>
      </trkpt>
      <trkpt lat="45.85681" lon="4.78757">
        <ele>548</ele>
        <time>2014-05-01T14:53:13.858Z</time>
      </trkpt>
      <trkpt lat="45.85669" lon="4.78745">
        <ele>551</ele>
        <time>2014-05-01T14:53:19.85Z</time>
      </trkpt>
      <trkpt lat="45.85659" lon="4.78735">
        <ele>553</ele>
        <time>2014-05-01T14:53:24.85Z</time>
      </trkpt>
      <trkpt lat="45.85649" lon="4.78725">
        <ele>555</ele>
        <time>2014-05-01T14:53:29.858Z</time>
      </trkpt>
      <trkpt lat="45.85639" lon="4.78713">
        <ele>557</ele>
        <time>2014-05-01T14:53:35.849Z</time>
      </trkpt>
      <trkpt lat="45.85631" lon="4.78705">
        <ele>559</ele>
        <time>2014-05-01T14:53:40.85Z</time>
      </trkpt>
      <trkpt lat="45.85623" lon="4.78695">
        <ele>562</ele>
        <time>2014-05-01T14:53:45.858Z</time>
      </trkpt>
      <trkpt lat="45.85611" lon="4.78688">
        <ele>564</ele>
        <time>2014-05-01T14:53:51.849Z</time>
      </trkpt>
      <trkpt lat="45.85601" lon="4.78676">
        <ele>565</ele>
        <time>2014-05-01T14:53:56.85Z</time>
      </trkpt>
      <trkpt lat="45.85591" lon="4.78666">
        <ele>566</ele>
        <time>2014-05-01T14:54:01.856Z</time>
      </trkpt>
      <trkpt lat="45.85579" lon="4.78655">
        <ele>565</ele>
        <time>2014-05-01T14:54:07.85Z</time>
      </trkpt>
      <trkpt lat="45.85568" lon="4.78641">
        <ele>566</ele>
        <time>2014-05-01T14:54:12.85Z</time>
      </trkpt>
      <trkpt lat="45.85557" lon="4.78624">
        <ele>566</ele>
        <time>2014-05-01T14:54:17.858Z</time>
      </trkpt>
      <trkpt lat="45.85544" lon="4.78612">
        <ele>569</ele>
        <time>2014-05-01T14:54:23.849Z</time>
      </trkpt>
      <trkpt lat="45.85529" lon="4.78599">
        <ele>569</ele>
        <time>2014-05-01T14:54:29.85Z</time>
      </trkpt>
      <trkpt lat="45.85515" lon="4.78587">
        <ele>569</ele>
        <time>2014-05-01T14:54:35.846Z</time>
      </trkpt>
      <trkpt lat="45.85503" lon="4.78572">
        <ele>567</ele>
        <time>2014-05-01T14:54:40.846Z</time>
      </trkpt>
      <trkpt lat="45.85486" lon="4.78555">
        <ele>565</ele>
        <time>2014-05-01T14:54:46.845Z</time>
      </trkpt>
      <trkpt lat="45.85479" lon="4.78544">
        <ele>565</ele>
        <time>2014-05-01T14:54:51.845Z</time>
      </trkpt>
      <trkpt lat="45.85468" lon="4.78528">
        <ele>562</ele>
        <time>2014-05-01T14:54:56.849Z</time>
      </trkpt>
      <trkpt lat="45.85454" lon="4.78516">
        <ele>563</ele>
        <time>2014-05-01T14:55:02.846Z</time>
      </trkpt>
      <trkpt lat="45.85443" lon="4.78505">
        <ele>563</ele>
        <time>2014-05-01T14:55:07.846Z</time>
      </trkpt>
      <trkpt lat="45.85428" lon="4.78492">
        <ele>563</ele>
        <time>2014-05-01T14:55:13.845Z</time>
      </trkpt>
      <trkpt lat="45.85425" lon="4.78471">
        <ele>560</ele>
        <time>2014-05-01T14:55:17.848Z</time>
      </trkpt>
      <trkpt lat="45.85417" lon="4.78458">
        <ele>559</ele>
        <time>2014-05-01T14:55:22.849Z</time>
      </trkpt>
      <trkpt lat="45.85409" lon="4.78444">
        <ele>560</ele>
        <time>2014-05-01T14:55:27.849Z</time>
      </trkpt>
      <trkpt lat="45.854" lon="4.78433">
        <ele>561</ele>
        <time>2014-05-01T14:55:32.849Z</time>
      </trkpt>
      <trkpt lat="45.85393" lon="4.78422">
        <ele>559</ele>
        <time>2014-05-01T14:55:37.856Z</time>
      </trkpt>
      <trkpt lat="45.85382" lon="4.78414">
        <ele>563</ele>
        <time>2014-05-01T14:55:43.849Z</time>
      </trkpt>
      <trkpt lat="45.85373" lon="4.7841">
        <ele>563</ele>
        <time>2014-05-01T14:55:48.849Z</time>
      </trkpt>
      <trkpt lat="45.85362" lon="4.78396">
        <ele>564</ele>
        <time>2014-05-01T14:55:53.855Z</time>
      </trkpt>
      <trkpt lat="45.8535" lon="4.78379">
        <ele>566</ele>
        <time>2014-05-01T14:55:59.846Z</time>
      </trkpt>
      <trkpt lat="45.85338" lon="4.78368">
        <ele>567</ele>
        <time>2014-05-01T14:56:04.846Z</time>
      </trkpt>
      <trkpt lat="45.85326" lon="4.78361">
        <ele>566</ele>
        <time>2014-05-01T14:56:09.855Z</time>
      </trkpt>
      <trkpt lat="45.85315" lon="4.78341">
        <ele>565</ele>
        <time>2014-05-01T14:56:15.846Z</time>
      </trkpt>
      <trkpt lat="45.85304" lon="4.78323">
        <ele>567</ele>
        <time>2014-05-01T14:56:21.845Z</time>
      </trkpt>
      <trkpt lat="45.85294" lon="4.78304">
        <ele>568</ele>
        <time>2014-05-01T14:56:26.848Z</time>
      </trkpt>
      <trkpt lat="45.85281" lon="4.78298">
        <ele>569</ele>
        <time>2014-05-01T14:56:32.846Z</time>
      </trkpt>
      <trkpt lat="45.85266" lon="4.7829">
        <ele>569</ele>
        <time>2014-05-01T14:56:37.848Z</time>
      </trkpt>
      <trkpt lat="45.85252" lon="4.78274">
        <ele>566</ele>
        <time>2014-05-01T14:56:43.845Z</time>
      </trkpt>
      <trkpt lat="45.85245" lon="4.78257">
        <ele>566</ele>
        <time>2014-05-01T14:56:47.848Z</time>
      </trkpt>
      <trkpt lat="45.85238" lon="4.78241">
        <ele>568</ele>
        <time>2014-05-01T14:56:53.848Z</time>
      </trkpt>
      <trkpt lat="45.85223" lon="4.78228">
        <ele>569</ele>
        <time>2014-05-01T14:56:59.846Z</time>
      </trkpt>
      <trkpt lat="45.85213" lon="4.78203">
        <ele>570</ele>
        <time>2014-05-01T14:57:04.846Z</time>
      </trkpt>
      <trkpt lat="45.85204" lon="4.78191">
        <ele>571</ele>
        <time>2014-05-01T14:57:09.846Z</time>
      </trkpt>
      <trkpt lat="45.8519" lon="4.78169">
        <ele>569</ele>
        <time>2014-05-01T14:57:14.846Z</time>
      </trkpt>
      <trkpt lat="45.85182" lon="4.78149">
        <ele>569</ele>
        <time>2014-05-01T14:57:19.846Z</time>
      </trkpt>
      <trkpt lat="45.85175" lon="4.78128">
        <ele>572</ele>
        <time>2014-05-01T14:57:24.85Z</time>
      </trkpt>
      <trkpt lat="45.85167" lon="4.7811">
        <ele>573</ele>
        <time>2014-05-01T14:57:29.855Z</time>
      </trkpt>
      <trkpt lat="45.85155" lon="4.78096">
        <ele>573</ele>
        <time>2014-05-01T14:57:35.846Z</time>
      </trkpt>
      <trkpt lat="45.8515" lon="4.78073">
        <ele>573</ele>
        <time>2014-05-01T14:57:40.846Z</time>
      </trkpt>
      <trkpt lat="45.85144" lon="4.78055">
        <ele>574</ele>
        <time>2014-05-01T14:57:45.856Z</time>
      </trkpt>
      <trkpt lat="45.85135" lon="4.7803">
        <ele>578</ele>
        <time>2014-05-01T14:57:51.846Z</time>
      </trkpt>
      <trkpt lat="45.85131" lon="4.78008">
        <ele>578</ele>
        <time>2014-05-01T14:57:57.846Z</time>
      </trkpt>
      <trkpt lat="45.8513" lon="4.77988">
        <ele>577</ele>
        <time>2014-05-01T14:58:01.85Z</time>
      </trkpt>
      <trkpt lat="45.85126" lon="4.77963">
        <ele>578</ele>
        <time>2014-05-01T14:58:07.846Z</time>
      </trkpt>
      <trkpt lat="45.85115" lon="4.77946">
        <ele>578</ele>
        <time>2014-05-01T14:58:12.848Z</time>
      </trkpt>
      <trkpt lat="45.8511" lon="4.77928">
        <ele>578</ele>
        <time>2014-05-01T14:58:17.855Z</time>
      </trkpt>
      <trkpt lat="45.85106" lon="4.77908">
        <ele>576</ele>
        <time>2014-05-01T14:58:21.846Z</time>
      </trkpt>
      <trkpt lat="45.85098" lon="4.77893">
        <ele>576</ele>
        <time>2014-05-01T14:58:26.846Z</time>
      </trkpt>
      <trkpt lat="45.85098" lon="4.77882">
        <ele>577</ele>
        <time>2014-05-01T14:58:31.849Z</time>
      </trkpt>
      <trkpt lat="45.85101" lon="4.77862">
        <ele>576</ele>
        <time>2014-05-01T14:58:37.848Z</time>
      </trkpt>
      <trkpt lat="45.85103" lon="4.77853">
        <ele>577</ele>
        <time>2014-05-01T14:58:43.71Z</time>
      </trkpt>
      <trkpt lat="45.85103" lon="4.77853">
        <ele>577</ele>
        <time>2014-05-01T14:58:49.838Z</time>
      </trkpt>
      <trkpt lat="45.85103" lon="4.77853">
        <ele>577</ele>
        <time>2014-05-01T14:58:54.966Z</time>
      </trkpt>
      <trkpt lat="45.85103" lon="4.77853">
        <ele>577</ele>
        <time>2014-05-01T14:59:00.015Z</time>
      </trkpt>
      <trkpt lat="45.85103" lon="4.77853">
        <ele>577</ele>
        <time>2014-05-01T14:59:05.205Z</time>
      </trkpt>
      <trkpt lat="45.85103" lon="4.77853">
        <ele>577</ele>
        <time>2014-05-01T14:59:10.98Z</time>
      </trkpt>
      <trkpt lat="45.84942" lon="4.77609">
        <ele>553</ele>
        <time>2014-05-01T14:59:58.94Z</time>
      </trkpt>
      <trkpt lat="45.84932" lon="4.77608">
        <ele>555</ele>
        <time>2014-05-01T15:00:03.94Z</time>
      </trkpt>
      <trkpt lat="45.84925" lon="4.77606">
        <ele>563</ele>
        <time>2014-05-01T15:00:08.94Z</time>
      </trkpt>
      <trkpt lat="45.84914" lon="4.77604">
        <ele>567</ele>
        <time>2014-05-01T15:00:13.94Z</time>
      </trkpt>
      <trkpt lat="45.84903" lon="4.77595">
        <ele>568</ele>
        <time>2014-05-01T15:00:18.94Z</time>
      </trkpt>
      <trkpt lat="45.84889" lon="4.77591">
        <ele>566</ele>
        <time>2014-05-01T15:00:23.94Z</time>
      </trkpt>
      <trkpt lat="45.84875" lon="4.77598">
        <ele>563</ele>
        <time>2014-05-01T15:00:29.944Z</time>
      </trkpt>
      <trkpt lat="45.84871" lon="4.77603">
        <ele>560</ele>
        <time>2014-05-01T15:00:34.945Z</time>
      </trkpt>
      <trkpt lat="45.84857" lon="4.77613">
        <ele>558</ele>
        <time>2014-05-01T15:00:40.945Z</time>
      </trkpt>
      <trkpt lat="45.84839" lon="4.7762">
        <ele>555</ele>
        <time>2014-05-01T15:00:45.946Z</time>
      </trkpt>
      <trkpt lat="45.84818" lon="4.77622">
        <ele>553</ele>
        <time>2014-05-01T15:00:50.95Z</time>
      </trkpt>
      <trkpt lat="45.84802" lon="4.77617">
        <ele>558</ele>
        <time>2014-05-01T15:00:56.943Z</time>
      </trkpt>
      <trkpt lat="45.84775" lon="4.77613">
        <ele>559</ele>
        <time>2014-05-01T15:01:01.943Z</time>
      </trkpt>
      <trkpt lat="45.8476" lon="4.77615">
        <ele>562</ele>
        <time>2014-05-01T15:01:03.941Z</time>
      </trkpt>
      <trkpt lat="45.84743" lon="4.7761">
        <ele>566</ele>
        <time>2014-05-01T15:01:07.946Z</time>
      </trkpt>
      <trkpt lat="45.8473" lon="4.77596">
        <ele>567</ele>
        <time>2014-05-01T15:01:11.946Z</time>
      </trkpt>
      <trkpt lat="45.84708" lon="4.77583">
        <ele>567</ele>
        <time>2014-05-01T15:01:17.945Z</time>
      </trkpt>
      <trkpt lat="45.84696" lon="4.77568">
        <ele>565</ele>
        <time>2014-05-01T15:01:22.949Z</time>
      </trkpt>
      <trkpt lat="45.84675" lon="4.77553">
        <ele>561</ele>
        <time>2014-05-01T15:01:27.949Z</time>
      </trkpt>
      <trkpt lat="45.84663" lon="4.77557">
        <ele>562</ele>
        <time>2014-05-01T15:01:32.95Z</time>
      </trkpt>
      <trkpt lat="45.84644" lon="4.77564">
        <ele>562</ele>
        <time>2014-05-01T15:01:38.95Z</time>
      </trkpt>
      <trkpt lat="45.8463" lon="4.77571">
        <ele>565</ele>
        <time>2014-05-01T15:01:43.953Z</time>
      </trkpt>
      <trkpt lat="45.84617" lon="4.77575">
        <ele>565</ele>
        <time>2014-05-01T15:01:49.953Z</time>
      </trkpt>
      <trkpt lat="45.84608" lon="4.77568">
        <ele>561</ele>
        <time>2014-05-01T15:01:54.954Z</time>
      </trkpt>
      <trkpt lat="45.84603" lon="4.77566">
        <ele>562</ele>
        <time>2014-05-01T15:02:00.943Z</time>
      </trkpt>
      <trkpt lat="45.84598" lon="4.77573">
        <ele>563</ele>
        <time>2014-05-01T15:02:06.94Z</time>
      </trkpt>
      <trkpt lat="45.84591" lon="4.77579">
        <ele>565</ele>
        <time>2014-05-01T15:02:11.943Z</time>
      </trkpt>
      <trkpt lat="45.84571" lon="4.77583">
        <ele>565</ele>
        <time>2014-05-01T15:02:17.944Z</time>
      </trkpt>
      <trkpt lat="45.84548" lon="4.77597">
        <ele>562</ele>
        <time>2014-05-01T15:02:22.941Z</time>
      </trkpt>
      <trkpt lat="45.8452" lon="4.77615">
        <ele>554</ele>
        <time>2014-05-01T15:02:27.944Z</time>
      </trkpt>
      <trkpt lat="45.84506" lon="4.77622">
        <ele>551</ele>
        <time>2014-05-01T15:02:31.943Z</time>
      </trkpt>
      <trkpt lat="45.84483" lon="4.77631">
        <ele>545</ele>
        <time>2014-05-01T15:02:37.943Z</time>
      </trkpt>
      <trkpt lat="45.8447" lon="4.77633">
        <ele>544</ele>
        <time>2014-05-01T15:02:42.951Z</time>
      </trkpt>
      <trkpt lat="45.84456" lon="4.77645">
        <ele>540</ele>
        <time>2014-05-01T15:02:48.943Z</time>
      </trkpt>
      <trkpt lat="45.84432" lon="4.77656">
        <ele>536</ele>
        <time>2014-05-01T15:02:54.941Z</time>
      </trkpt>
      <trkpt lat="45.8442" lon="4.77664">
        <ele>534</ele>
        <time>2014-05-01T15:02:59.945Z</time>
      </trkpt>
      <trkpt lat="45.84388" lon="4.77674">
        <ele>526</ele>
        <time>2014-05-01T15:03:05.944Z</time>
      </trkpt>
      <trkpt lat="45.84374" lon="4.77681">
        <ele>525</ele>
        <time>2014-05-01T15:03:11.94Z</time>
      </trkpt>
      <trkpt lat="45.84361" lon="4.77691">
        <ele>525</ele>
        <time>2014-05-01T15:03:16.941Z</time>
      </trkpt>
      <trkpt lat="45.84344" lon="4.77706">
        <ele>525</ele>
        <time>2014-05-01T15:03:22.944Z</time>
      </trkpt>
      <trkpt lat="45.84326" lon="4.77715">
        <ele>526</ele>
        <time>2014-05-01T15:03:26.941Z</time>
      </trkpt>
      <trkpt lat="45.84312" lon="4.77716">
        <ele>525</ele>
        <time>2014-05-01T15:03:28.94Z</time>
      </trkpt>
      <trkpt lat="45.84292" lon="4.77721">
        <ele>525</ele>
        <time>2014-05-01T15:03:33.94Z</time>
      </trkpt>
      <trkpt lat="45.84271" lon="4.77733">
        <ele>525</ele>
        <time>2014-05-01T15:03:38.944Z</time>
      </trkpt>
      <trkpt lat="45.84256" lon="4.77737">
        <ele>521</ele>
        <time>2014-05-01T15:03:41.94Z</time>
      </trkpt>
      <trkpt lat="45.84244" lon="4.77737">
        <ele>517</ele>
        <time>2014-05-01T15:03:46.945Z</time>
      </trkpt>
      <trkpt lat="45.84226" lon="4.77744">
        <ele>519</ele>
        <time>2014-05-01T15:03:52.943Z</time>
      </trkpt>
      <trkpt lat="45.84207" lon="4.77742">
        <ele>517</ele>
        <time>2014-05-01T15:03:58.943Z</time>
      </trkpt>
      <trkpt lat="45.84188" lon="4.77744">
        <ele>517</ele>
        <time>2014-05-01T15:04:04.941Z</time>
      </trkpt>
      <trkpt lat="45.8417" lon="4.77751">
        <ele>515</ele>
        <time>2014-05-01T15:04:10.941Z</time>
      </trkpt>
      <trkpt lat="45.8415" lon="4.77762">
        <ele>518</ele>
        <time>2014-05-01T15:04:15.943Z</time>
      </trkpt>
      <trkpt lat="45.84134" lon="4.77762">
        <ele>518</ele>
        <time>2014-05-01T15:04:21.941Z</time>
      </trkpt>
      <trkpt lat="45.84117" lon="4.77767">
        <ele>517</ele>
        <time>2014-05-01T15:04:25.941Z</time>
      </trkpt>
      <trkpt lat="45.84108" lon="4.77776">
        <ele>513</ele>
        <time>2014-05-01T15:04:30.941Z</time>
      </trkpt>
      <trkpt lat="45.84074" lon="4.7777">
        <ele>503</ele>
        <time>2014-05-01T15:04:35.945Z</time>
      </trkpt>
      <trkpt lat="45.8406" lon="4.77782">
        <ele>500</ele>
        <time>2014-05-01T15:04:40.94Z</time>
      </trkpt>
      <trkpt lat="45.8404" lon="4.77795">
        <ele>491</ele>
        <time>2014-05-01T15:04:45.94Z</time>
      </trkpt>
      <trkpt lat="45.84032" lon="4.77806">
        <ele>487</ele>
        <time>2014-05-01T15:04:50.94Z</time>
      </trkpt>
      <trkpt lat="45.84019" lon="4.77805">
        <ele>486</ele>
        <time>2014-05-01T15:04:55.94Z</time>
      </trkpt>
      <trkpt lat="45.84004" lon="4.77808">
        <ele>488</ele>
        <time>2014-05-01T15:05:00.94Z</time>
      </trkpt>
      <trkpt lat="45.83995" lon="4.77804">
        <ele>486</ele>
        <time>2014-05-01T15:05:05.94Z</time>
      </trkpt>
      <trkpt lat="45.83984" lon="4.77789">
        <ele>478</ele>
        <time>2014-05-01T15:05:10.94Z</time>
      </trkpt>
      <trkpt lat="45.83978" lon="4.77788">
        <ele>476</ele>
        <time>2014-05-01T15:05:15.951Z</time>
      </trkpt>
      <trkpt lat="45.83962" lon="4.77794">
        <ele>477</ele>
        <time>2014-05-01T15:05:18.941Z</time>
      </trkpt>
      <trkpt lat="45.83938" lon="4.77793">
        <ele>477</ele>
        <time>2014-05-01T15:05:23.95Z</time>
      </trkpt>
      <trkpt lat="45.83914" lon="4.778">
        <ele>478</ele>
        <time>2014-05-01T15:05:28.946Z</time>
      </trkpt>
      <trkpt lat="45.83909" lon="4.77796">
        <ele>478</ele>
        <time>2014-05-01T15:05:33.949Z</time>
      </trkpt>
      <trkpt lat="45.83881" lon="4.77804">
        <ele>478</ele>
        <time>2014-05-01T15:05:39.954Z</time>
      </trkpt>
      <trkpt lat="45.83867" lon="4.77797">
        <ele>478</ele>
        <time>2014-05-01T15:05:45.944Z</time>
      </trkpt>
      <trkpt lat="45.83858" lon="4.7778">
        <ele>476</ele>
        <time>2014-05-01T15:05:49.944Z</time>
      </trkpt>
      <trkpt lat="45.8384" lon="4.77772">
        <ele>475</ele>
        <time>2014-05-01T15:05:54.944Z</time>
      </trkpt>
      <trkpt lat="45.83826" lon="4.77749">
        <ele>469</ele>
        <time>2014-05-01T15:05:59.945Z</time>
      </trkpt>
      <trkpt lat="45.83817" lon="4.77725">
        <ele>465</ele>
        <time>2014-05-01T15:06:05.944Z</time>
      </trkpt>
      <trkpt lat="45.83812" lon="4.77697">
        <ele>462</ele>
        <time>2014-05-01T15:06:11.945Z</time>
      </trkpt>
      <trkpt lat="45.838" lon="4.77674">
        <ele>457</ele>
        <time>2014-05-01T15:06:16.948Z</time>
      </trkpt>
      <trkpt lat="45.838" lon="4.77652">
        <ele>455</ele>
        <time>2014-05-01T15:06:22.225Z</time>
      </trkpt>
      <trkpt lat="45.83794" lon="4.77626">
        <ele>451</ele>
        <time>2014-05-01T15:06:27.228Z</time>
      </trkpt>
      <trkpt lat="45.83786" lon="4.77602">
        <ele>448</ele>
        <time>2014-05-01T15:06:32.228Z</time>
      </trkpt>
      <trkpt lat="45.83772" lon="4.77576">
        <ele>446</ele>
        <time>2014-05-01T15:06:37.228Z</time>
      </trkpt>
      <trkpt lat="45.83768" lon="4.77553">
        <ele>442</ele>
        <time>2014-05-01T15:06:42.229Z</time>
      </trkpt>
      <trkpt lat="45.83769" lon="4.77526">
        <ele>438</ele>
        <time>2014-05-01T15:06:48.229Z</time>
      </trkpt>
      <trkpt lat="45.83769" lon="4.775">
        <ele>430</ele>
        <time>2014-05-01T15:06:54.226Z</time>
      </trkpt>
      <trkpt lat="45.83765" lon="4.77521">
        <ele>430</ele>
        <time>2014-05-01T15:06:59.255Z</time>
      </trkpt>
      <trkpt lat="45.83768" lon="4.77551">
        <ele>431</ele>
        <time>2014-05-01T15:07:05.228Z</time>
      </trkpt>
      <trkpt lat="45.83768" lon="4.77579">
        <ele>431</ele>
        <time>2014-05-01T15:07:11.226Z</time>
      </trkpt>
      <trkpt lat="45.83765" lon="4.77597">
        <ele>431</ele>
        <time>2014-05-01T15:07:16.231Z</time>
      </trkpt>
      <trkpt lat="45.83756" lon="4.77626">
        <ele>431</ele>
        <time>2014-05-01T15:07:22.225Z</time>
      </trkpt>
      <trkpt lat="45.83759" lon="4.7764">
        <ele>431</ele>
        <time>2014-05-01T15:07:27.226Z</time>
      </trkpt>
      <trkpt lat="45.83759" lon="4.77661">
        <ele>435</ele>
        <time>2014-05-01T15:07:32.226Z</time>
      </trkpt>
      <trkpt lat="45.8376" lon="4.77682">
        <ele>437</ele>
        <time>2014-05-01T15:07:37.228Z</time>
      </trkpt>
      <trkpt lat="45.83762" lon="4.77713">
        <ele>437</ele>
        <time>2014-05-01T15:07:43.226Z</time>
      </trkpt>
      <trkpt lat="45.83768" lon="4.77735">
        <ele>438</ele>
        <time>2014-05-01T15:07:48.228Z</time>
      </trkpt>
      <trkpt lat="45.83773" lon="4.77756">
        <ele>438</ele>
        <time>2014-05-01T15:07:54.231Z</time>
      </trkpt>
      <trkpt lat="45.83777" lon="4.77778">
        <ele>438</ele>
        <time>2014-05-01T15:08:00.226Z</time>
      </trkpt>
      <trkpt lat="45.83786" lon="4.77793">
        <ele>438</ele>
        <time>2014-05-01T15:08:06.225Z</time>
      </trkpt>
      <trkpt lat="45.83796" lon="4.77812">
        <ele>438</ele>
        <time>2014-05-01T15:08:11.225Z</time>
      </trkpt>
      <trkpt lat="45.83808" lon="4.77846">
        <ele>438</ele>
        <time>2014-05-01T15:08:16.225Z</time>
      </trkpt>
      <trkpt lat="45.83793" lon="4.77857">
        <ele>442</ele>
        <time>2014-05-01T15:08:20.225Z</time>
      </trkpt>
      <trkpt lat="45.83777" lon="4.77859">
        <ele>442</ele>
        <time>2014-05-01T15:08:24.225Z</time>
      </trkpt>
      <trkpt lat="45.83755" lon="4.77854">
        <ele>443</ele>
        <time>2014-05-01T15:08:30.224Z</time>
      </trkpt>
      <trkpt lat="45.83739" lon="4.77856">
        <ele>446</ele>
        <time>2014-05-01T15:08:35.254Z</time>
      </trkpt>
      <trkpt lat="45.83716" lon="4.77841">
        <ele>444</ele>
        <time>2014-05-01T15:08:41.226Z</time>
      </trkpt>
      <trkpt lat="45.83706" lon="4.77829">
        <ele>443</ele>
        <time>2014-05-01T15:08:47.225Z</time>
      </trkpt>
      <trkpt lat="45.83695" lon="4.77824">
        <ele>442</ele>
        <time>2014-05-01T15:08:52.226Z</time>
      </trkpt>
      <trkpt lat="45.83683" lon="4.77825">
        <ele>445</ele>
        <time>2014-05-01T15:08:57.226Z</time>
      </trkpt>
      <trkpt lat="45.83671" lon="4.77823">
        <ele>446</ele>
        <time>2014-05-01T15:09:03.226Z</time>
      </trkpt>
      <trkpt lat="45.83658" lon="4.77827">
        <ele>445</ele>
        <time>2014-05-01T15:09:08.225Z</time>
      </trkpt>
      <trkpt lat="45.83651" lon="4.77834">
        <ele>444</ele>
        <time>2014-05-01T15:09:13.225Z</time>
      </trkpt>
      <trkpt lat="45.83633" lon="4.77839">
        <ele>441</ele>
        <time>2014-05-01T15:09:18.226Z</time>
      </trkpt>
      <trkpt lat="45.83637" lon="4.77852">
        <ele>440</ele>
        <time>2014-05-01T15:09:23.25Z</time>
      </trkpt>
      <trkpt lat="45.83626" lon="4.77857">
        <ele>439</ele>
        <time>2014-05-01T15:09:29.226Z</time>
      </trkpt>
      <trkpt lat="45.83623" lon="4.77863">
        <ele>439</ele>
        <time>2014-05-01T15:09:34.23Z</time>
      </trkpt>
      <trkpt lat="45.83603" lon="4.77866">
        <ele>438</ele>
        <time>2014-05-01T15:09:39.255Z</time>
      </trkpt>
      <trkpt lat="45.83586" lon="4.77863">
        <ele>438</ele>
        <time>2014-05-01T15:09:41.226Z</time>
      </trkpt>
      <trkpt lat="45.83559" lon="4.77866">
        <ele>438</ele>
        <time>2014-05-01T15:09:46.268Z</time>
      </trkpt>
      <trkpt lat="45.83555" lon="4.77859">
        <ele>438</ele>
        <time>2014-05-01T15:09:52.226Z</time>
      </trkpt>
      <trkpt lat="45.83548" lon="4.77876">
        <ele>438</ele>
        <time>2014-05-01T15:09:58.225Z</time>
      </trkpt>
      <trkpt lat="45.83534" lon="4.77881">
        <ele>438</ele>
        <time>2014-05-01T15:10:02.231Z</time>
      </trkpt>
      <trkpt lat="45.8352" lon="4.7789">
        <ele>438</ele>
        <time>2014-05-01T15:10:08.225Z</time>
      </trkpt>
      <trkpt lat="45.83512" lon="4.77902">
        <ele>439</ele>
        <time>2014-05-01T15:10:13.228Z</time>
      </trkpt>
      <trkpt lat="45.83501" lon="4.77898">
        <ele>440</ele>
        <time>2014-05-01T15:10:18.268Z</time>
      </trkpt>
      <trkpt lat="45.83499" lon="4.7792">
        <ele>438</ele>
        <time>2014-05-01T15:10:24.228Z</time>
      </trkpt>
      <trkpt lat="45.83457" lon="4.77906">
        <ele>466</ele>
        <time>2014-05-01T15:10:28.226Z</time>
      </trkpt>
      <trkpt lat="45.83445" lon="4.77917">
        <ele>459</ele>
        <time>2014-05-01T15:10:30.23Z</time>
      </trkpt>
      <trkpt lat="45.83439" lon="4.77915">
        <ele>449</ele>
        <time>2014-05-01T15:10:35.23Z</time>
      </trkpt>
      <trkpt lat="45.83431" lon="4.77898">
        <ele>449</ele>
        <time>2014-05-01T15:10:40.228Z</time>
      </trkpt>
      <trkpt lat="45.83419" lon="4.77879">
        <ele>448</ele>
        <time>2014-05-01T15:10:45.229Z</time>
      </trkpt>
      <trkpt lat="45.83408" lon="4.77867">
        <ele>447</ele>
        <time>2014-05-01T15:10:46.229Z</time>
      </trkpt>
      <trkpt lat="45.83386" lon="4.77854">
        <ele>449</ele>
        <time>2014-05-01T15:10:51.226Z</time>
      </trkpt>
      <trkpt lat="45.83372" lon="4.77856">
        <ele>452</ele>
        <time>2014-05-01T15:10:55.229Z</time>
      </trkpt>
      <trkpt lat="45.83359" lon="4.77851">
        <ele>451</ele>
        <time>2014-05-01T15:11:00.23Z</time>
      </trkpt>
      <trkpt lat="45.83335" lon="4.77842">
        <ele>450</ele>
        <time>2014-05-01T15:11:05.228Z</time>
      </trkpt>
      <trkpt lat="45.83312" lon="4.77846">
        <ele>450</ele>
        <time>2014-05-01T15:11:10.228Z</time>
      </trkpt>
      <trkpt lat="45.83294" lon="4.77847">
        <ele>446</ele>
        <time>2014-05-01T15:11:15.256Z</time>
      </trkpt>
      <trkpt lat="45.83292" lon="4.77845">
        <ele>441</ele>
        <time>2014-05-01T15:11:21.23Z</time>
      </trkpt>
      <trkpt lat="45.83266" lon="4.77831">
        <ele>442</ele>
        <time>2014-05-01T15:11:27.228Z</time>
      </trkpt>
      <trkpt lat="45.83255" lon="4.77829">
        <ele>440</ele>
        <time>2014-05-01T15:11:32.231Z</time>
      </trkpt>
      <trkpt lat="45.83235" lon="4.77823">
        <ele>431</ele>
        <time>2014-05-01T15:11:38.235Z</time>
      </trkpt>
      <trkpt lat="45.83224" lon="4.77805">
        <ele>429</ele>
        <time>2014-05-01T15:11:42.23Z</time>
      </trkpt>
      <trkpt lat="45.83215" lon="4.77788">
        <ele>430</ele>
        <time>2014-05-01T15:11:47.255Z</time>
      </trkpt>
      <trkpt lat="45.83201" lon="4.77773">
        <ele>427</ele>
        <time>2014-05-01T15:11:52.229Z</time>
      </trkpt>
      <trkpt lat="45.83184" lon="4.77767">
        <ele>423</ele>
        <time>2014-05-01T15:11:57.229Z</time>
      </trkpt>
      <trkpt lat="45.83168" lon="4.77765">
        <ele>418</ele>
        <time>2014-05-01T15:12:02.23Z</time>
      </trkpt>
      <trkpt lat="45.83156" lon="4.77766">
        <ele>418</ele>
        <time>2014-05-01T15:12:07.231Z</time>
      </trkpt>
      <trkpt lat="45.83133" lon="4.77765">
        <ele>416</ele>
        <time>2014-05-01T15:12:13.23Z</time>
      </trkpt>
      <trkpt lat="45.83123" lon="4.77762">
        <ele>418</ele>
        <time>2014-05-01T15:12:19.26Z</time>
      </trkpt>
      <trkpt lat="45.83108" lon="4.77752">
        <ele>418</ele>
        <time>2014-05-01T15:12:24.231Z</time>
      </trkpt>
      <trkpt lat="45.83103" lon="4.77725">
        <ele>411</ele>
        <time>2014-05-01T15:12:30.23Z</time>
      </trkpt>
      <trkpt lat="45.83088" lon="4.77713">
        <ele>404</ele>
        <time>2014-05-01T15:12:33.226Z</time>
      </trkpt>
      <trkpt lat="45.83071" lon="4.77702">
        <ele>403</ele>
        <time>2014-05-01T15:12:38.226Z</time>
      </trkpt>
      <trkpt lat="45.8306" lon="4.77707">
        <ele>399</ele>
        <time>2014-05-01T15:12:43.231Z</time>
      </trkpt>
      <trkpt lat="45.83047" lon="4.77718">
        <ele>397</ele>
        <time>2014-05-01T15:12:48.23Z</time>
      </trkpt>
      <trkpt lat="45.83031" lon="4.77721">
        <ele>403</ele>
        <time>2014-05-01T15:12:53.231Z</time>
      </trkpt>
      <trkpt lat="45.83011" lon="4.77723">
        <ele>402</ele>
        <time>2014-05-01T15:12:58.245Z</time>
      </trkpt>
      <trkpt lat="45.82985" lon="4.77736">
        <ele>402</ele>
        <time>2014-05-01T15:13:04.23Z</time>
      </trkpt>
      <trkpt lat="45.8297" lon="4.77736">
        <ele>401</ele>
        <time>2014-05-01T15:13:09.228Z</time>
      </trkpt>
      <trkpt lat="45.82958" lon="4.77741">
        <ele>396</ele>
        <time>2014-05-01T15:13:14.229Z</time>
      </trkpt>
      <trkpt lat="45.82946" lon="4.7774">
        <ele>392</ele>
        <time>2014-05-01T15:13:19.23Z</time>
      </trkpt>
      <trkpt lat="45.82924" lon="4.77731">
        <ele>388</ele>
        <time>2014-05-01T15:13:24.23Z</time>
      </trkpt>
      <trkpt lat="45.8291" lon="4.77719">
        <ele>386</ele>
        <time>2014-05-01T15:13:28.231Z</time>
      </trkpt>
      <trkpt lat="45.82895" lon="4.77712">
        <ele>380</ele>
        <time>2014-05-01T15:13:33.231Z</time>
      </trkpt>
      <trkpt lat="45.82883" lon="4.77697">
        <ele>378</ele>
        <time>2014-05-01T15:13:38.229Z</time>
      </trkpt>
      <trkpt lat="45.82863" lon="4.77668">
        <ele>376</ele>
        <time>2014-05-01T15:13:43.228Z</time>
      </trkpt>
      <trkpt lat="45.82849" lon="4.77663">
        <ele>377</ele>
        <time>2014-05-01T15:13:46.226Z</time>
      </trkpt>
      <trkpt lat="45.82837" lon="4.77676">
        <ele>379</ele>
        <time>2014-05-01T15:13:49.225Z</time>
      </trkpt>
      <trkpt lat="45.82833" lon="4.77697">
        <ele>380</ele>
        <time>2014-05-01T15:13:52.226Z</time>
      </trkpt>
      <trkpt lat="45.82834" lon="4.77711">
        <ele>380</ele>
        <time>2014-05-01T15:13:57.23Z</time>
      </trkpt>
      <trkpt lat="45.82839" lon="4.77729">
        <ele>376</ele>
        <time>2014-05-01T15:14:02.23Z</time>
      </trkpt>
      <trkpt lat="45.82844" lon="4.77741">
        <ele>376</ele>
        <time>2014-05-01T15:14:07.23Z</time>
      </trkpt>
      <trkpt lat="45.82858" lon="4.77755">
        <ele>377</ele>
        <time>2014-05-01T15:14:11.23Z</time>
      </trkpt>
      <trkpt lat="45.82875" lon="4.77764">
        <ele>379</ele>
        <time>2014-05-01T15:14:16.23Z</time>
      </trkpt>
      <trkpt lat="45.82883" lon="4.77773">
        <ele>380</ele>
        <time>2014-05-01T15:14:21.24Z</time>
      </trkpt>
      <trkpt lat="45.82887" lon="4.77778">
        <ele>375</ele>
        <time>2014-05-01T15:14:27.23Z</time>
      </trkpt>
      <trkpt lat="45.82872" lon="4.7779">
        <ele>375</ele>
        <time>2014-05-01T15:14:31.23Z</time>
      </trkpt>
      <trkpt lat="45.8287" lon="4.77806">
        <ele>381</ele>
        <time>2014-05-01T15:14:36.23Z</time>
      </trkpt>
      <trkpt lat="45.82865" lon="4.77811">
        <ele>387</ele>
        <time>2014-05-01T15:14:41.23Z</time>
      </trkpt>
      <trkpt lat="45.82858" lon="4.77821">
        <ele>395</ele>
        <time>2014-05-01T15:14:46.23Z</time>
      </trkpt>
      <trkpt lat="45.82846" lon="4.77827">
        <ele>405</ele>
        <time>2014-05-01T15:14:52.228Z</time>
      </trkpt>
      <trkpt lat="45.82828" lon="4.77835">
        <ele>406</ele>
        <time>2014-05-01T15:14:57.23Z</time>
      </trkpt>
      <trkpt lat="45.82806" lon="4.77838">
        <ele>403</ele>
        <time>2014-05-01T15:15:02.23Z</time>
      </trkpt>
      <trkpt lat="45.82787" lon="4.77842">
        <ele>405</ele>
        <time>2014-05-01T15:15:08.23Z</time>
      </trkpt>
      <trkpt lat="45.82775" lon="4.77855">
        <ele>401</ele>
        <time>2014-05-01T15:15:13.226Z</time>
      </trkpt>
      <trkpt lat="45.82767" lon="4.77866">
        <ele>397</ele>
        <time>2014-05-01T15:15:18.23Z</time>
      </trkpt>
      <trkpt lat="45.8276" lon="4.77874">
        <ele>398</ele>
        <time>2014-05-01T15:15:23.23Z</time>
      </trkpt>
      <trkpt lat="45.8275" lon="4.77875">
        <ele>394</ele>
        <time>2014-05-01T15:15:28.235Z</time>
      </trkpt>
      <trkpt lat="45.82736" lon="4.77882">
        <ele>395</ele>
        <time>2014-05-01T15:15:32.228Z</time>
      </trkpt>
      <trkpt lat="45.82713" lon="4.77877">
        <ele>394</ele>
        <time>2014-05-01T15:15:37.228Z</time>
      </trkpt>
      <trkpt lat="45.82703" lon="4.77884">
        <ele>393</ele>
        <time>2014-05-01T15:15:42.23Z</time>
      </trkpt>
      <trkpt lat="45.82689" lon="4.77889">
        <ele>391</ele>
        <time>2014-05-01T15:15:48.265Z</time>
      </trkpt>
      <trkpt lat="45.82675" lon="4.7789">
        <ele>392</ele>
        <time>2014-05-01T15:15:52.225Z</time>
      </trkpt>
      <trkpt lat="45.82671" lon="4.77905">
        <ele>392</ele>
        <time>2014-05-01T15:15:57.226Z</time>
      </trkpt>
      <trkpt lat="45.82673" lon="4.77928">
        <ele>392</ele>
        <time>2014-05-01T15:16:02.225Z</time>
      </trkpt>
      <trkpt lat="45.82669" lon="4.77942">
        <ele>392</ele>
        <time>2014-05-01T15:16:07.226Z</time>
      </trkpt>
      <trkpt lat="45.82672" lon="4.77963">
        <ele>393</ele>
        <time>2014-05-01T15:16:12.226Z</time>
      </trkpt>
      <trkpt lat="45.82673" lon="4.77987">
        <ele>389</ele>
        <time>2014-05-01T15:16:18.226Z</time>
      </trkpt>
      <trkpt lat="45.82668" lon="4.7801">
        <ele>389</ele>
        <time>2014-05-01T15:16:23.226Z</time>
      </trkpt>
      <trkpt lat="45.82664" lon="4.78034">
        <ele>386</ele>
        <time>2014-05-01T15:16:28.226Z</time>
      </trkpt>
      <trkpt lat="45.82657" lon="4.78051">
        <ele>375</ele>
        <time>2014-05-01T15:16:32.228Z</time>
      </trkpt>
      <trkpt lat="45.82647" lon="4.78051">
        <ele>377</ele>
        <time>2014-05-01T15:16:37.23Z</time>
      </trkpt>
      <trkpt lat="45.82634" lon="4.78053">
        <ele>376</ele>
        <time>2014-05-01T15:16:42.23Z</time>
      </trkpt>
      <trkpt lat="45.82625" lon="4.78048">
        <ele>378</ele>
        <time>2014-05-01T15:16:47.231Z</time>
      </trkpt>
      <trkpt lat="45.82611" lon="4.78049">
        <ele>379</ele>
        <time>2014-05-01T15:16:51.228Z</time>
      </trkpt>
      <trkpt lat="45.82598" lon="4.78055">
        <ele>378</ele>
        <time>2014-05-01T15:16:55.226Z</time>
      </trkpt>
      <trkpt lat="45.82594" lon="4.7808">
        <ele>375</ele>
        <time>2014-05-01T15:16:59.23Z</time>
      </trkpt>
      <trkpt lat="45.82591" lon="4.78097">
        <ele>373</ele>
        <time>2014-05-01T15:17:04.233Z</time>
      </trkpt>
      <trkpt lat="45.82598" lon="4.78116">
        <ele>372</ele>
        <time>2014-05-01T15:17:08.274Z</time>
      </trkpt>
      <trkpt lat="45.82618" lon="4.78145">
        <ele>368</ele>
        <time>2014-05-01T15:17:13.23Z</time>
      </trkpt>
      <trkpt lat="45.8263" lon="4.78163">
        <ele>365</ele>
        <time>2014-05-01T15:17:18.23Z</time>
      </trkpt>
      <trkpt lat="45.82639" lon="4.78181">
        <ele>364</ele>
        <time>2014-05-01T15:17:23.231Z</time>
      </trkpt>
      <trkpt lat="45.82656" lon="4.78199">
        <ele>363</ele>
        <time>2014-05-01T15:17:28.235Z</time>
      </trkpt>
      <trkpt lat="45.82667" lon="4.78213">
        <ele>363</ele>
        <time>2014-05-01T15:17:33.243Z</time>
      </trkpt>
      <trkpt lat="45.82682" lon="4.78228">
        <ele>363</ele>
        <time>2014-05-01T15:17:39.229Z</time>
      </trkpt>
      <trkpt lat="45.82694" lon="4.78239">
        <ele>364</ele>
        <time>2014-05-01T15:17:45.228Z</time>
      </trkpt>
      <trkpt lat="45.82705" lon="4.78249">
        <ele>365</ele>
        <time>2014-05-01T15:17:50.228Z</time>
      </trkpt>
      <trkpt lat="45.82705" lon="4.78256">
        <ele>369</ele>
        <time>2014-05-01T15:17:55.229Z</time>
      </trkpt>
      <trkpt lat="45.82704" lon="4.78264">
        <ele>376</ele>
        <time>2014-05-01T15:18:01.229Z</time>
      </trkpt>
      <trkpt lat="45.82694" lon="4.78272">
        <ele>379</ele>
        <time>2014-05-01T15:18:06.229Z</time>
      </trkpt>
      <trkpt lat="45.82683" lon="4.78269">
        <ele>387</ele>
        <time>2014-05-01T15:18:12.27Z</time>
      </trkpt>
      <trkpt lat="45.82665" lon="4.78272">
        <ele>388</ele>
        <time>2014-05-01T15:18:18.228Z</time>
      </trkpt>
      <trkpt lat="45.8265" lon="4.78283">
        <ele>392</ele>
        <time>2014-05-01T15:18:23.228Z</time>
      </trkpt>
      <trkpt lat="45.82636" lon="4.78285">
        <ele>394</ele>
        <time>2014-05-01T15:18:28.25Z</time>
      </trkpt>
      <trkpt lat="45.82631" lon="4.78305">
        <ele>395</ele>
        <time>2014-05-01T15:18:34.226Z</time>
      </trkpt>
      <trkpt lat="45.82629" lon="4.7832">
        <ele>396</ele>
        <time>2014-05-01T15:18:39.226Z</time>
      </trkpt>
      <trkpt lat="45.82627" lon="4.78333">
        <ele>398</ele>
        <time>2014-05-01T15:18:44.269Z</time>
      </trkpt>
      <trkpt lat="45.82621" lon="4.78347">
        <ele>397</ele>
        <time>2014-05-01T15:18:50.228Z</time>
      </trkpt>
      <trkpt lat="45.82622" lon="4.78373">
        <ele>390</ele>
        <time>2014-05-01T15:18:55.228Z</time>
      </trkpt>
      <trkpt lat="45.82621" lon="4.78389">
        <ele>386</ele>
        <time>2014-05-01T15:19:00.275Z</time>
      </trkpt>
      <trkpt lat="45.82622" lon="4.78408">
        <ele>386</ele>
        <time>2014-05-01T15:19:06.234Z</time>
      </trkpt>
      <trkpt lat="45.82622" lon="4.78434">
        <ele>388</ele>
        <time>2014-05-01T15:19:12.23Z</time>
      </trkpt>
      <trkpt lat="45.82628" lon="4.78454">
        <ele>386</ele>
        <time>2014-05-01T15:19:17.23Z</time>
      </trkpt>
      <trkpt lat="45.82634" lon="4.78468">
        <ele>386</ele>
        <time>2014-05-01T15:19:22.23Z</time>
      </trkpt>
      <trkpt lat="45.82639" lon="4.78486">
        <ele>389</ele>
        <time>2014-05-01T15:19:28.23Z</time>
      </trkpt>
      <trkpt lat="45.82651" lon="4.78504">
        <ele>389</ele>
        <time>2014-05-01T15:19:33.23Z</time>
      </trkpt>
      <trkpt lat="45.8267" lon="4.78537">
        <ele>393</ele>
        <time>2014-05-01T15:19:39.23Z</time>
      </trkpt>
      <trkpt lat="45.8268" lon="4.78554">
        <ele>393</ele>
        <time>2014-05-01T15:19:45.23Z</time>
      </trkpt>
      <trkpt lat="45.82694" lon="4.78585">
        <ele>396</ele>
        <time>2014-05-01T15:19:51.225Z</time>
      </trkpt>
      <trkpt lat="45.82699" lon="4.78607">
        <ele>399</ele>
        <time>2014-05-01T15:19:56.228Z</time>
      </trkpt>
      <trkpt lat="45.82703" lon="4.78626">
        <ele>398</ele>
        <time>2014-05-01T15:20:01.228Z</time>
      </trkpt>
      <trkpt lat="45.82706" lon="4.78635">
        <ele>397</ele>
        <time>2014-05-01T15:20:07.229Z</time>
      </trkpt>
      <trkpt lat="45.82705" lon="4.78654">
        <ele>399</ele>
        <time>2014-05-01T15:20:13.241Z</time>
      </trkpt>
      <trkpt lat="45.82703" lon="4.78666">
        <ele>398</ele>
        <time>2014-05-01T15:20:19.229Z</time>
      </trkpt>
      <trkpt lat="45.82702" lon="4.7868">
        <ele>399</ele>
        <time>2014-05-01T15:20:25.226Z</time>
      </trkpt>
      <trkpt lat="45.82692" lon="4.7869">
        <ele>401</ele>
        <time>2014-05-01T15:20:30.228Z</time>
      </trkpt>
      <trkpt lat="45.82684" lon="4.78706">
        <ele>404</ele>
        <time>2014-05-01T15:20:36.273Z</time>
      </trkpt>
      <trkpt lat="45.82673" lon="4.78727">
        <ele>394</ele>
        <time>2014-05-01T15:20:42.229Z</time>
      </trkpt>
      <trkpt lat="45.82682" lon="4.78729">
        <ele>396</ele>
        <time>2014-05-01T15:20:48.229Z</time>
      </trkpt>
      <trkpt lat="45.8269" lon="4.78727">
        <ele>400</ele>
        <time>2014-05-01T15:20:53.229Z</time>
      </trkpt>
      <trkpt lat="45.82702" lon="4.78721">
        <ele>401</ele>
        <time>2014-05-01T15:20:58.229Z</time>
      </trkpt>
      <trkpt lat="45.82709" lon="4.78708">
        <ele>401</ele>
        <time>2014-05-01T15:21:03.229Z</time>
      </trkpt>
      <trkpt lat="45.82716" lon="4.78692">
        <ele>404</ele>
        <time>2014-05-01T15:21:08.274Z</time>
      </trkpt>
      <trkpt lat="45.82728" lon="4.78688">
        <ele>407</ele>
        <time>2014-05-01T15:21:14.23Z</time>
      </trkpt>
      <trkpt lat="45.82737" lon="4.78685">
        <ele>410</ele>
        <time>2014-05-01T15:21:19.23Z</time>
      </trkpt>
      <trkpt lat="45.82753" lon="4.7868">
        <ele>411</ele>
        <time>2014-05-01T15:21:24.27Z</time>
      </trkpt>
      <trkpt lat="45.82771" lon="4.78678">
        <ele>412</ele>
        <time>2014-05-01T15:21:30.229Z</time>
      </trkpt>
      <trkpt lat="45.82782" lon="4.78677">
        <ele>412</ele>
        <time>2014-05-01T15:21:35.229Z</time>
      </trkpt>
      <trkpt lat="45.82791" lon="4.78666">
        <ele>412</ele>
        <time>2014-05-01T15:21:40.275Z</time>
      </trkpt>
      <trkpt lat="45.82802" lon="4.78656">
        <ele>409</ele>
        <time>2014-05-01T15:21:43.229Z</time>
      </trkpt>
      <trkpt lat="45.82814" lon="4.78638">
        <ele>405</ele>
        <time>2014-05-01T15:21:48.23Z</time>
      </trkpt>
      <trkpt lat="45.82821" lon="4.78617">
        <ele>404</ele>
        <time>2014-05-01T15:21:53.228Z</time>
      </trkpt>
      <trkpt lat="45.82827" lon="4.78609">
        <ele>401</ele>
        <time>2014-05-01T15:21:58.23Z</time>
      </trkpt>
      <trkpt lat="45.82822" lon="4.78597">
        <ele>404</ele>
        <time>2014-05-01T15:22:03.23Z</time>
      </trkpt>
      <trkpt lat="45.82812" lon="4.78582">
        <ele>408</ele>
        <time>2014-05-01T15:22:07.23Z</time>
      </trkpt>
      <trkpt lat="45.82803" lon="4.78557">
        <ele>408</ele>
        <time>2014-05-01T15:22:12.275Z</time>
      </trkpt>
      <trkpt lat="45.82793" lon="4.78541">
        <ele>408</ele>
        <time>2014-05-01T15:22:17.23Z</time>
      </trkpt>
      <trkpt lat="45.82793" lon="4.78522">
        <ele>407</ele>
        <time>2014-05-01T15:22:22.23Z</time>
      </trkpt>
      <trkpt lat="45.82795" lon="4.785">
        <ele>406</ele>
        <time>2014-05-01T15:22:27.23Z</time>
      </trkpt>
      <trkpt lat="45.828" lon="4.78482">
        <ele>403</ele>
        <time>2014-05-01T15:22:32.23Z</time>
      </trkpt>
      <trkpt lat="45.82807" lon="4.78473">
        <ele>402</ele>
        <time>2014-05-01T15:22:37.245Z</time>
      </trkpt>
      <trkpt lat="45.8282" lon="4.78466">
        <ele>403</ele>
        <time>2014-05-01T15:22:43.229Z</time>
      </trkpt>
      <trkpt lat="45.82824" lon="4.78464">
        <ele>403</ele>
        <time>2014-05-01T15:22:48.229Z</time>
      </trkpt>
      <trkpt lat="45.82831" lon="4.78467">
        <ele>403</ele>
        <time>2014-05-01T15:22:53.24Z</time>
      </trkpt>
      <trkpt lat="45.82835" lon="4.78474">
        <ele>402</ele>
        <time>2014-05-01T15:22:59.228Z</time>
      </trkpt>
      <trkpt lat="45.8284" lon="4.78476">
        <ele>403</ele>
        <time>2014-05-01T15:23:04.228Z</time>
      </trkpt>
      <trkpt lat="45.82846" lon="4.78483">
        <ele>406</ele>
        <time>2014-05-01T15:23:09.239Z</time>
      </trkpt>
      <trkpt lat="45.82858" lon="4.78488">
        <ele>407</ele>
        <time>2014-05-01T15:23:15.23Z</time>
      </trkpt>
      <trkpt lat="45.82867" lon="4.78495">
        <ele>408</ele>
        <time>2014-05-01T15:23:20.23Z</time>
      </trkpt>
      <trkpt lat="45.82875" lon="4.78507">
        <ele>409</ele>
        <time>2014-05-01T15:23:25.24Z</time>
      </trkpt>
      <trkpt lat="45.82886" lon="4.78513">
        <ele>411</ele>
        <time>2014-05-01T15:23:31.23Z</time>
      </trkpt>
      <trkpt lat="45.82896" lon="4.78511">
        <ele>414</ele>
        <time>2014-05-01T15:23:36.23Z</time>
      </trkpt>
      <trkpt lat="45.82905" lon="4.78511">
        <ele>415</ele>
        <time>2014-05-01T15:23:41.243Z</time>
      </trkpt>
      <trkpt lat="45.82916" lon="4.78509">
        <ele>416</ele>
        <time>2014-05-01T15:23:47.229Z</time>
      </trkpt>
      <trkpt lat="45.82923" lon="4.7851">
        <ele>416</ele>
        <time>2014-05-01T15:23:52.229Z</time>
      </trkpt>
      <trkpt lat="45.82928" lon="4.78514">
        <ele>416</ele>
        <time>2014-05-01T15:23:57.236Z</time>
      </trkpt>
      <trkpt lat="45.8293" lon="4.78531">
        <ele>419</ele>
        <time>2014-05-01T15:24:03.229Z</time>
      </trkpt>
      <trkpt lat="45.82937" lon="4.78538">
        <ele>420</ele>
        <time>2014-05-01T15:24:08.229Z</time>
      </trkpt>
      <trkpt lat="45.82947" lon="4.78539">
        <ele>420</ele>
        <time>2014-05-01T15:24:13.23Z</time>
      </trkpt>
      <trkpt lat="45.82955" lon="4.7854">
        <ele>420</ele>
        <time>2014-05-01T15:24:18.23Z</time>
      </trkpt>
      <trkpt lat="45.82964" lon="4.78539">
        <ele>420</ele>
        <time>2014-05-01T15:24:23.23Z</time>
      </trkpt>
      <trkpt lat="45.82976" lon="4.78536">
        <ele>421</ele>
        <time>2014-05-01T15:24:29.23Z</time>
      </trkpt>
      <trkpt lat="45.82985" lon="4.78535">
        <ele>422</ele>
        <time>2014-05-01T15:24:34.23Z</time>
      </trkpt>
      <trkpt lat="45.82992" lon="4.78533">
        <ele>427</ele>
        <time>2014-05-01T15:24:39.23Z</time>
      </trkpt>
      <trkpt lat="45.82999" lon="4.78534">
        <ele>429</ele>
        <time>2014-05-01T15:24:44.23Z</time>
      </trkpt>
      <trkpt lat="45.83006" lon="4.78532">
        <ele>429</ele>
        <time>2014-05-01T15:24:50.23Z</time>
      </trkpt>
      <trkpt lat="45.83013" lon="4.78535">
        <ele>430</ele>
        <time>2014-05-01T15:24:55.233Z</time>
      </trkpt>
      <trkpt lat="45.8302" lon="4.78539">
        <ele>432</ele>
        <time>2014-05-01T15:25:00.238Z</time>
      </trkpt>
      <trkpt lat="45.83027" lon="4.78547">
        <ele>434</ele>
        <time>2014-05-01T15:25:06.228Z</time>
      </trkpt>
      <trkpt lat="45.83029" lon="4.7855">
        <ele>434</ele>
        <time>2014-05-01T15:25:11.235Z</time>
      </trkpt>
      <trkpt lat="45.83036" lon="4.78551">
        <ele>435</ele>
        <time>2014-05-01T15:25:17.229Z</time>
      </trkpt>
      <trkpt lat="45.83043" lon="4.78555">
        <ele>434</ele>
        <time>2014-05-01T15:25:22.229Z</time>
      </trkpt>
      <trkpt lat="45.83053" lon="4.78561">
        <ele>434</ele>
        <time>2014-05-01T15:25:27.229Z</time>
      </trkpt>
      <trkpt lat="45.83056" lon="4.78564">
        <ele>436</ele>
        <time>2014-05-01T15:25:32.234Z</time>
      </trkpt>
      <trkpt lat="45.83065" lon="4.7857">
        <ele>438</ele>
        <time>2014-05-01T15:25:38.229Z</time>
      </trkpt>
      <trkpt lat="45.83069" lon="4.78574">
        <ele>439</ele>
        <time>2014-05-01T15:25:43.233Z</time>
      </trkpt>
      <trkpt lat="45.83076" lon="4.78576">
        <ele>439</ele>
        <time>2014-05-01T15:25:49.231Z</time>
      </trkpt>
      <trkpt lat="45.8308" lon="4.78581">
        <ele>443</ele>
        <time>2014-05-01T15:25:54.231Z</time>
      </trkpt>
      <trkpt lat="45.83085" lon="4.78583">
        <ele>446</ele>
        <time>2014-05-01T15:26:00.23Z</time>
      </trkpt>
      <trkpt lat="45.83087" lon="4.78585">
        <ele>448</ele>
        <time>2014-05-01T15:26:05.234Z</time>
      </trkpt>
      <trkpt lat="45.83086" lon="4.78596">
        <ele>450</ele>
        <time>2014-05-01T15:26:11.231Z</time>
      </trkpt>
      <trkpt lat="45.8308" lon="4.78611">
        <ele>453</ele>
        <time>2014-05-01T15:26:16.234Z</time>
      </trkpt>
      <trkpt lat="45.83068" lon="4.78619">
        <ele>457</ele>
        <time>2014-05-01T15:26:22.231Z</time>
      </trkpt>
      <trkpt lat="45.83059" lon="4.78646">
        <ele>457</ele>
        <time>2014-05-01T15:26:28.228Z</time>
      </trkpt>
      <trkpt lat="45.83055" lon="4.78663">
        <ele>459</ele>
        <time>2014-05-01T15:26:33.23Z</time>
      </trkpt>
      <trkpt lat="45.83045" lon="4.7868">
        <ele>461</ele>
        <time>2014-05-01T15:26:38.23Z</time>
      </trkpt>
      <trkpt lat="45.83037" lon="4.78693">
        <ele>464</ele>
        <time>2014-05-01T15:26:43.231Z</time>
      </trkpt>
      <trkpt lat="45.83027" lon="4.78709">
        <ele>466</ele>
        <time>2014-05-01T15:26:49.23Z</time>
      </trkpt>
      <trkpt lat="45.83025" lon="4.78722">
        <ele>472</ele>
        <time>2014-05-01T15:26:54.23Z</time>
      </trkpt>
      <trkpt lat="45.83013" lon="4.78731">
        <ele>478</ele>
        <time>2014-05-01T15:27:00.273Z</time>
      </trkpt>
      <trkpt lat="45.83" lon="4.78739">
        <ele>480</ele>
        <time>2014-05-01T15:27:03.23Z</time>
      </trkpt>
      <trkpt lat="45.82997" lon="4.78759">
        <ele>484</ele>
        <time>2014-05-01T15:27:08.23Z</time>
      </trkpt>
      <trkpt lat="45.8299" lon="4.78777">
        <ele>483</ele>
        <time>2014-05-01T15:27:14.228Z</time>
      </trkpt>
      <trkpt lat="45.8298" lon="4.7878">
        <ele>487</ele>
        <time>2014-05-01T15:27:19.229Z</time>
      </trkpt>
      <trkpt lat="45.82968" lon="4.78787">
        <ele>493</ele>
        <time>2014-05-01T15:27:24.23Z</time>
      </trkpt>
      <trkpt lat="45.82958" lon="4.78805">
        <ele>495</ele>
        <time>2014-05-01T15:27:30.23Z</time>
      </trkpt>
      <trkpt lat="45.82943" lon="4.78814">
        <ele>490</ele>
        <time>2014-05-01T15:27:34.23Z</time>
      </trkpt>
      <trkpt lat="45.82936" lon="4.78819">
        <ele>489</ele>
        <time>2014-05-01T15:27:39.338Z</time>
      </trkpt>
      <trkpt lat="45.82936" lon="4.78819">
        <ele>489</ele>
        <time>2014-05-01T15:27:44.343Z</time>
      </trkpt>
      <trkpt lat="45.82936" lon="4.78819">
        <ele>489</ele>
        <time>2014-05-01T15:27:49.344Z</time>
      </trkpt>
      <trkpt lat="45.82936" lon="4.78819">
        <ele>489</ele>
        <time>2014-05-01T15:27:54.346Z</time>
      </trkpt>
      <trkpt lat="45.82936" lon="4.78819">
        <ele>489</ele>
        <time>2014-05-01T15:27:59.353Z</time>
      </trkpt>
      <trkpt lat="45.82936" lon="4.78819">
        <ele>489</ele>
        <time>2014-05-01T15:28:04.526Z</time>
      </trkpt>
      <trkpt lat="45.82851" lon="4.78965">
        <ele>492</ele>
        <time>2014-05-01T15:28:17.815Z</time>
      </trkpt>
      <trkpt lat="45.82832" lon="4.78974">
        <ele>481</ele>
        <time>2014-05-01T15:28:23.811Z</time>
      </trkpt>
      <trkpt lat="45.82828" lon="4.7899">
        <ele>480</ele>
        <time>2014-05-01T15:28:28.815Z</time>
      </trkpt>
      <trkpt lat="45.82822" lon="4.79014">
        <ele>479</ele>
        <time>2014-05-01T15:28:34.811Z</time>
      </trkpt>
      <trkpt lat="45.82812" lon="4.79029">
        <ele>478</ele>
        <time>2014-05-01T15:28:38.811Z</time>
      </trkpt>
      <trkpt lat="45.82812" lon="4.79049">
        <ele>475</ele>
        <time>2014-05-01T15:28:42.841Z</time>
      </trkpt>
      <trkpt lat="45.82815" lon="4.79077">
        <ele>473</ele>
        <time>2014-05-01T15:28:48.81Z</time>
      </trkpt>
      <trkpt lat="45.82819" lon="4.791">
        <ele>472</ele>
        <time>2014-05-01T15:28:53.81Z</time>
      </trkpt>
      <trkpt lat="45.82826" lon="4.79122">
        <ele>473</ele>
        <time>2014-05-01T15:28:58.81Z</time>
      </trkpt>
      <trkpt lat="45.82836" lon="4.79138">
        <ele>477</ele>
        <time>2014-05-01T15:29:03.81Z</time>
      </trkpt>
      <trkpt lat="45.82847" lon="4.79155">
        <ele>482</ele>
        <time>2014-05-01T15:29:08.819Z</time>
      </trkpt>
      <trkpt lat="45.82845" lon="4.79176">
        <ele>478</ele>
        <time>2014-05-01T15:29:11.811Z</time>
      </trkpt>
      <trkpt lat="45.82853" lon="4.7919">
        <ele>485</ele>
        <time>2014-05-01T15:29:17.81Z</time>
      </trkpt>
      <trkpt lat="45.82859" lon="4.7921">
        <ele>490</ele>
        <time>2014-05-01T15:29:22.81Z</time>
      </trkpt>
      <trkpt lat="45.82863" lon="4.79247">
        <ele>492</ele>
        <time>2014-05-01T15:29:28.808Z</time>
      </trkpt>
      <trkpt lat="45.82871" lon="4.79271">
        <ele>491</ele>
        <time>2014-05-01T15:29:32.81Z</time>
      </trkpt>
      <trkpt lat="45.82884" lon="4.79282">
        <ele>490</ele>
        <time>2014-05-01T15:29:34.81Z</time>
      </trkpt>
      <trkpt lat="45.82885" lon="4.79299">
        <ele>487</ele>
        <time>2014-05-01T15:29:39.81Z</time>
      </trkpt>
      <trkpt lat="45.82893" lon="4.79322">
        <ele>478</ele>
        <time>2014-05-01T15:29:42.81Z</time>
      </trkpt>
      <trkpt lat="45.82889" lon="4.79342">
        <ele>474</ele>
        <time>2014-05-01T15:29:46.81Z</time>
      </trkpt>
      <trkpt lat="45.82875" lon="4.79352">
        <ele>476</ele>
        <time>2014-05-01T15:29:50.809Z</time>
      </trkpt>
      <trkpt lat="45.82862" lon="4.7936">
        <ele>476</ele>
        <time>2014-05-01T15:29:53.81Z</time>
      </trkpt>
      <trkpt lat="45.82845" lon="4.79365">
        <ele>471</ele>
        <time>2014-05-01T15:29:57.811Z</time>
      </trkpt>
      <trkpt lat="45.8282" lon="4.79367">
        <ele>464</ele>
        <time>2014-05-01T15:30:03.81Z</time>
      </trkpt>
      <trkpt lat="45.828" lon="4.79368">
        <ele>459</ele>
        <time>2014-05-01T15:30:08.81Z</time>
      </trkpt>
      <trkpt lat="45.82783" lon="4.79365">
        <ele>456</ele>
        <time>2014-05-01T15:30:14.81Z</time>
      </trkpt>
      <trkpt lat="45.82761" lon="4.79363">
        <ele>455</ele>
        <time>2014-05-01T15:30:19.81Z</time>
      </trkpt>
      <trkpt lat="45.82741" lon="4.79356">
        <ele>451</ele>
        <time>2014-05-01T15:30:24.811Z</time>
      </trkpt>
      <trkpt lat="45.82722" lon="4.79345">
        <ele>449</ele>
        <time>2014-05-01T15:30:30.815Z</time>
      </trkpt>
      <trkpt lat="45.82708" lon="4.79348">
        <ele>449</ele>
        <time>2014-05-01T15:30:34.808Z</time>
      </trkpt>
      <trkpt lat="45.82699" lon="4.79361">
        <ele>451</ele>
        <time>2014-05-01T15:30:39.81Z</time>
      </trkpt>
      <trkpt lat="45.82692" lon="4.79375">
        <ele>455</ele>
        <time>2014-05-01T15:30:44.82Z</time>
      </trkpt>
      <trkpt lat="45.82691" lon="4.79394">
        <ele>455</ele>
        <time>2014-05-01T15:30:48.81Z</time>
      </trkpt>
      <trkpt lat="45.82699" lon="4.79411">
        <ele>451</ele>
        <time>2014-05-01T15:30:51.81Z</time>
      </trkpt>
      <trkpt lat="45.8271" lon="4.79424">
        <ele>449</ele>
        <time>2014-05-01T15:30:54.81Z</time>
      </trkpt>
      <trkpt lat="45.82716" lon="4.79442">
        <ele>457</ele>
        <time>2014-05-01T15:31:00.818Z</time>
      </trkpt>
      <trkpt lat="45.82718" lon="4.79455">
        <ele>462</ele>
        <time>2014-05-01T15:31:06.81Z</time>
      </trkpt>
      <trkpt lat="45.82707" lon="4.7947">
        <ele>460</ele>
        <time>2014-05-01T15:31:08.81Z</time>
      </trkpt>
      <trkpt lat="45.82701" lon="4.79485">
        <ele>457</ele>
        <time>2014-05-01T15:31:13.81Z</time>
      </trkpt>
      <trkpt lat="45.82704" lon="4.79501">
        <ele>448</ele>
        <time>2014-05-01T15:31:18.815Z</time>
      </trkpt>
      <trkpt lat="45.82705" lon="4.79501">
        <ele>446</ele>
        <time>2014-05-01T15:31:23.821Z</time>
      </trkpt>
      <trkpt lat="45.82706" lon="4.79505">
        <ele>444</ele>
        <time>2014-05-01T15:31:29.814Z</time>
      </trkpt>
      <trkpt lat="45.82705" lon="4.79508">
        <ele>443</ele>
        <time>2014-05-01T15:31:35.809Z</time>
      </trkpt>
      <trkpt lat="45.82704" lon="4.79508">
        <ele>442</ele>
        <time>2014-05-01T15:31:38.809Z</time>
      </trkpt>
      <trkpt lat="45.82704" lon="4.79508">
        <ele>442</ele>
        <time>2014-05-01T15:31:38.809Z</time>
      </trkpt>
    </trkseg>
  </trk>
</gpx>